Wetterdaten: Freitag, 14.10.2016
Datum Zeit Temp. A. Temp. A. max Feuchte A. Luftdruck Regen Wind Richtung Richtung Sonnenschein ET UV Solar Taupunkt Windböen
14.10.2016 00:00 2,8 °C 2,8 °C 95 % 1012,3 hPa 0,0 mm 0,0 km/h (0 Bft) O 96 ° 0 min 0,000 mm 0,0 UV-I 0 W/m² 2,1 °C 0,0 km/h (0 Bft)
14.10.2016 00:01 2,7 °C 2,8 °C 95 % 1012,2 hPa 0,0 mm 0,0 km/h (0 Bft) O 96 ° 0 min 0,000 mm 0,0 UV-I 0 W/m² 2,0 °C 0,0 km/h (0 Bft)
14.10.2016 00:02 2,7 °C 2,8 °C 95 % 1012,3 hPa 0,0 mm 0,0 km/h (0 Bft) O 96 ° 0 min 0,000 mm 0,0 UV-I 0 W/m² 2,0 °C 0,0 km/h (0 Bft)
14.10.2016 00:03 2,8 °C 2,8 °C 96 % 1012,2 hPa 0,0 mm 0,0 km/h (0 Bft) O 96 ° 0 min 0,000 mm 0,0 UV-I 0 W/m² 2,2 °C 0,0 km/h (0 Bft)
14.10.2016 00:04 2,9 °C 2,9 °C 96 % 1012,2 hPa 0,0 mm 0,0 km/h (0 Bft) O 96 ° 0 min 0,000 mm 0,0 UV-I 0 W/m² 2,3 °C 0,0 km/h (0 Bft)
14.10.2016 00:05 3,1 °C 3,1 °C 96 % 1012,2 hPa 0,0 mm 0,0 km/h (0 Bft) O 96 ° 0 min 0,000 mm 0,0 UV-I 0 W/m² 2,5 °C 0,0 km/h (0 Bft)
14.10.2016 00:06 3,2 °C 3,2 °C 96 % 1012,2 hPa 0,0 mm 0,0 km/h (0 Bft) O 96 ° 0 min 0,000 mm 0,0 UV-I 0 W/m² 2,6 °C 0,0 km/h (0 Bft)
14.10.2016 00:07 3,2 °C 3,2 °C 96 % 1012,2 hPa 0,0 mm 0,0 km/h (0 Bft) O 96 ° 0 min 0,000 mm 0,0 UV-I 0 W/m² 2,6 °C 0,0 km/h (0 Bft)
14.10.2016 00:08 3,2 °C 3,2 °C 96 % 1012,2 hPa 0,0 mm 0,0 km/h (0 Bft) O 96 ° 0 min 0,000 mm 0,0 UV-I 0 W/m² 2,6 °C 0,0 km/h (0 Bft)
14.10.2016 00:09 3,2 °C 3,2 °C 96 % 1012,2 hPa 0,0 mm 0,0 km/h (0 Bft) O 96 ° 0 min 0,000 mm 0,0 UV-I 0 W/m² 2,6 °C 0,0 km/h (0 Bft)
14.10.2016 00:10 3,2 °C 3,2 °C 96 % 1012,2 hPa 0,0 mm 0,0 km/h (0 Bft) O 96 ° 0 min 0,000 mm 0,0 UV-I 0 W/m² 2,6 °C 0,0 km/h (0 Bft)
14.10.2016 00:11 3,1 °C 3,2 °C 96 % 1012,2 hPa 0,0 mm 0,0 km/h (0 Bft) O 96 ° 0 min 0,000 mm 0,0 UV-I 0 W/m² 2,5 °C 0,0 km/h (0 Bft)
14.10.2016 00:12 3,2 °C 3,2 °C 96 % 1012,1 hPa 0,0 mm 0,0 km/h (0 Bft) O 96 ° 0 min 0,000 mm 0,0 UV-I 0 W/m² 2,6 °C 0,0 km/h (0 Bft)
14.10.2016 00:13 3,2 °C 3,2 °C 96 % 1012,2 hPa 0,0 mm 0,0 km/h (0 Bft) O 96 ° 0 min 0,000 mm 0,0 UV-I 0 W/m² 2,6 °C 0,0 km/h (0 Bft)
14.10.2016 00:14 3,3 °C 3,3 °C 96 % 1012,2 hPa 0,0 mm 0,0 km/h (0 Bft) O 96 ° 0 min 0,000 mm 0,0 UV-I 0 W/m² 2,7 °C 0,0 km/h (0 Bft)
14.10.2016 00:15 3,3 °C 3,3 °C 96 % 1012,1 hPa 0,0 mm 0,0 km/h (0 Bft) O 96 ° 0 min 0,000 mm 0,0 UV-I 0 W/m² 2,7 °C 0,0 km/h (0 Bft)
14.10.2016 00:16 3,3 °C 3,3 °C 96 % 1012,2 hPa 0,0 mm 0,0 km/h (0 Bft) O 96 ° 0 min 0,000 mm 0,0 UV-I 0 W/m² 2,7 °C 0,0 km/h (0 Bft)
14.10.2016 00:17 3,3 °C 3,3 °C 96 % 1012,2 hPa 0,0 mm 0,0 km/h (0 Bft) O 96 ° 0 min 0,000 mm 0,0 UV-I 0 W/m² 2,7 °C 0,0 km/h (0 Bft)
14.10.2016 00:18 3,2 °C 3,3 °C 96 % 1012,2 hPa 0,0 mm 0,0 km/h (0 Bft) O 96 ° 0 min 0,000 mm 0,0 UV-I 0 W/m² 2,6 °C 0,0 km/h (0 Bft)
14.10.2016 00:19 3,1 °C 3,2 °C 96 % 1012,1 hPa 0,0 mm 0,0 km/h (0 Bft) O 96 ° 0 min 0,000 mm 0,0 UV-I 0 W/m² 2,5 °C 0,0 km/h (0 Bft)
14.10.2016 00:20 3,1 °C 3,1 °C 95 % 1012,2 hPa 0,0 mm 0,0 km/h (0 Bft) O 96 ° 0 min 0,000 mm 0,0 UV-I 0 W/m² 2,4 °C 0,0 km/h (0 Bft)
14.10.2016 00:21 3,1 °C 3,1 °C 95 % 1012,2 hPa 0,0 mm 0,0 km/h (0 Bft) O 96 ° 0 min 0,000 mm 0,0 UV-I 0 W/m² 2,4 °C 0,0 km/h (0 Bft)
14.10.2016 00:22 3,1 °C 3,1 °C 95 % 1012,2 hPa 0,0 mm 0,0 km/h (0 Bft) O 96 ° 0 min 0,000 mm 0,0 UV-I 0 W/m² 2,4 °C 0,0 km/h (0 Bft)
14.10.2016 00:23 3,1 °C 3,1 °C 96 % 1012,2 hPa 0,0 mm 0,0 km/h (0 Bft) O 96 ° 0 min 0,000 mm 0,0 UV-I 0 W/m² 2,5 °C 0,0 km/h (0 Bft)
14.10.2016 00:24 3,1 °C 3,1 °C 95 % 1012,2 hPa 0,0 mm 0,0 km/h (0 Bft) O 96 ° 0 min 0,000 mm 0,0 UV-I 0 W/m² 2,4 °C 0,0 km/h (0 Bft)
14.10.2016 00:25 3,1 °C 3,1 °C 95 % 1012,2 hPa 0,0 mm 0,0 km/h (0 Bft) O 96 ° 0 min 0,000 mm 0,0 UV-I 0 W/m² 2,4 °C 0,0 km/h (0 Bft)
14.10.2016 00:26 3,1 °C 3,1 °C 95 % 1012,2 hPa 0,0 mm 0,0 km/h (0 Bft) O 96 ° 0 min 0,000 mm 0,0 UV-I 0 W/m² 2,4 °C 0,0 km/h (0 Bft)
14.10.2016 00:27 2,9 °C 3,1 °C 95 % 1012,2 hPa 0,0 mm 0,0 km/h (0 Bft) O 96 ° 0 min 0,000 mm 0,0 UV-I 0 W/m² 2,2 °C 0,0 km/h (0 Bft)
14.10.2016 00:28 2,9 °C 3,0 °C 95 % 1012,2 hPa 0,0 mm 0,0 km/h (0 Bft) O 96 ° 0 min 0,000 mm 0,0 UV-I 0 W/m² 2,2 °C 0,0 km/h (0 Bft)
14.10.2016 00:29 2,9 °C 2,9 °C 95 % 1012,2 hPa 0,0 mm 0,0 km/h (0 Bft) O 96 ° 0 min 0,000 mm 0,0 UV-I 0 W/m² 2,2 °C 0,0 km/h (0 Bft)
14.10.2016 00:30 2,9 °C 2,9 °C 95 % 1012,1 hPa 0,0 mm 0,0 km/h (0 Bft) O 96 ° 0 min 0,000 mm 0,0 UV-I 0 W/m² 2,2 °C 0,0 km/h (0 Bft)
14.10.2016 00:31 2,9 °C 2,9 °C 95 % 1012,1 hPa 0,0 mm 0,0 km/h (0 Bft) O 96 ° 0 min 0,000 mm 0,0 UV-I 0 W/m² 2,2 °C 0,0 km/h (0 Bft)
14.10.2016 00:32 3,0 °C 3,0 °C 96 % 1012,1 hPa 0,0 mm 0,0 km/h (0 Bft) O 96 ° 0 min 0,000 mm 0,0 UV-I 0 W/m² 2,4 °C 0,0 km/h (0 Bft)
14.10.2016 00:33 3,1 °C 3,1 °C 96 % 1012,1 hPa 0,0 mm 0,0 km/h (0 Bft) O 96 ° 0 min 0,000 mm 0,0 UV-I 0 W/m² 2,5 °C 0,0 km/h (0 Bft)
14.10.2016 00:34 3,2 °C 3,2 °C 96 % 1012,1 hPa 0,0 mm 0,0 km/h (0 Bft) O 96 ° 0 min 0,000 mm 0,0 UV-I 0 W/m² 2,6 °C 0,0 km/h (0 Bft)
14.10.2016 00:35 3,3 °C 3,3 °C 96 % 1012,1 hPa 0,0 mm 0,0 km/h (0 Bft) O 96 ° 0 min 0,000 mm 0,0 UV-I 0 W/m² 2,7 °C 0,0 km/h (0 Bft)
14.10.2016 00:36 3,3 °C 3,3 °C 96 % 1012,2 hPa 0,0 mm 0,0 km/h (0 Bft) O 96 ° 0 min 0,000 mm 0,0 UV-I 0 W/m² 2,7 °C 0,0 km/h (0 Bft)
14.10.2016 00:37 3,3 °C 3,4 °C 96 % 1012,1 hPa 0,0 mm 0,0 km/h (0 Bft) O 96 ° 0 min 0,000 mm 0,0 UV-I 0 W/m² 2,7 °C 0,0 km/h (0 Bft)
14.10.2016 00:38 3,4 °C 3,4 °C 96 % 1012,1 hPa 0,0 mm 0,0 km/h (0 Bft) O 96 ° 0 min 0,000 mm 0,0 UV-I 0 W/m² 2,8 °C 0,0 km/h (0 Bft)
14.10.2016 00:39 3,4 °C 3,4 °C 96 % 1012,1 hPa 0,0 mm 0,0 km/h (0 Bft) O 96 ° 0 min 0,000 mm 0,0 UV-I 0 W/m² 2,8 °C 0,0 km/h (0 Bft)
14.10.2016 00:40 3,4 °C 3,4 °C 96 % 1012,1 hPa 0,0 mm 0,0 km/h (0 Bft) O 96 ° 0 min 0,000 mm 0,0 UV-I 0 W/m² 2,8 °C 0,0 km/h (0 Bft)
14.10.2016 00:41 3,5 °C 3,5 °C 96 % 1012,1 hPa 0,0 mm 0,0 km/h (0 Bft) O 96 ° 0 min 0,000 mm 0,0 UV-I 0 W/m² 2,9 °C 0,0 km/h (0 Bft)
14.10.2016 00:42 3,5 °C 3,5 °C 96 % 1012,1 hPa 0,0 mm 0,0 km/h (0 Bft) O 96 ° 0 min 0,000 mm 0,0 UV-I 0 W/m² 2,9 °C 0,0 km/h (0 Bft)
14.10.2016 00:43 3,5 °C 3,5 °C 96 % 1012,1 hPa 0,0 mm 0,0 km/h (0 Bft) O 96 ° 0 min 0,000 mm 0,0 UV-I 0 W/m² 2,9 °C 0,0 km/h (0 Bft)
14.10.2016 00:44 3,5 °C 3,5 °C 96 % 1012,1 hPa 0,0 mm 0,0 km/h (0 Bft) O 96 ° 0 min 0,000 mm 0,0 UV-I 0 W/m² 2,9 °C 0,0 km/h (0 Bft)
14.10.2016 00:45 3,5 °C 3,6 °C 96 % 1012,0 hPa 0,0 mm 0,0 km/h (0 Bft) O 96 ° 0 min 0,000 mm 0,0 UV-I 0 W/m² 2,9 °C 0,0 km/h (0 Bft)
14.10.2016 00:46 3,5 °C 3,6 °C 96 % 1012,1 hPa 0,0 mm 0,0 km/h (0 Bft) O 96 ° 0 min 0,000 mm 0,0 UV-I 0 W/m² 2,9 °C 0,0 km/h (0 Bft)
14.10.2016 00:47 3,4 °C 3,5 °C 96 % 1012,1 hPa 0,0 mm 0,0 km/h (0 Bft) O 96 ° 0 min 0,000 mm 0,0 UV-I 0 W/m² 2,8 °C 0,0 km/h (0 Bft)
14.10.2016 00:48 3,4 °C 3,4 °C 96 % 1012,1 hPa 0,0 mm 0,0 km/h (0 Bft) O 96 ° 0 min 0,000 mm 0,0 UV-I 0 W/m² 2,8 °C 0,0 km/h (0 Bft)
14.10.2016 00:49 3,3 °C 3,4 °C 95 % 1012,0 hPa 0,0 mm 0,0 km/h (0 Bft) O 96 ° 0 min 0,000 mm 0,0 UV-I 0 W/m² 2,6 °C 0,0 km/h (0 Bft)
14.10.2016 00:50 3,1 °C 3,3 °C 95 % 1012,0 hPa 0,0 mm 0,0 km/h (0 Bft) O 96 ° 0 min 0,000 mm 0,0 UV-I 0 W/m² 2,4 °C 0,0 km/h (0 Bft)
14.10.2016 00:51 3,0 °C 3,1 °C 95 % 1012,0 hPa 0,0 mm 0,0 km/h (0 Bft) O 96 ° 0 min 0,000 mm 0,0 UV-I 0 W/m² 2,3 °C 0,0 km/h (0 Bft)
14.10.2016 00:52 2,9 °C 3,0 °C 95 % 1012,1 hPa 0,0 mm 0,0 km/h (0 Bft) O 96 ° 0 min 0,000 mm 0,0 UV-I 0 W/m² 2,2 °C 0,0 km/h (0 Bft)
14.10.2016 00:53 2,8 °C 2,9 °C 95 % 1012,0 hPa 0,0 mm 0,0 km/h (0 Bft) O 96 ° 0 min 0,000 mm 0,0 UV-I 0 W/m² 2,1 °C 0,0 km/h (0 Bft)
14.10.2016 00:54 2,7 °C 2,8 °C 95 % 1012,1 hPa 0,0 mm 0,0 km/h (0 Bft) O 96 ° 0 min 0,000 mm 0,0 UV-I 0 W/m² 2,0 °C 0,0 km/h (0 Bft)
14.10.2016 00:55 2,7 °C 2,7 °C 95 % 1012,1 hPa 0,0 mm 0,0 km/h (0 Bft) O 96 ° 0 min 0,000 mm 0,0 UV-I 0 W/m² 2,0 °C 0,0 km/h (0 Bft)
14.10.2016 00:56 2,7 °C 2,7 °C 95 % 1012,0 hPa 0,0 mm 0,0 km/h (0 Bft) O 96 ° 0 min 0,000 mm 0,0 UV-I 0 W/m² 2,0 °C 0,0 km/h (0 Bft)
14.10.2016 00:57 2,6 °C 2,7 °C 95 % 1012,0 hPa 0,0 mm 0,0 km/h (0 Bft) O 96 ° 0 min 0,000 mm 0,0 UV-I 0 W/m² 1,9 °C 0,0 km/h (0 Bft)
14.10.2016 00:58 2,6 °C 2,6 °C 95 % 1012,0 hPa 0,0 mm 0,0 km/h (0 Bft) O 96 ° 0 min 0,000 mm 0,0 UV-I 0 W/m² 1,9 °C 0,0 km/h (0 Bft)
14.10.2016 00:59 2,7 °C 2,7 °C 95 % 1012,0 hPa 0,0 mm 0,0 km/h (0 Bft) O 96 ° 0 min 0,000 mm 0,0 UV-I 0 W/m² 2,0 °C 0,0 km/h (0 Bft)
14.10.2016 01:00 2,6 °C 2,7 °C 95 % 1012,0 hPa 0,0 mm 0,0 km/h (0 Bft) O 96 ° 0 min 0,000 mm 0,0 UV-I 0 W/m² 1,9 °C 0,0 km/h (0 Bft)
14.10.2016 01:01 2,6 °C 2,6 °C 95 % 1012,0 hPa 0,0 mm 0,0 km/h (0 Bft) O 96 ° 0 min 0,000 mm 0,0 UV-I 0 W/m² 1,9 °C 0,0 km/h (0 Bft)
14.10.2016 01:02 2,6 °C 2,6 °C 95 % 1012,0 hPa 0,0 mm 0,0 km/h (0 Bft) O 96 ° 0 min 0,000 mm 0,0 UV-I 0 W/m² 1,9 °C 0,0 km/h (0 Bft)
14.10.2016 01:03 2,6 °C 2,6 °C 95 % 1012,0 hPa 0,0 mm 0,0 km/h (0 Bft) O 96 ° 0 min 0,000 mm 0,0 UV-I 0 W/m² 1,9 °C 0,0 km/h (0 Bft)
14.10.2016 01:04 2,6 °C 2,6 °C 95 % 1012,0 hPa 0,0 mm 0,0 km/h (0 Bft) O 96 ° 0 min 0,000 mm 0,0 UV-I 0 W/m² 1,9 °C 0,0 km/h (0 Bft)
14.10.2016 01:05 2,6 °C 2,6 °C 95 % 1012,0 hPa 0,0 mm 0,0 km/h (0 Bft) O 96 ° 0 min 0,000 mm 0,0 UV-I 0 W/m² 1,9 °C 0,0 km/h (0 Bft)
14.10.2016 01:06 2,6 °C 2,6 °C 96 % 1011,9 hPa 0,0 mm 0,0 km/h (0 Bft) O 96 ° 0 min 0,000 mm 0,0 UV-I 0 W/m² 2,0 °C 0,0 km/h (0 Bft)
14.10.2016 01:07 2,6 °C 2,6 °C 96 % 1011,9 hPa 0,0 mm 0,0 km/h (0 Bft) O 96 ° 0 min 0,000 mm 0,0 UV-I 0 W/m² 2,0 °C 0,0 km/h (0 Bft)
14.10.2016 01:08 2,5 °C 2,6 °C 95 % 1011,9 hPa 0,0 mm 0,0 km/h (0 Bft) O 96 ° 0 min 0,000 mm 0,0 UV-I 0 W/m² 1,8 °C 0,0 km/h (0 Bft)
14.10.2016 01:09 2,5 °C 2,5 °C 95 % 1011,9 hPa 0,0 mm 0,0 km/h (0 Bft) O 96 ° 0 min 0,000 mm 0,0 UV-I 0 W/m² 1,8 °C 0,0 km/h (0 Bft)
14.10.2016 01:10 2,5 °C 2,5 °C 95 % 1011,9 hPa 0,0 mm 0,0 km/h (0 Bft) O 96 ° 0 min 0,000 mm 0,0 UV-I 0 W/m² 1,8 °C 0,0 km/h (0 Bft)
14.10.2016 01:11 2,5 °C 2,5 °C 96 % 1011,9 hPa 0,0 mm 0,0 km/h (0 Bft) O 96 ° 0 min 0,000 mm 0,0 UV-I 0 W/m² 1,9 °C 0,0 km/h (0 Bft)
14.10.2016 01:12 2,5 °C 2,5 °C 96 % 1011,9 hPa 0,0 mm 0,0 km/h (0 Bft) O 96 ° 0 min 0,000 mm 0,0 UV-I 0 W/m² 1,9 °C 0,0 km/h (0 Bft)
14.10.2016 01:13 2,5 °C 2,6 °C 96 % 1011,9 hPa 0,0 mm 0,0 km/h (0 Bft) O 96 ° 0 min 0,000 mm 0,0 UV-I 0 W/m² 1,9 °C 0,0 km/h (0 Bft)
14.10.2016 01:14 2,5 °C 2,5 °C 96 % 1011,9 hPa 0,0 mm 0,0 km/h (0 Bft) O 96 ° 0 min 0,000 mm 0,0 UV-I 0 W/m² 1,9 °C 0,0 km/h (0 Bft)
14.10.2016 01:15 2,4 °C 2,5 °C 96 % 1011,9 hPa 0,0 mm 0,0 km/h (0 Bft) O 96 ° 0 min 0,000 mm 0,0 UV-I 0 W/m² 1,8 °C 0,0 km/h (0 Bft)
14.10.2016 01:16 2,5 °C 2,5 °C 96 % 1011,9 hPa 0,0 mm 0,0 km/h (0 Bft) O 96 ° 0 min 0,000 mm 0,0 UV-I 0 W/m² 1,9 °C 0,0 km/h (0 Bft)
14.10.2016 01:17 2,4 °C 2,5 °C 96 % 1011,9 hPa 0,0 mm 0,0 km/h (0 Bft) O 96 ° 0 min 0,000 mm 0,0 UV-I 0 W/m² 1,8 °C 0,0 km/h (0 Bft)
14.10.2016 01:18 2,4 °C 2,4 °C 96 % 1011,9 hPa 0,0 mm 0,0 km/h (0 Bft) O 96 ° 0 min 0,000 mm 0,0 UV-I 0 W/m² 1,8 °C 0,0 km/h (0 Bft)
14.10.2016 01:19 2,4 °C 2,4 °C 96 % 1011,9 hPa 0,0 mm 0,0 km/h (0 Bft) O 96 ° 0 min 0,000 mm 0,0 UV-I 0 W/m² 1,8 °C 0,0 km/h (0 Bft)
14.10.2016 01:20 2,4 °C 2,4 °C 96 % 1011,8 hPa 0,0 mm 0,0 km/h (0 Bft) O 96 ° 0 min 0,000 mm 0,0 UV-I 0 W/m² 1,8 °C 0,0 km/h (0 Bft)
14.10.2016 01:21 2,4 °C 2,4 °C 96 % 1011,9 hPa 0,0 mm 0,0 km/h (0 Bft) O 96 ° 0 min 0,000 mm 0,0 UV-I 0 W/m² 1,8 °C 0,0 km/h (0 Bft)
14.10.2016 01:22 2,4 °C 2,4 °C 96 % 1011,8 hPa 0,0 mm 0,0 km/h (0 Bft) O 96 ° 0 min 0,000 mm 0,0 UV-I 0 W/m² 1,8 °C 0,0 km/h (0 Bft)
14.10.2016 01:23 2,4 °C 2,4 °C 96 % 1011,8 hPa 0,0 mm 0,0 km/h (0 Bft) O 96 ° 0 min 0,000 mm 0,0 UV-I 0 W/m² 1,8 °C 0,0 km/h (0 Bft)
14.10.2016 01:24 2,4 °C 2,4 °C 96 % 1011,8 hPa 0,0 mm 0,0 km/h (0 Bft) O 96 ° 0 min 0,000 mm 0,0 UV-I 0 W/m² 1,8 °C 0,0 km/h (0 Bft)
14.10.2016 01:25 2,4 °C 2,4 °C 96 % 1011,8 hPa 0,0 mm 0,0 km/h (0 Bft) O 96 ° 0 min 0,000 mm 0,0 UV-I 0 W/m² 1,8 °C 0,0 km/h (0 Bft)
14.10.2016 01:26 2,5 °C 2,5 °C 96 % 1011,8 hPa 0,0 mm 0,0 km/h (0 Bft) O 96 ° 0 min 0,000 mm 0,0 UV-I 0 W/m² 1,9 °C 0,0 km/h (0 Bft)
14.10.2016 01:27 2,4 °C 2,5 °C 96 % 1011,8 hPa 0,0 mm 0,0 km/h (0 Bft) O 96 ° 0 min 0,000 mm 0,0 UV-I 0 W/m² 1,8 °C 0,0 km/h (0 Bft)
14.10.2016 01:28 2,4 °C 2,4 °C 96 % 1011,9 hPa 0,0 mm 0,0 km/h (0 Bft) O 96 ° 0 min 0,000 mm 0,0 UV-I 0 W/m² 1,8 °C 0,0 km/h (0 Bft)
14.10.2016 01:29 2,3 °C 2,4 °C 96 % 1011,8 hPa 0,0 mm 0,0 km/h (0 Bft) O 96 ° 0 min 0,000 mm 0,0 UV-I 0 W/m² 1,7 °C 0,0 km/h (0 Bft)
14.10.2016 01:30 2,3 °C 2,4 °C 96 % 1011,8 hPa 0,0 mm 0,0 km/h (0 Bft) O 96 ° 0 min 0,000 mm 0,0 UV-I 0 W/m² 1,7 °C 0,0 km/h (0 Bft)
14.10.2016 01:31 2,3 °C 2,4 °C 96 % 1011,9 hPa 0,0 mm 0,0 km/h (0 Bft) O 96 ° 0 min 0,000 mm 0,0 UV-I 0 W/m² 1,7 °C 0,0 km/h (0 Bft)
14.10.2016 01:32 2,4 °C 2,4 °C 96 % 1011,9 hPa 0,0 mm 0,0 km/h (0 Bft) O 96 ° 0 min 0,000 mm 0,0 UV-I 0 W/m² 1,8 °C 0,0 km/h (0 Bft)
14.10.2016 01:33 2,3 °C 2,4 °C 96 % 1011,8 hPa 0,0 mm 0,0 km/h (0 Bft) O 96 ° 0 min 0,000 mm 0,0 UV-I 0 W/m² 1,7 °C 0,0 km/h (0 Bft)
14.10.2016 01:34 2,4 °C 2,4 °C 96 % 1011,8 hPa 0,0 mm 0,0 km/h (0 Bft) O 96 ° 0 min 0,000 mm 0,0 UV-I 0 W/m² 1,8 °C 0,0 km/h (0 Bft)
14.10.2016 01:35 2,4 °C 2,4 °C 96 % 1011,8 hPa 0,0 mm 0,0 km/h (0 Bft) O 96 ° 0 min 0,000 mm 0,0 UV-I 0 W/m² 1,8 °C 0,0 km/h (0 Bft)
14.10.2016 01:36 2,4 °C 2,4 °C 96 % 1011,8 hPa 0,0 mm 0,0 km/h (0 Bft) O 96 ° 0 min 0,000 mm 0,0 UV-I 0 W/m² 1,8 °C 0,0 km/h (0 Bft)
14.10.2016 01:37 2,4 °C 2,4 °C 96 % 1011,8 hPa 0,0 mm 0,0 km/h (0 Bft) O 96 ° 0 min 0,000 mm 0,0 UV-I 0 W/m² 1,8 °C 0,0 km/h (0 Bft)
14.10.2016 01:38 2,4 °C 2,4 °C 96 % 1011,8 hPa 0,0 mm 0,0 km/h (0 Bft) O 96 ° 0 min 0,000 mm 0,0 UV-I 0 W/m² 1,8 °C 0,0 km/h (0 Bft)
14.10.2016 01:39 2,4 °C 2,4 °C 96 % 1011,8 hPa 0,0 mm 0,0 km/h (0 Bft) O 96 ° 0 min 0,000 mm 0,0 UV-I 0 W/m² 1,8 °C 0,0 km/h (0 Bft)
14.10.2016 01:40 2,4 °C 2,4 °C 96 % 1011,8 hPa 0,0 mm 0,0 km/h (0 Bft) O 96 ° 0 min 0,000 mm 0,0 UV-I 0 W/m² 1,8 °C 0,0 km/h (0 Bft)
14.10.2016 01:41 2,4 °C 2,4 °C 96 % 1011,8 hPa 0,0 mm 0,0 km/h (0 Bft) O 96 ° 0 min 0,000 mm 0,0 UV-I 0 W/m² 1,8 °C 0,0 km/h (0 Bft)
14.10.2016 01:42 2,6 °C 2,6 °C 96 % 1011,8 hPa 0,0 mm 0,0 km/h (0 Bft) O 96 ° 0 min 0,000 mm 0,0 UV-I 0 W/m² 2,0 °C 0,0 km/h (0 Bft)
14.10.2016 01:43 2,4 °C 2,6 °C 96 % 1011,8 hPa 0,0 mm 0,0 km/h (0 Bft) O 96 ° 0 min 0,000 mm 0,0 UV-I 0 W/m² 1,8 °C 0,0 km/h (0 Bft)
14.10.2016 01:44 2,4 °C 2,4 °C 96 % 1011,9 hPa 0,0 mm 0,0 km/h (0 Bft) O 96 ° 0 min 0,000 mm 0,0 UV-I 0 W/m² 1,8 °C 0,0 km/h (0 Bft)
14.10.2016 01:45 2,3 °C 2,4 °C 96 % 1011,8 hPa 0,0 mm 0,0 km/h (0 Bft) O 96 ° 0 min 0,000 mm 0,0 UV-I 0 W/m² 1,7 °C 0,0 km/h (0 Bft)
14.10.2016 01:46 2,3 °C 2,3 °C 96 % 1011,9 hPa 0,0 mm 0,0 km/h (0 Bft) O 96 ° 0 min 0,000 mm 0,0 UV-I 0 W/m² 1,7 °C 0,0 km/h (0 Bft)
14.10.2016 01:47 2,2 °C 2,3 °C 95 % 1011,8 hPa 0,0 mm 0,0 km/h (0 Bft) O 96 ° 0 min 0,000 mm 0,0 UV-I 0 W/m² 1,5 °C 0,0 km/h (0 Bft)
14.10.2016 01:48 2,2 °C 2,2 °C 95 % 1011,8 hPa 0,0 mm 0,0 km/h (0 Bft) O 96 ° 0 min 0,000 mm 0,0 UV-I 0 W/m² 1,5 °C 0,0 km/h (0 Bft)
14.10.2016 01:49 2,2 °C 2,2 °C 96 % 1011,7 hPa 0,0 mm 0,0 km/h (0 Bft) O 96 ° 0 min 0,000 mm 0,0 UV-I 0 W/m² 1,6 °C 0,0 km/h (0 Bft)
14.10.2016 01:50 2,2 °C 2,2 °C 95 % 1011,7 hPa 0,0 mm 0,0 km/h (0 Bft) O 96 ° 0 min 0,000 mm 0,0 UV-I 0 W/m² 1,5 °C 0,0 km/h (0 Bft)
14.10.2016 01:51 2,3 °C 2,3 °C 96 % 1011,7 hPa 0,0 mm 0,0 km/h (0 Bft) O 96 ° 0 min 0,000 mm 0,0 UV-I 0 W/m² 1,7 °C 0,0 km/h (0 Bft)
14.10.2016 01:52 2,3 °C 2,3 °C 96 % 1011,8 hPa 0,0 mm 0,0 km/h (0 Bft) O 96 ° 0 min 0,000 mm 0,0 UV-I 0 W/m² 1,7 °C 0,0 km/h (0 Bft)
14.10.2016 01:53 2,2 °C 2,3 °C 96 % 1011,8 hPa 0,0 mm 0,0 km/h (0 Bft) O 96 ° 0 min 0,000 mm 0,0 UV-I 0 W/m² 1,6 °C 0,0 km/h (0 Bft)
14.10.2016 01:54 2,2 °C 2,2 °C 95 % 1011,7 hPa 0,0 mm 0,0 km/h (0 Bft) O 96 ° 0 min 0,000 mm 0,0 UV-I 0 W/m² 1,5 °C 0,0 km/h (0 Bft)
14.10.2016 01:55 2,1 °C 2,2 °C 95 % 1011,7 hPa 0,0 mm 0,0 km/h (0 Bft) O 96 ° 0 min 0,000 mm 0,0 UV-I 0 W/m² 1,4 °C 0,0 km/h (0 Bft)
14.10.2016 01:56 2,0 °C 2,1 °C 95 % 1011,7 hPa 0,0 mm 0,0 km/h (0 Bft) O 96 ° 0 min 0,000 mm 0,0 UV-I 0 W/m² 1,3 °C 0,0 km/h (0 Bft)
14.10.2016 01:57 2,0 °C 2,0 °C 95 % 1011,8 hPa 0,0 mm 0,0 km/h (0 Bft) O 96 ° 0 min 0,000 mm 0,0 UV-I 0 W/m² 1,3 °C 0,0 km/h (0 Bft)
14.10.2016 01:58 1,9 °C 2,0 °C 95 % 1011,9 hPa 0,0 mm 0,0 km/h (0 Bft) O 96 ° 0 min 0,000 mm 0,0 UV-I 0 W/m² 1,2 °C 0,0 km/h (0 Bft)
14.10.2016 01:59 1,9 °C 1,9 °C 95 % 1011,9 hPa 0,0 mm 0,0 km/h (0 Bft) O 96 ° 0 min 0,000 mm 0,0 UV-I 0 W/m² 1,2 °C 0,0 km/h (0 Bft)
14.10.2016 02:00 1,9 °C 1,9 °C 95 % 1011,9 hPa 0,0 mm 0,0 km/h (0 Bft) O 96 ° 0 min 0,000 mm 0,0 UV-I 0 W/m² 1,2 °C 0,0 km/h (0 Bft)
14.10.2016 02:01 2,0 °C 2,0 °C 96 % 1011,9 hPa 0,0 mm 0,0 km/h (0 Bft) O-SO 103 ° 0 min 0,000 mm 0,0 UV-I 0 W/m² 1,4 °C 0,0 km/h (0 Bft)
14.10.2016 02:02 2,1 °C 2,1 °C 96 % 1011,9 hPa 0,0 mm 0,0 km/h (0 Bft) O-SO 103 ° 0 min 0,000 mm 0,0 UV-I 0 W/m² 1,5 °C 0,0 km/h (0 Bft)
14.10.2016 02:03 2,2 °C 2,2 °C 96 % 1012,0 hPa 0,0 mm 0,0 km/h (0 Bft) O-SO 103 ° 0 min 0,000 mm 0,0 UV-I 0 W/m² 1,6 °C 0,0 km/h (0 Bft)
14.10.2016 02:04 2,3 °C 2,3 °C 96 % 1012,0 hPa 0,0 mm 0,0 km/h (0 Bft) O-SO 103 ° 0 min 0,000 mm 0,0 UV-I 0 W/m² 1,7 °C 0,0 km/h (0 Bft)
14.10.2016 02:05 2,3 °C 2,4 °C 96 % 1012,0 hPa 0,0 mm 0,0 km/h (0 Bft) O-SO 103 ° 0 min 0,000 mm 0,0 UV-I 0 W/m² 1,7 °C 0,0 km/h (0 Bft)
14.10.2016 02:06 2,2 °C 2,3 °C 96 % 1012,0 hPa 0,0 mm 0,0 km/h (0 Bft) O-SO 103 ° 0 min 0,000 mm 0,0 UV-I 0 W/m² 1,6 °C 0,0 km/h (0 Bft)
14.10.2016 02:07 2,2 °C 2,2 °C 96 % 1012,0 hPa 0,0 mm 0,0 km/h (0 Bft) O-SO 103 ° 0 min 0,000 mm 0,0 UV-I 0 W/m² 1,6 °C 0,0 km/h (0 Bft)
14.10.2016 02:08 2,1 °C 2,2 °C 95 % 1012,0 hPa 0,0 mm 0,0 km/h (0 Bft) O-SO 103 ° 0 min 0,000 mm 0,0 UV-I 0 W/m² 1,4 °C 0,0 km/h (0 Bft)
14.10.2016 02:09 2,0 °C 2,1 °C 95 % 1012,0 hPa 0,0 mm 0,0 km/h (0 Bft) O-SO 103 ° 0 min 0,000 mm 0,0 UV-I 0 W/m² 1,3 °C 0,0 km/h (0 Bft)
14.10.2016 02:10 1,9 °C 2,0 °C 95 % 1011,9 hPa 0,0 mm 0,0 km/h (0 Bft) O-SO 103 ° 0 min 0,000 mm 0,0 UV-I 0 W/m² 1,2 °C 0,0 km/h (0 Bft)
14.10.2016 02:11 1,9 °C 1,9 °C 95 % 1011,9 hPa 0,0 mm 0,0 km/h (0 Bft) O-SO 103 ° 0 min 0,000 mm 0,0 UV-I 0 W/m² 1,2 °C 0,0 km/h (0 Bft)
14.10.2016 02:12 1,9 °C 1,9 °C 96 % 1011,9 hPa 0,0 mm 0,0 km/h (0 Bft) O-SO 103 ° 0 min 0,000 mm 0,0 UV-I 0 W/m² 1,3 °C 0,0 km/h (0 Bft)
14.10.2016 02:13 2,0 °C 2,0 °C 96 % 1011,9 hPa 0,0 mm 0,0 km/h (0 Bft) O-SO 103 ° 0 min 0,000 mm 0,0 UV-I 0 W/m² 1,4 °C 0,0 km/h (0 Bft)
14.10.2016 02:14 2,0 °C 2,0 °C 96 % 1011,9 hPa 0,0 mm 0,0 km/h (0 Bft) O-SO 103 ° 0 min 0,000 mm 0,0 UV-I 0 W/m² 1,4 °C 0,0 km/h (0 Bft)
14.10.2016 02:15 2,1 °C 2,1 °C 96 % 1011,9 hPa 0,0 mm 0,0 km/h (0 Bft) O-SO 103 ° 0 min 0,000 mm 0,0 UV-I 0 W/m² 1,5 °C 0,0 km/h (0 Bft)
14.10.2016 02:16 2,1 °C 2,1 °C 96 % 1011,9 hPa 0,0 mm 0,0 km/h (0 Bft) O-SO 103 ° 0 min 0,000 mm 0,0 UV-I 0 W/m² 1,5 °C 0,0 km/h (0 Bft)
14.10.2016 02:17 2,0 °C 2,1 °C 96 % 1011,9 hPa 0,0 mm 0,0 km/h (0 Bft) O-SO 103 ° 0 min 0,000 mm 0,0 UV-I 0 W/m² 1,4 °C 0,0 km/h (0 Bft)
14.10.2016 02:18 2,0 °C 2,0 °C 96 % 1012,0 hPa 0,0 mm 0,0 km/h (0 Bft) O-SO 103 ° 0 min 0,000 mm 0,0 UV-I 0 W/m² 1,4 °C 0,0 km/h (0 Bft)
14.10.2016 02:19 2,1 °C 2,1 °C 96 % 1011,9 hPa 0,0 mm 0,0 km/h (0 Bft) O-SO 103 ° 0 min 0,000 mm 0,0 UV-I 0 W/m² 1,5 °C 0,0 km/h (0 Bft)
14.10.2016 02:20 2,1 °C 2,1 °C 96 % 1012,0 hPa 0,0 mm 0,0 km/h (0 Bft) O-SO 103 ° 0 min 0,000 mm 0,0 UV-I 0 W/m² 1,5 °C 0,0 km/h (0 Bft)
14.10.2016 02:21 1,9 °C 2,1 °C 96 % 1012,0 hPa 0,0 mm 0,0 km/h (0 Bft) O-SO 103 ° 0 min 0,000 mm 0,0 UV-I 0 W/m² 1,3 °C 0,0 km/h (0 Bft)
14.10.2016 02:22 1,8 °C 1,9 °C 96 % 1012,0 hPa 0,0 mm 0,0 km/h (0 Bft) O-SO 103 ° 0 min 0,000 mm 0,0 UV-I 0 W/m² 1,2 °C 0,0 km/h (0 Bft)
14.10.2016 02:23 1,8 °C 1,8 °C 95 % 1012,0 hPa 0,0 mm 0,0 km/h (0 Bft) O-SO 103 ° 0 min 0,000 mm 0,0 UV-I 0 W/m² 1,1 °C 0,0 km/h (0 Bft)
14.10.2016 02:24 1,7 °C 1,8 °C 95 % 1012,0 hPa 0,0 mm 0,0 km/h (0 Bft) O-SO 103 ° 0 min 0,000 mm 0,0 UV-I 0 W/m² 1,0 °C 0,0 km/h (0 Bft)
14.10.2016 02:25 1,7 °C 1,7 °C 95 % 1012,0 hPa 0,0 mm 0,0 km/h (0 Bft) O-SO 103 ° 0 min 0,000 mm 0,0 UV-I 0 W/m² 1,0 °C 0,0 km/h (0 Bft)
14.10.2016 02:26 1,7 °C 1,7 °C 95 % 1012,0 hPa 0,0 mm 0,0 km/h (0 Bft) O-SO 103 ° 0 min 0,000 mm 0,0 UV-I 0 W/m² 1,0 °C 0,0 km/h (0 Bft)
14.10.2016 02:27 1,7 °C 1,7 °C 95 % 1012,0 hPa 0,0 mm 0,0 km/h (0 Bft) O-SO 103 ° 0 min 0,000 mm 0,0 UV-I 0 W/m² 1,0 °C 0,0 km/h (0 Bft)
14.10.2016 02:28 1,7 °C 1,7 °C 96 % 1012,0 hPa 0,0 mm 0,0 km/h (0 Bft) O-SO 103 ° 0 min 0,000 mm 0,0 UV-I 0 W/m² 1,1 °C 0,0 km/h (0 Bft)
14.10.2016 02:29 1,7 °C 1,7 °C 96 % 1012,0 hPa 0,0 mm 0,0 km/h (0 Bft) O-SO 103 ° 0 min 0,000 mm 0,0 UV-I 0 W/m² 1,1 °C 0,0 km/h (0 Bft)
14.10.2016 02:30 1,7 °C 1,7 °C 96 % 1012,0 hPa 0,0 mm 0,0 km/h (0 Bft) O-SO 103 ° 0 min 0,000 mm 0,0 UV-I 0 W/m² 1,1 °C 0,0 km/h (0 Bft)
14.10.2016 02:31 1,7 °C 1,7 °C 96 % 1012,0 hPa 0,0 mm 0,0 km/h (0 Bft) O-SO 103 ° 0 min 0,000 mm 0,0 UV-I 0 W/m² 1,1 °C 0,0 km/h (0 Bft)
14.10.2016 02:32 1,7 °C 1,7 °C 96 % 1012,0 hPa 0,0 mm 0,0 km/h (0 Bft) O-SO 103 ° 0 min 0,000 mm 0,0 UV-I 0 W/m² 1,1 °C 0,0 km/h (0 Bft)
14.10.2016 02:33 1,7 °C 1,7 °C 96 % 1012,0 hPa 0,0 mm 0,0 km/h (0 Bft) O-SO 103 ° 0 min 0,000 mm 0,0 UV-I 0 W/m² 1,1 °C 0,0 km/h (0 Bft)
14.10.2016 02:34 1,7 °C 1,7 °C 96 % 1012,0 hPa 0,0 mm 0,0 km/h (0 Bft) O-SO 103 ° 0 min 0,000 mm 0,0 UV-I 0 W/m² 1,1 °C 0,0 km/h (0 Bft)
14.10.2016 02:35 1,8 °C 1,8 °C 96 % 1012,0 hPa 0,0 mm 0,0 km/h (0 Bft) O-SO 103 ° 0 min 0,000 mm 0,0 UV-I 0 W/m² 1,2 °C 0,0 km/h (0 Bft)
14.10.2016 02:36 1,8 °C 1,8 °C 96 % 1012,0 hPa 0,0 mm 0,0 km/h (0 Bft) O-SO 103 ° 0 min 0,000 mm 0,0 UV-I 0 W/m² 1,2 °C 0,0 km/h (0 Bft)
14.10.2016 02:37 1,8 °C 1,8 °C 96 % 1012,0 hPa 0,0 mm 0,0 km/h (0 Bft) O-SO 103 ° 0 min 0,000 mm 0,0 UV-I 0 W/m² 1,2 °C 0,0 km/h (0 Bft)
14.10.2016 02:38 1,7 °C 1,8 °C 96 % 1012,1 hPa 0,0 mm 0,0 km/h (0 Bft) O-SO 103 ° 0 min 0,000 mm 0,0 UV-I 0 W/m² 1,1 °C 0,0 km/h (0 Bft)
14.10.2016 02:39 1,7 °C 1,7 °C 96 % 1012,1 hPa 0,0 mm 0,0 km/h (0 Bft) O-SO 103 ° 0 min 0,000 mm 0,0 UV-I 0 W/m² 1,1 °C 0,0 km/h (0 Bft)
14.10.2016 02:40 1,7 °C 1,7 °C 96 % 1012,1 hPa 0,0 mm 0,0 km/h (0 Bft) O-SO 103 ° 0 min 0,000 mm 0,0 UV-I 0 W/m² 1,1 °C 0,0 km/h (0 Bft)
14.10.2016 02:41 1,7 °C 1,7 °C 96 % 1012,1 hPa 0,0 mm 0,0 km/h (0 Bft) O-SO 103 ° 0 min 0,000 mm 0,0 UV-I 0 W/m² 1,1 °C 0,0 km/h (0 Bft)
14.10.2016 02:42 1,9 °C 1,9 °C 96 % 1012,1 hPa 0,0 mm 0,4 km/h (0 Bft) O-SO 103 ° 0 min 0,000 mm 0,0 UV-I 0 W/m² 1,3 °C 3,2 km/h (1 Bft)
14.10.2016 02:43 2,1 °C 2,1 °C 96 % 1012,1 hPa 0,0 mm 3,1 km/h (1 Bft) O-SO 103 ° 0 min 0,000 mm 0,0 UV-I 0 W/m² 1,5 °C 4,8 km/h (1 Bft)
14.10.2016 02:44 2,3 °C 2,3 °C 96 % 1012,1 hPa 0,0 mm 1,0 km/h (0 Bft) O-SO 103 ° 0 min 0,000 mm 0,0 UV-I 0 W/m² 1,7 °C 1,6 km/h (1 Bft)
14.10.2016 02:45 2,4 °C 2,4 °C 96 % 1012,0 hPa 0,0 mm 0,5 km/h (0 Bft) O-SO 103 ° 0 min 0,000 mm 0,0 UV-I 0 W/m² 1,8 °C 1,6 km/h (1 Bft)
14.10.2016 02:46 2,5 °C 2,5 °C 96 % 1012,0 hPa 0,0 mm 0,0 km/h (0 Bft) O-SO 103 ° 0 min 0,000 mm 0,0 UV-I 0 W/m² 1,9 °C 0,0 km/h (0 Bft)
14.10.2016 02:47 2,4 °C 2,6 °C 96 % 1012,0 hPa 0,0 mm 0,0 km/h (0 Bft) O-SO 103 ° 0 min 0,000 mm 0,0 UV-I 0 W/m² 1,8 °C 0,0 km/h (0 Bft)
14.10.2016 02:48 2,3 °C 2,4 °C 96 % 1012,1 hPa 0,0 mm 0,0 km/h (0 Bft) O-SO 103 ° 0 min 0,000 mm 0,0 UV-I 0 W/m² 1,7 °C 0,0 km/h (0 Bft)
14.10.2016 02:49 2,3 °C 2,3 °C 96 % 1012,1 hPa 0,0 mm 0,0 km/h (0 Bft) O-SO 103 ° 0 min 0,000 mm 0,0 UV-I 0 W/m² 1,7 °C 0,0 km/h (0 Bft)
14.10.2016 02:50 2,3 °C 2,3 °C 96 % 1012,0 hPa 0,0 mm 0,0 km/h (0 Bft) O-SO 103 ° 0 min 0,000 mm 0,0 UV-I 0 W/m² 1,7 °C 0,0 km/h (0 Bft)
14.10.2016 02:51 2,3 °C 2,3 °C 96 % 1011,9 hPa 0,0 mm 0,0 km/h (0 Bft) O-SO 103 ° 0 min 0,000 mm 0,0 UV-I 0 W/m² 1,7 °C 0,0 km/h (0 Bft)
14.10.2016 02:52 2,4 °C 2,4 °C 96 % 1011,9 hPa 0,0 mm 0,0 km/h (0 Bft) O-SO 103 ° 0 min 0,000 mm 0,0 UV-I 0 W/m² 1,8 °C 0,0 km/h (0 Bft)
14.10.2016 02:53 2,6 °C 2,6 °C 96 % 1011,9 hPa 0,0 mm 0,0 km/h (0 Bft) O-SO 103 ° 0 min 0,000 mm 0,0 UV-I 0 W/m² 2,0 °C 0,0 km/h (0 Bft)
14.10.2016 02:54 2,6 °C 2,6 °C 96 % 1011,9 hPa 0,0 mm 0,0 km/h (0 Bft) O-SO 109 ° 0 min 0,000 mm 0,0 UV-I 0 W/m² 2,0 °C 0,0 km/h (0 Bft)
14.10.2016 02:55 2,6 °C 2,6 °C 96 % 1012,0 hPa 0,0 mm 0,0 km/h (0 Bft) O-SO 115 ° 0 min 0,000 mm 0,0 UV-I 0 W/m² 2,0 °C 0,0 km/h (0 Bft)
14.10.2016 02:56 2,6 °C 2,6 °C 96 % 1012,0 hPa 0,0 mm 0,0 km/h (0 Bft) O-SO 115 ° 0 min 0,000 mm 0,0 UV-I 0 W/m² 2,0 °C 0,0 km/h (0 Bft)
14.10.2016 02:57 2,6 °C 2,6 °C 96 % 1012,0 hPa 0,0 mm 0,0 km/h (0 Bft) O-SO 115 ° 0 min 0,000 mm 0,0 UV-I 0 W/m² 2,0 °C 0,0 km/h (0 Bft)
14.10.2016 02:58 2,5 °C 2,6 °C 96 % 1012,0 hPa 0,0 mm 0,0 km/h (0 Bft) O-SO 115 ° 0 min 0,000 mm 0,0 UV-I 0 W/m² 1,9 °C 0,0 km/h (0 Bft)
14.10.2016 02:59 2,4 °C 2,5 °C 96 % 1011,9 hPa 0,0 mm 0,0 km/h (0 Bft) O-SO 115 ° 0 min 0,000 mm 0,0 UV-I 0 W/m² 1,8 °C 0,0 km/h (0 Bft)
14.10.2016 03:00 2,4 °C 2,5 °C 96 % 1011,9 hPa 0,0 mm 0,0 km/h (0 Bft) O-SO 115 ° 0 min 0,000 mm 0,0 UV-I 0 W/m² 1,8 °C 0,0 km/h (0 Bft)
14.10.2016 03:01 2,2 °C 2,4 °C 96 % 1011,9 hPa 0,0 mm 0,0 km/h (0 Bft) O-SO 115 ° 0 min 0,000 mm 0,0 UV-I 0 W/m² 1,6 °C 0,0 km/h (0 Bft)
14.10.2016 03:02 2,2 °C 2,2 °C 96 % 1011,9 hPa 0,0 mm 0,0 km/h (0 Bft) O-SO 115 ° 0 min 0,000 mm 0,0 UV-I 0 W/m² 1,6 °C 0,0 km/h (0 Bft)
14.10.2016 03:03 2,3 °C 2,3 °C 96 % 1012,0 hPa 0,0 mm 0,0 km/h (0 Bft) O-SO 119 ° 0 min 0,000 mm 0,0 UV-I 0 W/m² 1,7 °C 0,0 km/h (0 Bft)
14.10.2016 03:04 2,4 °C 2,4 °C 96 % 1011,9 hPa 0,0 mm 0,0 km/h (0 Bft) O-SO 122 ° 0 min 0,000 mm 0,0 UV-I 0 W/m² 1,8 °C 0,0 km/h (0 Bft)
14.10.2016 03:05 2,6 °C 2,6 °C 96 % 1011,9 hPa 0,0 mm 0,0 km/h (0 Bft) O-SO 122 ° 0 min 0,000 mm 0,0 UV-I 0 W/m² 2,0 °C 0,0 km/h (0 Bft)
14.10.2016 03:06 2,7 °C 2,7 °C 96 % 1011,9 hPa 0,0 mm 0,0 km/h (0 Bft) O-SO 122 ° 0 min 0,000 mm 0,0 UV-I 0 W/m² 2,1 °C 0,0 km/h (0 Bft)
14.10.2016 03:07 2,8 °C 2,8 °C 96 % 1011,9 hPa 0,0 mm 0,0 km/h (0 Bft) O-SO 122 ° 0 min 0,000 mm 0,0 UV-I 0 W/m² 2,2 °C 0,0 km/h (0 Bft)
14.10.2016 03:08 2,7 °C 2,8 °C 96 % 1011,9 hPa 0,0 mm 0,0 km/h (0 Bft) O-SO 122 ° 0 min 0,000 mm 0,0 UV-I 0 W/m² 2,1 °C 0,0 km/h (0 Bft)
14.10.2016 03:09 2,6 °C 2,7 °C 96 % 1011,9 hPa 0,0 mm 0,0 km/h (0 Bft) O-SO 122 ° 0 min 0,000 mm 0,0 UV-I 0 W/m² 2,0 °C 0,0 km/h (0 Bft)
14.10.2016 03:10 2,4 °C 2,6 °C 96 % 1012,0 hPa 0,0 mm 0,0 km/h (0 Bft) O-SO 122 ° 0 min 0,000 mm 0,0 UV-I 0 W/m² 1,8 °C 0,0 km/h (0 Bft)
14.10.2016 03:11 2,3 °C 2,4 °C 95 % 1011,9 hPa 0,0 mm 0,0 km/h (0 Bft) O-SO 122 ° 0 min 0,000 mm 0,0 UV-I 0 W/m² 1,6 °C 0,0 km/h (0 Bft)
14.10.2016 03:12 2,3 °C 2,3 °C 95 % 1011,9 hPa 0,0 mm 0,0 km/h (0 Bft) O-SO 122 ° 0 min 0,000 mm 0,0 UV-I 0 W/m² 1,6 °C 0,0 km/h (0 Bft)
14.10.2016 03:13 2,2 °C 2,3 °C 96 % 1011,9 hPa 0,0 mm 0,0 km/h (0 Bft) O-SO 122 ° 0 min 0,000 mm 0,0 UV-I 0 W/m² 1,6 °C 0,0 km/h (0 Bft)
14.10.2016 03:14 2,0 °C 2,2 °C 95 % 1011,9 hPa 0,0 mm 0,0 km/h (0 Bft) O-SO 122 ° 0 min 0,000 mm 0,0 UV-I 0 W/m² 1,3 °C 0,0 km/h (0 Bft)
14.10.2016 03:15 1,8 °C 2,0 °C 95 % 1011,9 hPa 0,0 mm 0,0 km/h (0 Bft) O-SO 122 ° 0 min 0,000 mm 0,0 UV-I 0 W/m² 1,1 °C 0,0 km/h (0 Bft)
14.10.2016 03:16 1,7 °C 1,8 °C 95 % 1011,9 hPa 0,0 mm 0,0 km/h (0 Bft) O-SO 122 ° 0 min 0,000 mm 0,0 UV-I 0 W/m² 1,0 °C 0,0 km/h (0 Bft)
14.10.2016 03:17 1,6 °C 1,7 °C 95 % 1011,9 hPa 0,0 mm 0,0 km/h (0 Bft) O-SO 122 ° 0 min 0,000 mm 0,0 UV-I 0 W/m² 0,9 °C 0,0 km/h (0 Bft)
14.10.2016 03:18 1,6 °C 1,6 °C 95 % 1011,9 hPa 0,0 mm 0,0 km/h (0 Bft) O-SO 122 ° 0 min 0,000 mm 0,0 UV-I 0 W/m² 0,9 °C 0,0 km/h (0 Bft)
14.10.2016 03:19 1,5 °C 1,6 °C 95 % 1011,9 hPa 0,0 mm 0,0 km/h (0 Bft) O-SO 122 ° 0 min 0,000 mm 0,0 UV-I 0 W/m² 0,8 °C 0,0 km/h (0 Bft)
14.10.2016 03:20 1,5 °C 1,6 °C 95 % 1011,9 hPa 0,0 mm 0,0 km/h (0 Bft) O-SO 122 ° 0 min 0,000 mm 0,0 UV-I 0 W/m² 0,8 °C 0,0 km/h (0 Bft)
14.10.2016 03:21 1,5 °C 1,6 °C 95 % 1011,8 hPa 0,0 mm 0,0 km/h (0 Bft) O-SO 122 ° 0 min 0,000 mm 0,0 UV-I 0 W/m² 0,8 °C 0,0 km/h (0 Bft)
14.10.2016 03:22 1,5 °C 1,6 °C 95 % 1011,8 hPa 0,0 mm 0,0 km/h (0 Bft) O-SO 122 ° 0 min 0,000 mm 0,0 UV-I 0 W/m² 0,8 °C 0,0 km/h (0 Bft)
14.10.2016 03:23 1,5 °C 1,5 °C 96 % 1011,8 hPa 0,0 mm 0,0 km/h (0 Bft) O-SO 122 ° 0 min 0,000 mm 0,0 UV-I 0 W/m² 0,9 °C 0,0 km/h (0 Bft)
14.10.2016 03:24 1,6 °C 1,6 °C 96 % 1011,8 hPa 0,0 mm 0,0 km/h (0 Bft) O-SO 122 ° 0 min 0,000 mm 0,0 UV-I 0 W/m² 1,0 °C 0,0 km/h (0 Bft)
14.10.2016 03:25 1,6 °C 1,6 °C 96 % 1011,8 hPa 0,0 mm 0,0 km/h (0 Bft) O-SO 122 ° 0 min 0,000 mm 0,0 UV-I 0 W/m² 1,0 °C 0,0 km/h (0 Bft)
14.10.2016 03:26 1,6 °C 1,6 °C 96 % 1011,8 hPa 0,0 mm 0,0 km/h (0 Bft) O-SO 122 ° 0 min 0,000 mm 0,0 UV-I 0 W/m² 1,0 °C 0,0 km/h (0 Bft)
14.10.2016 03:27 1,6 °C 1,6 °C 96 % 1011,8 hPa 0,0 mm 0,0 km/h (0 Bft) O-SO 122 ° 0 min 0,000 mm 0,0 UV-I 0 W/m² 1,0 °C 0,0 km/h (0 Bft)
14.10.2016 03:28 1,6 °C 1,6 °C 96 % 1011,8 hPa 0,0 mm 0,0 km/h (0 Bft) O-SO 122 ° 0 min 0,000 mm 0,0 UV-I 0 W/m² 1,0 °C 0,0 km/h (0 Bft)
14.10.2016 03:29 1,7 °C 1,7 °C 96 % 1011,8 hPa 0,0 mm 0,0 km/h (0 Bft) O-SO 122 ° 0 min 0,000 mm 0,0 UV-I 0 W/m² 1,1 °C 0,0 km/h (0 Bft)
14.10.2016 03:30 1,6 °C 1,7 °C 96 % 1011,8 hPa 0,0 mm 0,0 km/h (0 Bft) O-SO 122 ° 0 min 0,000 mm 0,0 UV-I 0 W/m² 1,0 °C 0,0 km/h (0 Bft)
14.10.2016 03:31 1,6 °C 1,6 °C 96 % 1011,8 hPa 0,0 mm 0,0 km/h (0 Bft) O-SO 122 ° 0 min 0,000 mm 0,0 UV-I 0 W/m² 1,0 °C 0,0 km/h (0 Bft)
14.10.2016 03:32 1,6 °C 1,6 °C 96 % 1011,8 hPa 0,0 mm 0,0 km/h (0 Bft) O-SO 122 ° 0 min 0,000 mm 0,0 UV-I 0 W/m² 1,0 °C 0,0 km/h (0 Bft)
14.10.2016 03:33 1,7 °C 1,7 °C 96 % 1011,8 hPa 0,0 mm 0,0 km/h (0 Bft) O-SO 122 ° 0 min 0,000 mm 0,0 UV-I 0 W/m² 1,1 °C 0,0 km/h (0 Bft)
14.10.2016 03:34 1,7 °C 1,7 °C 96 % 1011,8 hPa 0,0 mm 0,0 km/h (0 Bft) O-SO 122 ° 0 min 0,000 mm 0,0 UV-I 0 W/m² 1,1 °C 0,0 km/h (0 Bft)
14.10.2016 03:35 1,7 °C 1,7 °C 96 % 1011,8 hPa 0,0 mm 0,0 km/h (0 Bft) O-SO 122 ° 0 min 0,000 mm 0,0 UV-I 0 W/m² 1,1 °C 0,0 km/h (0 Bft)
14.10.2016 03:36 1,7 °C 1,7 °C 96 % 1011,8 hPa 0,0 mm 0,0 km/h (0 Bft) O-SO 122 ° 0 min 0,000 mm 0,0 UV-I 0 W/m² 1,1 °C 0,0 km/h (0 Bft)
14.10.2016 03:37 1,7 °C 1,7 °C 96 % 1011,8 hPa 0,0 mm 0,0 km/h (0 Bft) O-SO 122 ° 0 min 0,000 mm 0,0 UV-I 0 W/m² 1,1 °C 0,0 km/h (0 Bft)
14.10.2016 03:38 1,7 °C 1,7 °C 96 % 1011,8 hPa 0,0 mm 0,0 km/h (0 Bft) O-SO 122 ° 0 min 0,000 mm 0,0 UV-I 0 W/m² 1,1 °C 0,0 km/h (0 Bft)
14.10.2016 03:39 1,7 °C 1,7 °C 96 % 1011,8 hPa 0,0 mm 0,0 km/h (0 Bft) O-SO 122 ° 0 min 0,000 mm 0,0 UV-I 0 W/m² 1,1 °C 0,0 km/h (0 Bft)
14.10.2016 03:40 1,6 °C 1,7 °C 96 % 1011,8 hPa 0,0 mm 0,0 km/h (0 Bft) O-SO 122 ° 0 min 0,000 mm 0,0 UV-I 0 W/m² 1,0 °C 0,0 km/h (0 Bft)
14.10.2016 03:41 1,6 °C 1,6 °C 96 % 1011,6 hPa 0,0 mm 0,0 km/h (0 Bft) O-SO 122 ° 0 min 0,000 mm 0,0 UV-I 0 W/m² 1,0 °C 0,0 km/h (0 Bft)
14.10.2016 03:42 1,7 °C 1,7 °C 96 % 1011,7 hPa 0,0 mm 0,0 km/h (0 Bft) O-SO 122 ° 0 min 0,000 mm 0,0 UV-I 0 W/m² 1,1 °C 0,0 km/h (0 Bft)
14.10.2016 03:43 1,7 °C 1,7 °C 96 % 1011,6 hPa 0,0 mm 0,0 km/h (0 Bft) O-SO 122 ° 0 min 0,000 mm 0,0 UV-I 0 W/m² 1,1 °C 0,0 km/h (0 Bft)
14.10.2016 03:44 1,7 °C 1,7 °C 96 % 1011,7 hPa 0,0 mm 0,0 km/h (0 Bft) N 5 ° 0 min 0,000 mm 0,0 UV-I 0 W/m² 1,1 °C 0,0 km/h (0 Bft)
14.10.2016 03:45 1,6 °C 1,7 °C 96 % 1011,7 hPa 0,0 mm 0,0 km/h (0 Bft) N 5 ° 0 min 0,000 mm 0,0 UV-I 0 W/m² 1,0 °C 0,0 km/h (0 Bft)
14.10.2016 03:46 1,6 °C 1,6 °C 96 % 1011,7 hPa 0,0 mm 0,0 km/h (0 Bft) N 5 ° 0 min 0,000 mm 0,0 UV-I 0 W/m² 1,0 °C 0,0 km/h (0 Bft)
14.10.2016 03:47 1,4 °C 1,6 °C 96 % 1011,7 hPa 0,0 mm 0,0 km/h (0 Bft) N-NO 17 ° 0 min 0,000 mm 0,0 UV-I 0 W/m² 0,8 °C 0,0 km/h (0 Bft)
14.10.2016 03:48 1,5 °C 1,5 °C 95 % 1011,7 hPa 0,0 mm 0,0 km/h (0 Bft) N-NO 17 ° 0 min 0,000 mm 0,0 UV-I 0 W/m² 0,8 °C 0,0 km/h (0 Bft)
14.10.2016 03:49 1,6 °C 1,6 °C 96 % 1011,7 hPa 0,0 mm 0,0 km/h (0 Bft) N-NO 30 ° 0 min 0,000 mm 0,0 UV-I 0 W/m² 1,0 °C 0,0 km/h (0 Bft)
14.10.2016 03:50 1,6 °C 1,6 °C 96 % 1011,7 hPa 0,0 mm 0,0 km/h (0 Bft) N-NO 30 ° 0 min 0,000 mm 0,0 UV-I 0 W/m² 1,0 °C 0,0 km/h (0 Bft)
14.10.2016 03:51 1,7 °C 1,7 °C 96 % 1011,7 hPa 0,0 mm 0,0 km/h (0 Bft) N-NO 30 ° 0 min 0,000 mm 0,0 UV-I 0 W/m² 1,1 °C 0,0 km/h (0 Bft)
14.10.2016 03:52 1,7 °C 1,7 °C 96 % 1011,7 hPa 0,0 mm 0,0 km/h (0 Bft) N-NO 30 ° 0 min 0,000 mm 0,0 UV-I 0 W/m² 1,1 °C 0,0 km/h (0 Bft)
14.10.2016 03:53 1,6 °C 1,7 °C 96 % 1011,6 hPa 0,0 mm 0,0 km/h (0 Bft) N-NO 30 ° 0 min 0,000 mm 0,0 UV-I 0 W/m² 1,0 °C 0,0 km/h (0 Bft)
14.10.2016 03:54 1,5 °C 1,6 °C 96 % 1011,6 hPa 0,0 mm 0,0 km/h (0 Bft) N-NO 30 ° 0 min 0,000 mm 0,0 UV-I 0 W/m² 0,9 °C 0,0 km/h (0 Bft)
14.10.2016 03:55 1,4 °C 1,5 °C 96 % 1011,6 hPa 0,0 mm 0,0 km/h (0 Bft) N-NO 30 ° 0 min 0,000 mm 0,0 UV-I 0 W/m² 0,8 °C 0,0 km/h (0 Bft)
14.10.2016 03:56 1,4 °C 1,4 °C 96 % 1011,5 hPa 0,0 mm 0,0 km/h (0 Bft) O-NO 58 ° 0 min 0,000 mm 0,0 UV-I 0 W/m² 0,8 °C 0,0 km/h (0 Bft)
14.10.2016 03:57 1,5 °C 1,5 °C 96 % 1011,5 hPa 0,0 mm 0,0 km/h (0 Bft) O-NO 61 ° 0 min 0,000 mm 0,0 UV-I 0 W/m² 0,9 °C 0,0 km/h (0 Bft)
14.10.2016 03:58 1,6 °C 1,6 °C 96 % 1011,4 hPa 0,0 mm 0,0 km/h (0 Bft) O-NO 61 ° 0 min 0,000 mm 0,0 UV-I 0 W/m² 1,0 °C 0,0 km/h (0 Bft)
14.10.2016 03:59 1,6 °C 1,6 °C 96 % 1011,4 hPa 0,0 mm 0,0 km/h (0 Bft) O-NO 61 ° 0 min 0,000 mm 0,0 UV-I 0 W/m² 1,0 °C 0,0 km/h (0 Bft)
14.10.2016 04:00 1,5 °C 1,6 °C 96 % 1011,4 hPa 0,0 mm 0,0 km/h (0 Bft) O-NO 61 ° 0 min 0,000 mm 0,0 UV-I 0 W/m² 0,9 °C 0,0 km/h (0 Bft)
14.10.2016 04:01 1,5 °C 1,5 °C 96 % 1011,4 hPa 0,0 mm 0,0 km/h (0 Bft) O-NO 61 ° 0 min 0,000 mm 0,0 UV-I 0 W/m² 0,9 °C 0,0 km/h (0 Bft)
14.10.2016 04:02 1,4 °C 1,5 °C 96 % 1011,4 hPa 0,0 mm 0,0 km/h (0 Bft) O-NO 61 ° 0 min 0,000 mm 0,0 UV-I 0 W/m² 0,8 °C 0,0 km/h (0 Bft)
14.10.2016 04:03 1,4 °C 1,5 °C 96 % 1011,4 hPa 0,0 mm 0,0 km/h (0 Bft) O-NO 61 ° 0 min 0,000 mm 0,0 UV-I 0 W/m² 0,8 °C 0,0 km/h (0 Bft)
14.10.2016 04:04 1,4 °C 1,4 °C 96 % 1011,4 hPa 0,0 mm 0,0 km/h (0 Bft) O-NO 61 ° 0 min 0,000 mm 0,0 UV-I 0 W/m² 0,8 °C 0,0 km/h (0 Bft)
14.10.2016 04:05 1,6 °C 1,6 °C 96 % 1011,4 hPa 0,0 mm 0,0 km/h (0 Bft) O-NO 61 ° 0 min 0,000 mm 0,0 UV-I 0 W/m² 1,0 °C 0,0 km/h (0 Bft)
14.10.2016 04:06 1,6 °C 1,6 °C 96 % 1011,4 hPa 0,0 mm 0,0 km/h (0 Bft) O-NO 61 ° 0 min 0,000 mm 0,0 UV-I 0 W/m² 1,0 °C 0,0 km/h (0 Bft)
14.10.2016 04:07 1,6 °C 1,6 °C 96 % 1011,4 hPa 0,0 mm 0,0 km/h (0 Bft) O-NO 61 ° 0 min 0,000 mm 0,0 UV-I 0 W/m² 1,0 °C 0,0 km/h (0 Bft)
14.10.2016 04:08 1,6 °C 1,6 °C 96 % 1011,4 hPa 0,0 mm 0,0 km/h (0 Bft) O-NO 61 ° 0 min 0,000 mm 0,0 UV-I 0 W/m² 1,0 °C 0,0 km/h (0 Bft)
14.10.2016 04:09 1,5 °C 1,6 °C 96 % 1011,4 hPa 0,0 mm 0,0 km/h (0 Bft) O-NO 61 ° 0 min 0,000 mm 0,0 UV-I 0 W/m² 0,9 °C 0,0 km/h (0 Bft)
14.10.2016 04:10 1,4 °C 1,5 °C 96 % 1011,4 hPa 0,0 mm 0,0 km/h (0 Bft) O-NO 61 ° 0 min 0,000 mm 0,0 UV-I 0 W/m² 0,8 °C 0,0 km/h (0 Bft)
14.10.2016 04:11 1,3 °C 1,4 °C 96 % 1011,4 hPa 0,0 mm 0,0 km/h (0 Bft) O-NO 61 ° 0 min 0,000 mm 0,0 UV-I 0 W/m² 0,7 °C 0,0 km/h (0 Bft)
14.10.2016 04:12 1,3 °C 1,3 °C 96 % 1011,4 hPa 0,0 mm 0,0 km/h (0 Bft) O-NO 61 ° 0 min 0,000 mm 0,0 UV-I 0 W/m² 0,7 °C 0,0 km/h (0 Bft)
14.10.2016 04:13 1,2 °C 1,3 °C 95 % 1011,4 hPa 0,0 mm 0,0 km/h (0 Bft) O-NO 61 ° 0 min 0,000 mm 0,0 UV-I 0 W/m² 0,5 °C 0,0 km/h (0 Bft)
14.10.2016 04:14 1,2 °C 1,2 °C 96 % 1011,4 hPa 0,0 mm 0,0 km/h (0 Bft) O-NO 61 ° 0 min 0,000 mm 0,0 UV-I 0 W/m² 0,6 °C 0,0 km/h (0 Bft)
14.10.2016 04:15 1,2 °C 1,2 °C 96 % 1011,5 hPa 0,0 mm 0,0 km/h (0 Bft) O-NO 61 ° 0 min 0,000 mm 0,0 UV-I 0 W/m² 0,6 °C 0,0 km/h (0 Bft)
14.10.2016 04:16 1,2 °C 1,2 °C 96 % 1011,4 hPa 0,0 mm 0,0 km/h (0 Bft) O-NO 61 ° 0 min 0,000 mm 0,0 UV-I 0 W/m² 0,6 °C 0,0 km/h (0 Bft)
14.10.2016 04:17 1,2 °C 1,2 °C 96 % 1011,4 hPa 0,0 mm 0,0 km/h (0 Bft) O-NO 61 ° 0 min 0,000 mm 0,0 UV-I 0 W/m² 0,6 °C 0,0 km/h (0 Bft)
14.10.2016 04:18 1,1 °C 1,2 °C 96 % 1011,4 hPa 0,0 mm 0,0 km/h (0 Bft) O-NO 61 ° 0 min 0,000 mm 0,0 UV-I 0 W/m² 0,5 °C 0,0 km/h (0 Bft)
14.10.2016 04:19 1,2 °C 1,2 °C 96 % 1011,4 hPa 0,0 mm 0,0 km/h (0 Bft) O-NO 61 ° 0 min 0,000 mm 0,0 UV-I 0 W/m² 0,6 °C 0,0 km/h (0 Bft)
14.10.2016 04:20 1,2 °C 1,2 °C 96 % 1011,4 hPa 0,0 mm 0,0 km/h (0 Bft) O-NO 61 ° 0 min 0,000 mm 0,0 UV-I 0 W/m² 0,6 °C 0,0 km/h (0 Bft)
14.10.2016 04:21 1,2 °C 1,2 °C 96 % 1011,5 hPa 0,0 mm 0,0 km/h (0 Bft) O-NO 61 ° 0 min 0,000 mm 0,0 UV-I 0 W/m² 0,6 °C 0,0 km/h (0 Bft)
14.10.2016 04:22 1,2 °C 1,2 °C 96 % 1011,4 hPa 0,0 mm 0,0 km/h (0 Bft) O-NO 61 ° 0 min 0,000 mm 0,0 UV-I 0 W/m² 0,6 °C 0,0 km/h (0 Bft)
14.10.2016 04:23 1,2 °C 1,2 °C 96 % 1011,4 hPa 0,0 mm 0,0 km/h (0 Bft) O-NO 61 ° 0 min 0,000 mm 0,0 UV-I 0 W/m² 0,6 °C 0,0 km/h (0 Bft)
14.10.2016 04:24 1,3 °C 1,3 °C 96 % 1011,4 hPa 0,0 mm 0,0 km/h (0 Bft) O-NO 61 ° 0 min 0,000 mm 0,0 UV-I 0 W/m² 0,7 °C 0,0 km/h (0 Bft)
14.10.2016 04:25 1,2 °C 1,3 °C 96 % 1011,4 hPa 0,0 mm 0,0 km/h (0 Bft) O-NO 61 ° 0 min 0,000 mm 0,0 UV-I 0 W/m² 0,6 °C 0,0 km/h (0 Bft)
14.10.2016 04:26 1,3 °C 1,3 °C 96 % 1011,4 hPa 0,0 mm 0,0 km/h (0 Bft) O-NO 61 ° 0 min 0,000 mm 0,0 UV-I 0 W/m² 0,7 °C 0,0 km/h (0 Bft)
14.10.2016 04:27 1,3 °C 1,3 °C 96 % 1011,4 hPa 0,0 mm 0,0 km/h (0 Bft) O-NO 61 ° 0 min 0,000 mm 0,0 UV-I 0 W/m² 0,7 °C 0,0 km/h (0 Bft)
14.10.2016 04:28 1,3 °C 1,3 °C 96 % 1011,4 hPa 0,0 mm 0,0 km/h (0 Bft) O-NO 61 ° 0 min 0,000 mm 0,0 UV-I 0 W/m² 0,7 °C 0,0 km/h (0 Bft)
14.10.2016 04:29 1,2 °C 1,3 °C 96 % 1011,4 hPa 0,0 mm 0,0 km/h (0 Bft) O-NO 61 ° 0 min 0,000 mm 0,0 UV-I 0 W/m² 0,6 °C 0,0 km/h (0 Bft)
14.10.2016 04:30 1,2 °C 1,2 °C 96 % 1011,4 hPa 0,0 mm 0,0 km/h (0 Bft) O-NO 61 ° 0 min 0,000 mm 0,0 UV-I 0 W/m² 0,6 °C 0,0 km/h (0 Bft)
14.10.2016 04:31 1,1 °C 1,2 °C 96 % 1011,5 hPa 0,0 mm 0,0 km/h (0 Bft) O-NO 61 ° 0 min 0,000 mm 0,0 UV-I 0 W/m² 0,5 °C 0,0 km/h (0 Bft)
14.10.2016 04:32 1,0 °C 1,1 °C 96 % 1011,4 hPa 0,0 mm 0,0 km/h (0 Bft) O-NO 61 ° 0 min 0,000 mm 0,0 UV-I 0 W/m² 0,4 °C 0,0 km/h (0 Bft)
14.10.2016 04:33 0,9 °C 1,0 °C 96 % 1011,4 hPa 0,0 mm 0,0 km/h (0 Bft) O-NO 61 ° 0 min 0,000 mm 0,0 UV-I 0 W/m² 0,3 °C 0,0 km/h (0 Bft)
14.10.2016 04:34 0,9 °C 0,9 °C 96 % 1011,3 hPa 0,0 mm 0,0 km/h (0 Bft) O-NO 61 ° 0 min 0,000 mm 0,0 UV-I 0 W/m² 0,3 °C 0,0 km/h (0 Bft)
14.10.2016 04:35 0,9 °C 0,9 °C 96 % 1011,3 hPa 0,0 mm 0,0 km/h (0 Bft) O-NO 61 ° 0 min 0,000 mm 0,0 UV-I 0 W/m² 0,3 °C 0,0 km/h (0 Bft)
14.10.2016 04:36 1,1 °C 1,1 °C 96 % 1011,3 hPa 0,0 mm 0,0 km/h (0 Bft) O-NO 61 ° 0 min 0,000 mm 0,0 UV-I 0 W/m² 0,5 °C 0,0 km/h (0 Bft)
14.10.2016 04:37 1,1 °C 1,1 °C 96 % 1011,2 hPa 0,0 mm 0,0 km/h (0 Bft) O-NO 61 ° 0 min 0,000 mm 0,0 UV-I 0 W/m² 0,5 °C 0,0 km/h (0 Bft)
14.10.2016 04:38 1,1 °C 1,1 °C 96 % 1011,2 hPa 0,0 mm 0,0 km/h (0 Bft) O-NO 61 ° 0 min 0,000 mm 0,0 UV-I 0 W/m² 0,5 °C 0,0 km/h (0 Bft)
14.10.2016 04:39 1,1 °C 1,1 °C 96 % 1011,1 hPa 0,0 mm 0,0 km/h (0 Bft) O-NO 61 ° 0 min 0,000 mm 0,0 UV-I 0 W/m² 0,5 °C 0,0 km/h (0 Bft)
14.10.2016 04:40 1,1 °C 1,1 °C 96 % 1011,1 hPa 0,0 mm 0,0 km/h (0 Bft) O-NO 61 ° 0 min 0,000 mm 0,0 UV-I 0 W/m² 0,5 °C 0,0 km/h (0 Bft)
14.10.2016 04:41 1,1 °C 1,1 °C 96 % 1011,1 hPa 0,0 mm 0,0 km/h (0 Bft) O-NO 61 ° 0 min 0,000 mm 0,0 UV-I 0 W/m² 0,5 °C 0,0 km/h (0 Bft)
14.10.2016 04:42 1,1 °C 1,1 °C 96 % 1011,2 hPa 0,0 mm 0,0 km/h (0 Bft) O-NO 61 ° 0 min 0,000 mm 0,0 UV-I 0 W/m² 0,5 °C 0,0 km/h (0 Bft)
14.10.2016 04:43 1,1 °C 1,1 °C 96 % 1011,1 hPa 0,0 mm 0,0 km/h (0 Bft) O-NO 61 ° 0 min 0,000 mm 0,0 UV-I 0 W/m² 0,5 °C 0,0 km/h (0 Bft)
14.10.2016 04:44 1,1 °C 1,1 °C 96 % 1011,1 hPa 0,0 mm 0,0 km/h (0 Bft) O-NO 61 ° 0 min 0,000 mm 0,0 UV-I 0 W/m² 0,5 °C 0,0 km/h (0 Bft)
14.10.2016 04:45 1,1 °C 1,1 °C 96 % 1011,2 hPa 0,0 mm 0,0 km/h (0 Bft) O-NO 61 ° 0 min 0,000 mm 0,0 UV-I 0 W/m² 0,5 °C 0,0 km/h (0 Bft)
14.10.2016 04:46 1,1 °C 1,1 °C 96 % 1011,2 hPa 0,0 mm 0,0 km/h (0 Bft) O-NO 61 ° 0 min 0,000 mm 0,0 UV-I 0 W/m² 0,5 °C 0,0 km/h (0 Bft)
14.10.2016 04:47 1,0 °C 1,1 °C 96 % 1011,1 hPa 0,0 mm 0,0 km/h (0 Bft) O-NO 61 ° 0 min 0,000 mm 0,0 UV-I 0 W/m² 0,4 °C 0,0 km/h (0 Bft)
14.10.2016 04:48 1,0 °C 1,1 °C 96 % 1011,1 hPa 0,0 mm 0,0 km/h (0 Bft) O-NO 61 ° 0 min 0,000 mm 0,0 UV-I 0 W/m² 0,4 °C 0,0 km/h (0 Bft)
14.10.2016 04:49 1,0 °C 1,0 °C 96 % 1011,1 hPa 0,0 mm 0,0 km/h (0 Bft) O-NO 61 ° 0 min 0,000 mm 0,0 UV-I 0 W/m² 0,4 °C 0,0 km/h (0 Bft)
14.10.2016 04:50 1,0 °C 1,0 °C 96 % 1011,1 hPa 0,0 mm 0,0 km/h (0 Bft) O-NO 61 ° 0 min 0,000 mm 0,0 UV-I 0 W/m² 0,4 °C 0,0 km/h (0 Bft)
14.10.2016 04:51 1,1 °C 1,1 °C 96 % 1011,1 hPa 0,0 mm 0,0 km/h (0 Bft) O-NO 61 ° 0 min 0,000 mm 0,0 UV-I 0 W/m² 0,5 °C 0,0 km/h (0 Bft)
14.10.2016 04:52 1,1 °C 1,1 °C 96 % 1011,1 hPa 0,0 mm 0,0 km/h (0 Bft) O-NO 61 ° 0 min 0,000 mm 0,0 UV-I 0 W/m² 0,5 °C 0,0 km/h (0 Bft)
14.10.2016 04:53 1,1 °C 1,1 °C 96 % 1011,1 hPa 0,0 mm 0,0 km/h (0 Bft) O-NO 61 ° 0 min 0,000 mm 0,0 UV-I 0 W/m² 0,5 °C 0,0 km/h (0 Bft)
14.10.2016 04:54 1,1 °C 1,1 °C 96 % 1011,1 hPa 0,0 mm 0,0 km/h (0 Bft) O-NO 61 ° 0 min 0,000 mm 0,0 UV-I 0 W/m² 0,5 °C 0,0 km/h (0 Bft)
14.10.2016 04:55 1,1 °C 1,1 °C 96 % 1011,1 hPa 0,0 mm 0,0 km/h (0 Bft) O-NO 61 ° 0 min 0,000 mm 0,0 UV-I 0 W/m² 0,5 °C 0,0 km/h (0 Bft)
14.10.2016 04:56 1,2 °C 1,2 °C 96 % 1011,1 hPa 0,0 mm 0,0 km/h (0 Bft) O-NO 61 ° 0 min 0,000 mm 0,0 UV-I 0 W/m² 0,6 °C 0,0 km/h (0 Bft)
14.10.2016 04:57 1,2 °C 1,2 °C 96 % 1011,1 hPa 0,0 mm 0,0 km/h (0 Bft) O-NO 61 ° 0 min 0,000 mm 0,0 UV-I 0 W/m² 0,6 °C 0,0 km/h (0 Bft)
14.10.2016 04:58 1,2 °C 1,2 °C 96 % 1011,1 hPa 0,0 mm 0,0 km/h (0 Bft) O-NO 61 ° 0 min 0,000 mm 0,0 UV-I 0 W/m² 0,6 °C 0,0 km/h (0 Bft)
14.10.2016 04:59 1,3 °C 1,3 °C 96 % 1011,1 hPa 0,0 mm 0,0 km/h (0 Bft) O-NO 61 ° 0 min 0,000 mm 0,0 UV-I 0 W/m² 0,7 °C 0,0 km/h (0 Bft)
14.10.2016 05:00 1,3 °C 1,3 °C 96 % 1011,0 hPa 0,0 mm 0,0 km/h (0 Bft) O-NO 61 ° 0 min 0,000 mm 0,0 UV-I 0 W/m² 0,7 °C 0,0 km/h (0 Bft)
14.10.2016 05:01 1,4 °C 1,4 °C 96 % 1011,0 hPa 0,0 mm 0,0 km/h (0 Bft) O-NO 61 ° 0 min 0,000 mm 0,0 UV-I 0 W/m² 0,8 °C 0,0 km/h (0 Bft)
14.10.2016 05:02 1,4 °C 1,4 °C 97 % 1011,0 hPa 0,0 mm 0,0 km/h (0 Bft) O-NO 61 ° 0 min 0,000 mm 0,0 UV-I 0 W/m² 1,0 °C 0,0 km/h (0 Bft)
14.10.2016 05:03 1,6 °C 1,6 °C 97 % 1010,9 hPa 0,0 mm 0,0 km/h (0 Bft) O-NO 61 ° 0 min 0,000 mm 0,0 UV-I 0 W/m² 1,2 °C 0,0 km/h (0 Bft)
14.10.2016 05:04 1,6 °C 1,6 °C 97 % 1010,9 hPa 0,0 mm 0,0 km/h (0 Bft) O-NO 61 ° 0 min 0,000 mm 0,0 UV-I 0 W/m² 1,2 °C 0,0 km/h (0 Bft)
14.10.2016 05:05 1,6 °C 1,6 °C 97 % 1011,0 hPa 0,0 mm 0,0 km/h (0 Bft) O-NO 61 ° 0 min 0,000 mm 0,0 UV-I 0 W/m² 1,2 °C 0,0 km/h (0 Bft)
14.10.2016 05:06 1,6 °C 1,6 °C 97 % 1010,9 hPa 0,0 mm 0,0 km/h (0 Bft) O-NO 61 ° 0 min 0,000 mm 0,0 UV-I 0 W/m² 1,2 °C 0,0 km/h (0 Bft)
14.10.2016 05:07 1,6 °C 1,7 °C 96 % 1010,9 hPa 0,0 mm 0,0 km/h (0 Bft) O-NO 61 ° 0 min 0,000 mm 0,0 UV-I 0 W/m² 1,0 °C 0,0 km/h (0 Bft)
14.10.2016 05:08 1,6 °C 1,6 °C 97 % 1010,9 hPa 0,0 mm 0,0 km/h (0 Bft) O-NO 61 ° 0 min 0,000 mm 0,0 UV-I 0 W/m² 1,2 °C 0,0 km/h (0 Bft)
14.10.2016 05:09 1,7 °C 1,7 °C 96 % 1010,8 hPa 0,0 mm 0,0 km/h (0 Bft) O-NO 61 ° 0 min 0,000 mm 0,0 UV-I 0 W/m² 1,1 °C 0,0 km/h (0 Bft)
14.10.2016 05:10 1,6 °C 1,7 °C 96 % 1010,8 hPa 0,0 mm 0,0 km/h (0 Bft) O-NO 61 ° 0 min 0,000 mm 0,0 UV-I 0 W/m² 1,0 °C 0,0 km/h (0 Bft)
14.10.2016 05:11 1,6 °C 1,7 °C 96 % 1010,8 hPa 0,0 mm 0,0 km/h (0 Bft) O-NO 61 ° 0 min 0,000 mm 0,0 UV-I 0 W/m² 1,0 °C 0,0 km/h (0 Bft)
14.10.2016 05:12 1,6 °C 1,6 °C 96 % 1010,8 hPa 0,0 mm 0,0 km/h (0 Bft) O 92 ° 0 min 0,000 mm 0,0 UV-I 0 W/m² 1,0 °C 0,0 km/h (0 Bft)
14.10.2016 05:13 1,7 °C 1,7 °C 96 % 1010,8 hPa 0,0 mm 0,0 km/h (0 Bft) O 97 ° 0 min 0,000 mm 0,0 UV-I 0 W/m² 1,1 °C 0,0 km/h (0 Bft)
14.10.2016 05:14 1,7 °C 1,7 °C 96 % 1010,8 hPa 0,0 mm 0,0 km/h (0 Bft) O 97 ° 0 min 0,000 mm 0,0 UV-I 0 W/m² 1,1 °C 0,0 km/h (0 Bft)
14.10.2016 05:15 1,7 °C 1,7 °C 96 % 1010,8 hPa 0,0 mm 0,0 km/h (0 Bft) O 91 ° 0 min 0,000 mm 0,0 UV-I 0 W/m² 1,1 °C 0,0 km/h (0 Bft)
14.10.2016 05:16 1,7 °C 1,7 °C 96 % 1010,7 hPa 0,0 mm 0,0 km/h (0 Bft) N 5 ° 0 min 0,000 mm 0,0 UV-I 0 W/m² 1,1 °C 0,0 km/h (0 Bft)
14.10.2016 05:17 1,6 °C 1,7 °C 96 % 1010,7 hPa 0,0 mm 0,0 km/h (0 Bft) N 355 ° 0 min 0,000 mm 0,0 UV-I 0 W/m² 1,0 °C 0,0 km/h (0 Bft)
14.10.2016 05:18 1,3 °C 1,6 °C 96 % 1010,7 hPa 0,0 mm 0,0 km/h (0 Bft) N 355 ° 0 min 0,000 mm 0,0 UV-I 0 W/m² 0,7 °C 0,0 km/h (0 Bft)
14.10.2016 05:19 1,3 °C 1,3 °C 96 % 1010,7 hPa 0,0 mm 1,4 km/h (1 Bft) NW 304 ° 0 min 0,000 mm 0,0 UV-I 0 W/m² 0,7 °C 3,2 km/h (1 Bft)
14.10.2016 05:20 1,2 °C 1,3 °C 96 % 1010,7 hPa 0,0 mm 0,0 km/h (0 Bft) NW 304 ° 0 min 0,000 mm 0,0 UV-I 0 W/m² 0,6 °C 0,0 km/h (0 Bft)
14.10.2016 05:21 1,1 °C 1,2 °C 96 % 1010,7 hPa 0,0 mm 0,0 km/h (0 Bft) NW 304 ° 0 min 0,000 mm 0,0 UV-I 0 W/m² 0,5 °C 0,0 km/h (0 Bft)
14.10.2016 05:22 1,1 °C 1,1 °C 96 % 1010,7 hPa 0,0 mm 0,5 km/h (0 Bft) NW 304 ° 0 min 0,000 mm 0,0 UV-I 0 W/m² 0,5 °C 1,6 km/h (1 Bft)
14.10.2016 05:23 1,1 °C 1,1 °C 96 % 1010,7 hPa 0,0 mm 1,5 km/h (1 Bft) NW 304 ° 0 min 0,000 mm 0,0 UV-I 0 W/m² 0,5 °C 1,6 km/h (1 Bft)
14.10.2016 05:24 1,2 °C 1,2 °C 96 % 1010,7 hPa 0,0 mm 1,3 km/h (1 Bft) NW 304 ° 0 min 0,000 mm 0,0 UV-I 0 W/m² 0,6 °C 1,6 km/h (1 Bft)
14.10.2016 05:25 1,2 °C 1,2 °C 96 % 1010,7 hPa 0,0 mm 1,7 km/h (1 Bft) NW 304 ° 0 min 0,000 mm 0,0 UV-I 0 W/m² 0,6 °C 3,2 km/h (1 Bft)
14.10.2016 05:26 1,4 °C 1,4 °C 96 % 1010,7 hPa 0,0 mm 0,6 km/h (0 Bft) NW 304 ° 0 min 0,000 mm 0,0 UV-I 0 W/m² 0,8 °C 1,6 km/h (1 Bft)
14.10.2016 05:27 1,4 °C 1,4 °C 96 % 1010,7 hPa 0,0 mm 0,5 km/h (0 Bft) NW 304 ° 0 min 0,000 mm 0,0 UV-I 0 W/m² 0,8 °C 1,6 km/h (1 Bft)
14.10.2016 05:28 1,5 °C 1,5 °C 97 % 1010,6 hPa 0,0 mm 0,5 km/h (0 Bft) NW 304 ° 0 min 0,000 mm 0,0 UV-I 0 W/m² 1,1 °C 1,6 km/h (1 Bft)
14.10.2016 05:29 1,6 °C 1,6 °C 97 % 1010,7 hPa 0,0 mm 0,7 km/h (0 Bft) NW 304 ° 0 min 0,000 mm 0,0 UV-I 0 W/m² 1,2 °C 1,6 km/h (1 Bft)
14.10.2016 05:30 1,6 °C 1,6 °C 97 % 1010,5 hPa 0,0 mm 1,9 km/h (1 Bft) NW 304 ° 0 min 0,000 mm 0,0 UV-I 0 W/m² 1,2 °C 3,2 km/h (1 Bft)
14.10.2016 05:31 1,6 °C 1,6 °C 97 % 1010,5 hPa 0,0 mm 2,2 km/h (1 Bft) NW 304 ° 0 min 0,000 mm 0,0 UV-I 0 W/m² 1,2 °C 3,2 km/h (1 Bft)
14.10.2016 05:32 1,6 °C 1,6 °C 97 % 1010,4 hPa 0,0 mm 1,3 km/h (1 Bft) NW 304 ° 0 min 0,000 mm 0,0 UV-I 0 W/m² 1,2 °C 1,6 km/h (1 Bft)
14.10.2016 05:33 1,4 °C 1,6 °C 97 % 1010,4 hPa 0,0 mm 0,1 km/h (0 Bft) NW 304 ° 0 min 0,000 mm 0,0 UV-I 0 W/m² 1,0 °C 1,6 km/h (1 Bft)
14.10.2016 05:34 1,4 °C 1,4 °C 96 % 1010,4 hPa 0,0 mm 0,0 km/h (0 Bft) NW 304 ° 0 min 0,000 mm 0,0 UV-I 0 W/m² 0,8 °C 0,0 km/h (0 Bft)
14.10.2016 05:35 1,4 °C 1,5 °C 97 % 1010,4 hPa 0,0 mm 0,0 km/h (0 Bft) NW 304 ° 0 min 0,000 mm 0,0 UV-I 0 W/m² 1,0 °C 0,0 km/h (0 Bft)
14.10.2016 05:36 1,5 °C 1,5 °C 97 % 1010,4 hPa 0,0 mm 0,0 km/h (0 Bft) NW 304 ° 0 min 0,000 mm 0,0 UV-I 0 W/m² 1,1 °C 0,0 km/h (0 Bft)
14.10.2016 05:37 1,6 °C 1,6 °C 97 % 1010,4 hPa 0,0 mm 0,0 km/h (0 Bft) NW 304 ° 0 min 0,000 mm 0,0 UV-I 0 W/m² 1,2 °C 0,0 km/h (0 Bft)
14.10.2016 05:38 1,6 °C 1,6 °C 97 % 1010,4 hPa 0,0 mm 0,1 km/h (0 Bft) NW 304 ° 0 min 0,000 mm 0,0 UV-I 0 W/m² 1,2 °C 1,6 km/h (1 Bft)
14.10.2016 05:39 1,5 °C 1,6 °C 97 % 1010,3 hPa 0,0 mm 0,0 km/h (0 Bft) NW 304 ° 0 min 0,000 mm 0,0 UV-I 0 W/m² 1,1 °C 0,0 km/h (0 Bft)
14.10.2016 05:40 1,6 °C 1,6 °C 97 % 1010,3 hPa 0,0 mm 0,0 km/h (0 Bft) NW 304 ° 0 min 0,000 mm 0,0 UV-I 0 W/m² 1,2 °C 0,0 km/h (0 Bft)
14.10.2016 05:41 1,6 °C 1,6 °C 97 % 1010,3 hPa 0,0 mm 0,0 km/h (0 Bft) NW 304 ° 0 min 0,000 mm 0,0 UV-I 0 W/m² 1,2 °C 0,0 km/h (0 Bft)
14.10.2016 05:42 1,6 °C 1,6 °C 97 % 1010,2 hPa 0,0 mm 0,0 km/h (0 Bft) NW 304 ° 0 min 0,000 mm 0,0 UV-I 0 W/m² 1,2 °C 0,0 km/h (0 Bft)
14.10.2016 05:43 1,6 °C 1,6 °C 97 % 1010,2 hPa 0,0 mm 0,0 km/h (0 Bft) NW 304 ° 0 min 0,000 mm 0,0 UV-I 0 W/m² 1,2 °C 0,0 km/h (0 Bft)
14.10.2016 05:44 1,6 °C 1,6 °C 97 % 1010,2 hPa 0,0 mm 0,7 km/h (0 Bft) NW 304 ° 0 min 0,000 mm 0,0 UV-I 0 W/m² 1,2 °C 1,6 km/h (1 Bft)
14.10.2016 05:45 1,6 °C 1,6 °C 97 % 1010,2 hPa 0,0 mm 0,0 km/h (0 Bft) NW 304 ° 0 min 0,000 mm 0,0 UV-I 0 W/m² 1,2 °C 0,0 km/h (0 Bft)
14.10.2016 05:46 1,6 °C 1,6 °C 97 % 1010,2 hPa 0,0 mm 0,0 km/h (0 Bft) NW 304 ° 0 min 0,000 mm 0,0 UV-I 0 W/m² 1,2 °C 0,0 km/h (0 Bft)
14.10.2016 05:47 1,6 °C 1,6 °C 96 % 1010,1 hPa 0,0 mm 0,0 km/h (0 Bft) NW 304 ° 0 min 0,000 mm 0,0 UV-I 0 W/m² 1,0 °C 0,0 km/h (0 Bft)
14.10.2016 05:48 1,7 °C 1,7 °C 96 % 1010,1 hPa 0,0 mm 0,0 km/h (0 Bft) NW 304 ° 0 min 0,000 mm 0,0 UV-I 0 W/m² 1,1 °C 0,0 km/h (0 Bft)
14.10.2016 05:49 1,7 °C 1,7 °C 96 % 1010,1 hPa 0,0 mm 0,6 km/h (0 Bft) NW 304 ° 0 min 0,000 mm 0,0 UV-I 0 W/m² 1,1 °C 1,6 km/h (1 Bft)
14.10.2016 05:50 1,6 °C 1,7 °C 97 % 1010,1 hPa 0,0 mm 0,9 km/h (0 Bft) NW 304 ° 0 min 0,000 mm 0,0 UV-I 0 W/m² 1,2 °C 1,6 km/h (1 Bft)
14.10.2016 05:51 1,5 °C 1,6 °C 97 % 1010,1 hPa 0,0 mm 1,1 km/h (1 Bft) NW 304 ° 0 min 0,000 mm 0,0 UV-I 0 W/m² 1,1 °C 1,6 km/h (1 Bft)
14.10.2016 05:52 1,4 °C 1,5 °C 97 % 1010,1 hPa 0,0 mm 0,3 km/h (0 Bft) NW 304 ° 0 min 0,000 mm 0,0 UV-I 0 W/m² 1,0 °C 1,6 km/h (1 Bft)
14.10.2016 05:53 1,4 °C 1,4 °C 96 % 1010,1 hPa 0,0 mm 0,0 km/h (0 Bft) NW 304 ° 0 min 0,000 mm 0,0 UV-I 0 W/m² 0,8 °C 0,0 km/h (0 Bft)
14.10.2016 05:54 1,4 °C 1,4 °C 96 % 1010,1 hPa 0,0 mm 0,0 km/h (0 Bft) NW 304 ° 0 min 0,000 mm 0,0 UV-I 0 W/m² 0,8 °C 0,0 km/h (0 Bft)
14.10.2016 05:55 1,4 °C 1,4 °C 96 % 1010,1 hPa 0,0 mm 0,0 km/h (0 Bft) NW 304 ° 0 min 0,000 mm 0,0 UV-I 0 W/m² 0,8 °C 0,0 km/h (0 Bft)
14.10.2016 05:56 1,4 °C 1,4 °C 96 % 1010,1 hPa 0,0 mm 0,0 km/h (0 Bft) NW 304 ° 0 min 0,000 mm 0,0 UV-I 0 W/m² 0,8 °C 0,0 km/h (0 Bft)
14.10.2016 05:57 1,4 °C 1,4 °C 96 % 1010,0 hPa 0,0 mm 0,0 km/h (0 Bft) NW 304 ° 0 min 0,000 mm 0,0 UV-I 0 W/m² 0,8 °C 0,0 km/h (0 Bft)
14.10.2016 05:58 1,4 °C 1,4 °C 96 % 1010,0 hPa 0,0 mm 0,0 km/h (0 Bft) NW 304 ° 0 min 0,000 mm 0,0 UV-I 0 W/m² 0,8 °C 0,0 km/h (0 Bft)
14.10.2016 05:59 1,4 °C 1,4 °C 97 % 1010,0 hPa 0,0 mm 0,1 km/h (0 Bft) NW 304 ° 0 min 0,000 mm 0,0 UV-I 0 W/m² 1,0 °C 1,6 km/h (1 Bft)
14.10.2016 06:00 1,5 °C 1,5 °C 97 % 1010,1 hPa 0,0 mm 0,7 km/h (0 Bft) NW 304 ° 0 min 0,000 mm 0,0 UV-I 0 W/m² 1,1 °C 1,6 km/h (1 Bft)
14.10.2016 06:01 1,5 °C 1,5 °C 97 % 1010,1 hPa 0,0 mm 1,1 km/h (1 Bft) NW 304 ° 0 min 0,000 mm 0,0 UV-I 0 W/m² 1,1 °C 1,6 km/h (1 Bft)
14.10.2016 06:02 1,6 °C 1,6 °C 97 % 1010,1 hPa 0,0 mm 1,2 km/h (1 Bft) NW 304 ° 0 min 0,000 mm 0,0 UV-I 0 W/m² 1,2 °C 3,2 km/h (1 Bft)
14.10.2016 06:03 1,6 °C 1,6 °C 97 % 1010,1 hPa 0,0 mm 1,8 km/h (1 Bft) NW 304 ° 0 min 0,000 mm 0,0 UV-I 0 W/m² 1,2 °C 3,2 km/h (1 Bft)
14.10.2016 06:04 1,6 °C 1,6 °C 97 % 1010,1 hPa 0,0 mm 1,9 km/h (1 Bft) NW 304 ° 0 min 0,000 mm 0,0 UV-I 0 W/m² 1,2 °C 3,2 km/h (1 Bft)
14.10.2016 06:05 1,7 °C 1,7 °C 97 % 1010,1 hPa 0,0 mm 2,1 km/h (1 Bft) NW 304 ° 0 min 0,000 mm 0,0 UV-I 0 W/m² 1,3 °C 3,2 km/h (1 Bft)
14.10.2016 06:06 1,7 °C 1,7 °C 97 % 1010,2 hPa 0,0 mm 0,6 km/h (0 Bft) NW 304 ° 0 min 0,000 mm 0,0 UV-I 0 W/m² 1,3 °C 1,6 km/h (1 Bft)
14.10.2016 06:07 1,8 °C 1,8 °C 97 % 1010,2 hPa 0,0 mm 0,2 km/h (0 Bft) NW 304 ° 0 min 0,000 mm 0,0 UV-I 0 W/m² 1,4 °C 1,6 km/h (1 Bft)
14.10.2016 06:08 1,8 °C 1,8 °C 97 % 1010,1 hPa 0,0 mm 0,7 km/h (0 Bft) NW 304 ° 0 min 0,000 mm 0,0 UV-I 0 W/m² 1,4 °C 1,6 km/h (1 Bft)
14.10.2016 06:09 1,8 °C 1,9 °C 97 % 1010,1 hPa 0,0 mm 1,4 km/h (1 Bft) NW 304 ° 0 min 0,000 mm 0,0 UV-I 0 W/m² 1,4 °C 3,2 km/h (1 Bft)
14.10.2016 06:10 1,8 °C 1,9 °C 97 % 1010,1 hPa 0,0 mm 0,8 km/h (0 Bft) NW 304 ° 0 min 0,000 mm 0,0 UV-I 0 W/m² 1,4 °C 3,2 km/h (1 Bft)
14.10.2016 06:11 1,9 °C 1,9 °C 97 % 1010,1 hPa 0,0 mm 0,1 km/h (0 Bft) NW 304 ° 0 min 0,000 mm 0,0 UV-I 0 W/m² 1,5 °C 1,6 km/h (1 Bft)
14.10.2016 06:12 1,8 °C 1,9 °C 97 % 1010,1 hPa 0,0 mm 0,7 km/h (0 Bft) NW 304 ° 0 min 0,000 mm 0,0 UV-I 0 W/m² 1,4 °C 1,6 km/h (1 Bft)
14.10.2016 06:13 1,8 °C 1,8 °C 97 % 1010,1 hPa 0,0 mm 0,0 km/h (0 Bft) NW 304 ° 0 min 0,000 mm 0,0 UV-I 0 W/m² 1,4 °C 0,0 km/h (0 Bft)
14.10.2016 06:14 1,8 °C 1,8 °C 97 % 1010,0 hPa 0,0 mm 0,1 km/h (0 Bft) NW 304 ° 0 min 0,000 mm 0,0 UV-I 0 W/m² 1,4 °C 1,6 km/h (1 Bft)
14.10.2016 06:15 1,8 °C 1,9 °C 97 % 1010,0 hPa 0,0 mm 0,0 km/h (0 Bft) NW 304 ° 0 min 0,000 mm 0,0 UV-I 0 W/m² 1,4 °C 0,0 km/h (0 Bft)
14.10.2016 06:16 1,8 °C 1,8 °C 97 % 1010,0 hPa 0,0 mm 0,7 km/h (0 Bft) NW 304 ° 0 min 0,000 mm 0,0 UV-I 0 W/m² 1,4 °C 1,6 km/h (1 Bft)
14.10.2016 06:17 1,8 °C 1,8 °C 97 % 1010,0 hPa 0,0 mm 0,1 km/h (0 Bft) NW 304 ° 0 min 0,000 mm 0,0 UV-I 0 W/m² 1,4 °C 1,6 km/h (1 Bft)
14.10.2016 06:18 1,8 °C 1,8 °C 97 % 1009,9 hPa 0,0 mm 0,1 km/h (0 Bft) NW 304 ° 0 min 0,000 mm 0,0 UV-I 0 W/m² 1,4 °C 1,6 km/h (1 Bft)
14.10.2016 06:19 1,9 °C 1,9 °C 97 % 1009,9 hPa 0,0 mm 2,3 km/h (1 Bft) NW 304 ° 0 min 0,000 mm 0,0 UV-I 0 W/m² 1,5 °C 3,2 km/h (1 Bft)
14.10.2016 06:20 1,8 °C 1,9 °C 97 % 1009,9 hPa 0,0 mm 3,4 km/h (1 Bft) NW 304 ° 0 min 0,000 mm 0,0 UV-I 0 W/m² 1,4 °C 4,8 km/h (1 Bft)
14.10.2016 06:21 1,9 °C 1,9 °C 97 % 1009,8 hPa 0,0 mm 4,4 km/h (1 Bft) W 278 ° 0 min 0,000 mm 0,0 UV-I 0 W/m² 1,5 °C 4,8 km/h (1 Bft)
14.10.2016 06:22 1,9 °C 1,9 °C 97 % 1009,8 hPa 0,0 mm 4,0 km/h (1 Bft) W 265 ° 0 min 0,000 mm 0,0 UV-I 0 W/m² 1,5 °C 4,8 km/h (1 Bft)
14.10.2016 06:23 1,9 °C 1,9 °C 97 % 1009,8 hPa 0,0 mm 2,4 km/h (1 Bft) N-NW 338 ° 0 min 0,000 mm 0,0 UV-I 0 W/m² 1,5 °C 3,2 km/h (1 Bft)
14.10.2016 06:24 2,0 °C 2,0 °C 97 % 1009,8 hPa 0,0 mm 5,3 km/h (1 Bft) NO 38 ° 0 min 0,000 mm 0,0 UV-I 0 W/m² 1,6 °C 6,4 km/h (2 Bft)
14.10.2016 06:25 1,9 °C 2,0 °C 97 % 1009,9 hPa 0,0 mm 3,6 km/h (1 Bft) N-NO 26 ° 0 min 0,000 mm 0,0 UV-I 0 W/m² 1,5 °C 6,4 km/h (2 Bft)
14.10.2016 06:26 1,9 °C 1,9 °C 97 % 1009,9 hPa 0,0 mm 0,4 km/h (0 Bft) N-NO 26 ° 0 min 0,000 mm 0,0 UV-I 0 W/m² 1,5 °C 1,6 km/h (1 Bft)
14.10.2016 06:27 1,9 °C 1,9 °C 97 % 1009,9 hPa 0,0 mm 0,1 km/h (0 Bft) N-NO 26 ° 0 min 0,000 mm 0,0 UV-I 0 W/m² 1,5 °C 1,6 km/h (1 Bft)
14.10.2016 06:28 1,9 °C 1,9 °C 97 % 1009,9 hPa 0,0 mm 3,2 km/h (1 Bft) NO 55 ° 0 min 0,000 mm 0,0 UV-I 0 W/m² 1,5 °C 4,8 km/h (1 Bft)
14.10.2016 06:29 1,9 °C 1,9 °C 97 % 1009,8 hPa 0,0 mm 4,3 km/h (1 Bft) O-NO 61 ° 0 min 0,000 mm 0,0 UV-I 0 W/m² 1,5 °C 6,4 km/h (2 Bft)
14.10.2016 06:30 1,9 °C 1,9 °C 97 % 1009,8 hPa 0,0 mm 1,3 km/h (1 Bft) O-NO 61 ° 0 min 0,000 mm 0,0 UV-I 0 W/m² 1,5 °C 3,2 km/h (1 Bft)
14.10.2016 06:31 1,9 °C 1,9 °C 97 % 1009,7 hPa 0,0 mm 0,0 km/h (0 Bft) O-NO 61 ° 0 min 0,000 mm 0,0 UV-I 0 W/m² 1,5 °C 0,0 km/h (0 Bft)
14.10.2016 06:32 1,9 °C 1,9 °C 97 % 1009,7 hPa 0,0 mm 0,0 km/h (0 Bft) O-NO 61 ° 0 min 0,000 mm 0,0 UV-I 0 W/m² 1,5 °C 0,0 km/h (0 Bft)
14.10.2016 06:33 1,9 °C 1,9 °C 97 % 1009,7 hPa 0,0 mm 0,0 km/h (0 Bft) O-NO 61 ° 0 min 0,000 mm 0,0 UV-I 0 W/m² 1,5 °C 0,0 km/h (0 Bft)
14.10.2016 06:34 1,9 °C 1,9 °C 97 % 1009,7 hPa 0,0 mm 0,0 km/h (0 Bft) O-NO 61 ° 0 min 0,000 mm 0,0 UV-I 0 W/m² 1,5 °C 0,0 km/h (0 Bft)
14.10.2016 06:35 1,9 °C 1,9 °C 97 % 1009,7 hPa 0,0 mm 0,0 km/h (0 Bft) O-NO 61 ° 0 min 0,000 mm 0,0 UV-I 0 W/m² 1,5 °C 0,0 km/h (0 Bft)
14.10.2016 06:36 1,9 °C 1,9 °C 97 % 1009,7 hPa 0,0 mm 0,0 km/h (0 Bft) O-NO 61 ° 0 min 0,000 mm 0,0 UV-I 0 W/m² 1,5 °C 0,0 km/h (0 Bft)
14.10.2016 06:37 1,9 °C 1,9 °C 97 % 1009,8 hPa 0,0 mm 0,0 km/h (0 Bft) O-NO 61 ° 0 min 0,000 mm 0,0 UV-I 0 W/m² 1,5 °C 0,0 km/h (0 Bft)
14.10.2016 06:38 1,9 °C 1,9 °C 97 % 1009,8 hPa 0,0 mm 0,0 km/h (0 Bft) O-NO 61 ° 0 min 0,000 mm 0,0 UV-I 0 W/m² 1,5 °C 0,0 km/h (0 Bft)
14.10.2016 06:39 1,9 °C 1,9 °C 97 % 1009,7 hPa 0,0 mm 0,0 km/h (0 Bft) O-NO 61 ° 0 min 0,000 mm 0,0 UV-I 0 W/m² 1,5 °C 0,0 km/h (0 Bft)
14.10.2016 06:40 1,9 °C 1,9 °C 97 % 1009,7 hPa 0,0 mm 0,0 km/h (0 Bft) O-NO 61 ° 0 min 0,000 mm 0,0 UV-I 0 W/m² 1,5 °C 0,0 km/h (0 Bft)
14.10.2016 06:41 1,9 °C 1,9 °C 97 % 1009,7 hPa 0,0 mm 0,0 km/h (0 Bft) O-NO 61 ° 0 min 0,000 mm 0,0 UV-I 0 W/m² 1,5 °C 0,0 km/h (0 Bft)
14.10.2016 06:42 1,8 °C 1,9 °C 97 % 1009,7 hPa 0,0 mm 0,0 km/h (0 Bft) O-NO 61 ° 0 min 0,000 mm 0,0 UV-I 0 W/m² 1,4 °C 0,0 km/h (0 Bft)
14.10.2016 06:43 1,8 °C 1,8 °C 97 % 1009,6 hPa 0,0 mm 0,0 km/h (0 Bft) O-NO 61 ° 0 min 0,000 mm 0,0 UV-I 0 W/m² 1,4 °C 0,0 km/h (0 Bft)
14.10.2016 06:44 1,8 °C 1,8 °C 97 % 1009,6 hPa 0,0 mm 0,0 km/h (0 Bft) O-NO 61 ° 0 min 0,000 mm 0,0 UV-I 0 W/m² 1,4 °C 0,0 km/h (0 Bft)
14.10.2016 06:45 1,8 °C 1,8 °C 97 % 1009,6 hPa 0,0 mm 0,0 km/h (0 Bft) O-NO 61 ° 0 min 0,000 mm 0,0 UV-I 0 W/m² 1,4 °C 0,0 km/h (0 Bft)
14.10.2016 06:46 1,8 °C 1,8 °C 97 % 1009,7 hPa 0,0 mm 0,0 km/h (0 Bft) O-NO 61 ° 0 min 0,000 mm 0,0 UV-I 0 W/m² 1,4 °C 0,0 km/h (0 Bft)
14.10.2016 06:47 1,8 °C 1,8 °C 97 % 1009,7 hPa 0,0 mm 0,0 km/h (0 Bft) O-NO 61 ° 0 min 0,000 mm 0,0 UV-I 0 W/m² 1,4 °C 0,0 km/h (0 Bft)
14.10.2016 06:48 1,8 °C 1,8 °C 97 % 1009,6 hPa 0,0 mm 0,0 km/h (0 Bft) O-NO 61 ° 0 min 0,000 mm 0,0 UV-I 0 W/m² 1,4 °C 0,0 km/h (0 Bft)
14.10.2016 06:49 1,8 °C 1,8 °C 97 % 1009,6 hPa 0,0 mm 0,0 km/h (0 Bft) O-NO 61 ° 0 min 0,000 mm 0,0 UV-I 0 W/m² 1,4 °C 0,0 km/h (0 Bft)
14.10.2016 06:50 1,9 °C 1,9 °C 97 % 1009,6 hPa 0,0 mm 0,0 km/h (0 Bft) O-NO 61 ° 0 min 0,000 mm 0,0 UV-I 0 W/m² 1,5 °C 0,0 km/h (0 Bft)
14.10.2016 06:51 2,0 °C 2,0 °C 97 % 1009,7 hPa 0,0 mm 0,1 km/h (0 Bft) O-NO 61 ° 0 min 0,000 mm 0,0 UV-I 0 W/m² 1,6 °C 1,6 km/h (1 Bft)
14.10.2016 06:52 2,0 °C 2,1 °C 97 % 1009,6 hPa 0,0 mm 1,7 km/h (1 Bft) O-NO 61 ° 0 min 0,000 mm 0,0 UV-I 0 W/m² 1,6 °C 3,2 km/h (1 Bft)
14.10.2016 06:53 2,0 °C 2,0 °C 97 % 1009,5 hPa 0,0 mm 1,1 km/h (1 Bft) O-NO 61 ° 0 min 0,000 mm 0,0 UV-I 0 W/m² 1,6 °C 3,2 km/h (1 Bft)
14.10.2016 06:54 1,9 °C 2,0 °C 97 % 1009,5 hPa 0,0 mm 0,0 km/h (0 Bft) O-NO 61 ° 0 min 0,000 mm 0,0 UV-I 0 W/m² 1,5 °C 0,0 km/h (0 Bft)
14.10.2016 06:55 1,9 °C 1,9 °C 97 % 1009,5 hPa 0,0 mm 0,5 km/h (0 Bft) O-NO 61 ° 0 min 0,000 mm 0,0 UV-I 0 W/m² 1,5 °C 1,6 km/h (1 Bft)
14.10.2016 06:56 1,8 °C 1,9 °C 97 % 1009,7 hPa 0,0 mm 1,0 km/h (0 Bft) O-NO 61 ° 0 min 0,000 mm 0,0 UV-I 0 W/m² 1,4 °C 3,2 km/h (1 Bft)
14.10.2016 06:57 1,8 °C 1,8 °C 97 % 1009,7 hPa 0,0 mm 0,5 km/h (0 Bft) O-NO 61 ° 0 min 0,000 mm 0,0 UV-I 0 W/m² 1,4 °C 1,6 km/h (1 Bft)
14.10.2016 06:58 1,7 °C 1,8 °C 97 % 1009,7 hPa 0,0 mm 0,1 km/h (0 Bft) O-NO 61 ° 0 min 0,000 mm 0,0 UV-I 0 W/m² 1,3 °C 1,6 km/h (1 Bft)
14.10.2016 06:59 1,7 °C 1,7 °C 97 % 1009,7 hPa 0,0 mm 0,0 km/h (0 Bft) O-NO 61 ° 0 min 0,000 mm 0,0 UV-I 0 W/m² 1,3 °C 0,0 km/h (0 Bft)
14.10.2016 07:00 1,6 °C 1,7 °C 96 % 1009,7 hPa 0,0 mm 0,0 km/h (0 Bft) O-NO 61 ° 0 min 0,000 mm 0,0 UV-I 0 W/m² 1,0 °C 0,0 km/h (0 Bft)
14.10.2016 07:01 1,6 °C 1,7 °C 96 % 1009,6 hPa 0,0 mm 0,2 km/h (0 Bft) O-NO 61 ° 0 min 0,000 mm 0,0 UV-I 0 W/m² 1,0 °C 1,6 km/h (1 Bft)
14.10.2016 07:02 1,6 °C 1,6 °C 97 % 1009,6 hPa 0,0 mm 0,0 km/h (0 Bft) O-NO 61 ° 0 min 0,000 mm 0,0 UV-I 0 W/m² 1,2 °C 0,0 km/h (0 Bft)
14.10.2016 07:03 1,6 °C 1,6 °C 97 % 1009,6 hPa 0,0 mm 0,1 km/h (0 Bft) O-NO 61 ° 0 min 0,000 mm 0,0 UV-I 0 W/m² 1,2 °C 1,6 km/h (1 Bft)
14.10.2016 07:04 1,6 °C 1,7 °C 97 % 1009,6 hPa 0,0 mm 2,3 km/h (1 Bft) O 87 ° 0 min 0,000 mm 0,0 UV-I 0 W/m² 1,2 °C 4,8 km/h (1 Bft)
14.10.2016 07:05 1,7 °C 1,7 °C 97 % 1009,6 hPa 0,0 mm 4,6 km/h (1 Bft) O 97 ° 0 min 0,000 mm 0,0 UV-I 0 W/m² 1,3 °C 4,8 km/h (1 Bft)
14.10.2016 07:06 1,8 °C 1,8 °C 97 % 1009,6 hPa 0,0 mm 3,2 km/h (1 Bft) O 98 ° 0 min 0,000 mm 0,0 UV-I 0 W/m² 1,4 °C 4,8 km/h (1 Bft)
14.10.2016 07:07 1,8 °C 1,8 °C 97 % 1009,5 hPa 0,0 mm 3,0 km/h (1 Bft) S-SO 157 ° 0 min 0,000 mm 0,0 UV-I 0 W/m² 1,4 °C 4,8 km/h (1 Bft)
14.10.2016 07:08 1,9 °C 1,9 °C 97 % 1009,5 hPa 0,0 mm 1,7 km/h (1 Bft) O 79 ° 0 min 0,000 mm 0,0 UV-I 0 W/m² 1,5 °C 3,2 km/h (1 Bft)
14.10.2016 07:09 1,9 °C 1,9 °C 97 % 1009,5 hPa 0,0 mm 0,3 km/h (0 Bft) O 80 ° 0 min 0,000 mm 0,0 UV-I 0 W/m² 1,5 °C 1,6 km/h (1 Bft)
14.10.2016 07:10 1,9 °C 1,9 °C 97 % 1009,5 hPa 0,0 mm 0,3 km/h (0 Bft) O 79 ° 0 min 0,000 mm 0,0 UV-I 0 W/m² 1,5 °C 1,6 km/h (1 Bft)
14.10.2016 07:11 1,9 °C 1,9 °C 97 % 1009,5 hPa 0,0 mm 1,6 km/h (1 Bft) O 80 ° 0 min 0,000 mm 0,0 UV-I 0 W/m² 1,5 °C 1,6 km/h (1 Bft)
14.10.2016 07:12 1,9 °C 1,9 °C 97 % 1009,5 hPa 0,0 mm 2,1 km/h (1 Bft) NO 43 ° 0 min 0,000 mm 0,0 UV-I 0 W/m² 1,5 °C 3,2 km/h (1 Bft)
14.10.2016 07:13 2,0 °C 2,0 °C 97 % 1009,5 hPa 0,0 mm 3,1 km/h (1 Bft) W 265 ° 0 min 0,000 mm 0,0 UV-I 0 W/m² 1,6 °C 4,8 km/h (1 Bft)
14.10.2016 07:14 2,0 °C 2,0 °C 97 % 1009,6 hPa 0,0 mm 4,2 km/h (1 Bft) W 265 ° 0 min 0,000 mm 0,0 UV-I 0 W/m² 1,6 °C 4,8 km/h (1 Bft)
14.10.2016 07:15 2,0 °C 2,0 °C 97 % 1009,5 hPa 0,0 mm 1,2 km/h (1 Bft) W 265 ° 0 min 0,000 mm 0,0 UV-I 0 W/m² 1,6 °C 3,2 km/h (1 Bft)
14.10.2016 07:16 2,0 °C 2,0 °C 97 % 1009,5 hPa 0,0 mm 2,1 km/h (1 Bft) W-NW 295 ° 0 min 0,000 mm 0,0 UV-I 0 W/m² 1,6 °C 3,2 km/h (1 Bft)
14.10.2016 07:17 1,9 °C 2,0 °C 97 % 1009,5 hPa 0,0 mm 2,2 km/h (1 Bft) W-NW 295 ° 0 min 0,000 mm 0,0 UV-I 0 W/m² 1,5 °C 3,2 km/h (1 Bft)
14.10.2016 07:18 1,9 °C 1,9 °C 97 % 1009,5 hPa 0,0 mm 1,1 km/h (1 Bft) W-NW 295 ° 0 min 0,000 mm 0,0 UV-I 0 W/m² 1,5 °C 1,6 km/h (1 Bft)
14.10.2016 07:19 1,8 °C 1,9 °C 97 % 1009,5 hPa 0,0 mm 0,5 km/h (0 Bft) W-NW 295 ° 0 min 0,000 mm 0,0 UV-I 0 W/m² 1,4 °C 1,6 km/h (1 Bft)
14.10.2016 07:20 1,8 °C 1,8 °C 97 % 1009,5 hPa 0,0 mm 1,4 km/h (1 Bft) N-NW 348 ° 0 min 0,000 mm 0,0 UV-I 0 W/m² 1,4 °C 3,2 km/h (1 Bft)
14.10.2016 07:21 1,8 °C 1,8 °C 97 % 1009,5 hPa 0,0 mm 3,8 km/h (1 Bft) NO 45 ° 0 min 0,000 mm 0,0 UV-I 0 W/m² 1,4 °C 4,8 km/h (1 Bft)
14.10.2016 07:22 1,7 °C 1,8 °C 97 % 1009,5 hPa 0,0 mm 3,3 km/h (1 Bft) NO 46 ° 0 min 0,000 mm 0,0 UV-I 0 W/m² 1,3 °C 4,8 km/h (1 Bft)
14.10.2016 07:23 1,7 °C 1,7 °C 97 % 1009,5 hPa 0,0 mm 2,1 km/h (1 Bft) NO 46 ° 0 min 0,000 mm 0,0 UV-I 0 W/m² 1,3 °C 3,2 km/h (1 Bft)
14.10.2016 07:24 1,7 °C 1,7 °C 97 % 1009,5 hPa 0,0 mm 2,1 km/h (1 Bft) O-NO 62 ° 0 min 0,000 mm 0,0 UV-I 0 W/m² 1,3 °C 3,2 km/h (1 Bft)
14.10.2016 07:25 1,8 °C 1,8 °C 97 % 1009,5 hPa 0,0 mm 3,2 km/h (1 Bft) S-SO 151 ° 0 min 0,000 mm 0,0 UV-I 0 W/m² 1,4 °C 4,8 km/h (1 Bft)
14.10.2016 07:26 1,9 °C 1,9 °C 97 % 1009,5 hPa 0,0 mm 3,2 km/h (1 Bft) S-SO 156 ° 0 min 0,000 mm 0,0 UV-I 0 W/m² 1,5 °C 4,8 km/h (1 Bft)
14.10.2016 07:27 2,1 °C 2,1 °C 97 % 1009,5 hPa 0,0 mm 1,9 km/h (1 Bft) NO 46 ° 0 min 0,000 mm 0,0 UV-I 0 W/m² 1,7 °C 3,2 km/h (1 Bft)
14.10.2016 07:28 2,1 °C 2,1 °C 97 % 1009,5 hPa 0,0 mm 4,5 km/h (1 Bft) NO 37 ° 0 min 0,000 mm 0,0 UV-I 0 W/m² 1,7 °C 6,4 km/h (2 Bft)
14.10.2016 07:29 2,1 °C 2,1 °C 97 % 1009,6 hPa 0,0 mm 2,6 km/h (1 Bft) N-NO 32 ° 0 min 0,000 mm 0,0 UV-I 0 W/m² 1,7 °C 4,8 km/h (1 Bft)
14.10.2016 07:30 2,1 °C 2,1 °C 97 % 1009,5 hPa 0,0 mm 0,1 km/h (0 Bft) N-NO 32 ° 0 min 0,000 mm 0,0 UV-I 0 W/m² 1,7 °C 1,6 km/h (1 Bft)
14.10.2016 07:31 2,0 °C 2,1 °C 97 % 1009,5 hPa 0,0 mm 1,4 km/h (1 Bft) N-NO 32 ° 0 min 0,000 mm 0,0 UV-I 0 W/m² 1,6 °C 3,2 km/h (1 Bft)
14.10.2016 07:32 2,0 °C 2,1 °C 97 % 1009,6 hPa 0,0 mm 0,9 km/h (0 Bft) N-NO 32 ° 0 min 0,000 mm 0,0 UV-I 0 W/m² 1,6 °C 3,2 km/h (1 Bft)
14.10.2016 07:33 1,9 °C 2,0 °C 97 % 1009,5 hPa 0,0 mm 0,0 km/h (0 Bft) N-NO 32 ° 0 min 0,000 mm 0,0 UV-I 0 W/m² 1,5 °C 0,0 km/h (0 Bft)
14.10.2016 07:34 1,9 °C 1,9 °C 97 % 1009,5 hPa 0,0 mm 0,0 km/h (0 Bft) N-NO 32 ° 0 min 0,000 mm 0,0 UV-I 0 W/m² 1,5 °C 0,0 km/h (0 Bft)
14.10.2016 07:35 1,8 °C 1,9 °C 97 % 1009,6 hPa 0,0 mm 0,0 km/h (0 Bft) N-NO 32 ° 0 min 0,000 mm 0,0 UV-I 0 W/m² 1,4 °C 0,0 km/h (0 Bft)
14.10.2016 07:36 1,7 °C 1,8 °C 97 % 1009,6 hPa 0,0 mm 0,0 km/h (0 Bft) N-NO 32 ° 0 min 0,000 mm 0,0 UV-I 0 W/m² 1,3 °C 0,0 km/h (0 Bft)
14.10.2016 07:37 1,7 °C 1,7 °C 97 % 1009,5 hPa 0,0 mm 0,0 km/h (0 Bft) N-NO 32 ° 0 min 0,000 mm 0,0 UV-I 0 W/m² 1,3 °C 0,0 km/h (0 Bft)
14.10.2016 07:38 1,7 °C 1,7 °C 97 % 1009,6 hPa 0,0 mm 0,0 km/h (0 Bft) N-NO 32 ° 0 min 0,000 mm 0,0 UV-I 0 W/m² 1,3 °C 0,0 km/h (0 Bft)
14.10.2016 07:39 1,7 °C 1,7 °C 97 % 1009,5 hPa 0,0 mm 0,0 km/h (0 Bft) N-NO 32 ° 0 min 0,000 mm 0,0 UV-I 0 W/m² 1,3 °C 0,0 km/h (0 Bft)
14.10.2016 07:40 1,7 °C 1,7 °C 97 % 1009,5 hPa 0,0 mm 0,0 km/h (0 Bft) N-NO 32 ° 0 min 0,000 mm 0,0 UV-I 0 W/m² 1,3 °C 0,0 km/h (0 Bft)
14.10.2016 07:41 1,8 °C 1,8 °C 97 % 1009,5 hPa 0,0 mm 0,0 km/h (0 Bft) N-NO 32 ° 0 min 0,000 mm 0,0 UV-I 0 W/m² 1,4 °C 0,0 km/h (0 Bft)
14.10.2016 07:42 1,7 °C 1,8 °C 97 % 1009,5 hPa 0,0 mm 0,0 km/h (0 Bft) N-NO 32 ° 0 min 0,000 mm 0,0 UV-I 5 W/m² 1,3 °C 0,0 km/h (0 Bft)
14.10.2016 07:43 1,7 °C 1,7 °C 97 % 1009,6 hPa 0,0 mm 0,0 km/h (0 Bft) N-NO 32 ° 0 min 0,000 mm 0,0 UV-I 5 W/m² 1,3 °C 0,0 km/h (0 Bft)
14.10.2016 07:44 1,7 °C 1,7 °C 97 % 1009,6 hPa 0,0 mm 0,0 km/h (0 Bft) N-NO 32 ° 0 min 0,000 mm 0,0 UV-I 5 W/m² 1,3 °C 0,0 km/h (0 Bft)
14.10.2016 07:45 1,7 °C 1,7 °C 97 % 1009,7 hPa 0,0 mm 0,0 km/h (0 Bft) N-NO 32 ° 0 min 0,000 mm 0,0 UV-I 5 W/m² 1,3 °C 0,0 km/h (0 Bft)
14.10.2016 07:46 1,7 °C 1,7 °C 97 % 1009,7 hPa 0,0 mm 0,0 km/h (0 Bft) N-NO 32 ° 0 min 0,000 mm 0,0 UV-I 5 W/m² 1,3 °C 0,0 km/h (0 Bft)
14.10.2016 07:47 1,7 °C 1,7 °C 97 % 1009,6 hPa 0,0 mm 0,0 km/h (0 Bft) N-NO 32 ° 0 min 0,000 mm 0,0 UV-I 7 W/m² 1,3 °C 0,0 km/h (0 Bft)
14.10.2016 07:48 1,7 °C 1,7 °C 97 % 1009,6 hPa 0,0 mm 0,0 km/h (0 Bft) N-NO 32 ° 0 min 0,000 mm 0,0 UV-I 7 W/m² 1,3 °C 0,0 km/h (0 Bft)
14.10.2016 07:49 1,7 °C 1,7 °C 97 % 1009,6 hPa 0,0 mm 0,0 km/h (0 Bft) N-NO 32 ° 0 min 0,000 mm 0,0 UV-I 9 W/m² 1,3 °C 0,0 km/h (0 Bft)
14.10.2016 07:50 1,7 °C 1,7 °C 97 % 1009,7 hPa 0,0 mm 0,0 km/h (0 Bft) N-NO 32 ° 0 min 0,000 mm 0,0 UV-I 9 W/m² 1,3 °C 0,0 km/h (0 Bft)
14.10.2016 07:51 1,8 °C 1,8 °C 97 % 1009,8 hPa 0,0 mm 0,0 km/h (0 Bft) N-NO 32 ° 0 min 0,000 mm 0,0 UV-I 9 W/m² 1,4 °C 0,0 km/h (0 Bft)
14.10.2016 07:52 1,8 °C 1,8 °C 97 % 1009,7 hPa 0,0 mm 0,0 km/h (0 Bft) N-NO 32 ° 0 min 0,000 mm 0,0 UV-I 11 W/m² 1,4 °C 0,0 km/h (0 Bft)
14.10.2016 07:53 1,8 °C 1,8 °C 97 % 1009,6 hPa 0,0 mm 0,0 km/h (0 Bft) N-NO 32 ° 0 min 0,000 mm 0,0 UV-I 11 W/m² 1,4 °C 0,0 km/h (0 Bft)
14.10.2016 07:54 1,9 °C 1,9 °C 97 % 1009,7 hPa 0,0 mm 0,0 km/h (0 Bft) N-NO 32 ° 0 min 0,000 mm 0,0 UV-I 11 W/m² 1,5 °C 0,0 km/h (0 Bft)
14.10.2016 07:55 1,9 °C 1,9 °C 97 % 1009,7 hPa 0,0 mm 0,0 km/h (0 Bft) N-NO 32 ° 0 min 0,000 mm 0,0 UV-I 12 W/m² 1,5 °C 0,0 km/h (0 Bft)
14.10.2016 07:56 1,9 °C 1,9 °C 97 % 1009,6 hPa 0,0 mm 0,0 km/h (0 Bft) N-NO 32 ° 0 min 0,000 mm 0,0 UV-I 12 W/m² 1,5 °C 0,0 km/h (0 Bft)
14.10.2016 07:57 1,9 °C 1,9 °C 97 % 1009,7 hPa 0,0 mm 0,0 km/h (0 Bft) N-NO 32 ° 0 min 0,000 mm 0,0 UV-I 12 W/m² 1,5 °C 0,0 km/h (0 Bft)
14.10.2016 07:58 2,0 °C 2,0 °C 97 % 1009,6 hPa 0,0 mm 0,0 km/h (0 Bft) N-NO 32 ° 0 min 0,000 mm 0,0 UV-I 14 W/m² 1,6 °C 0,0 km/h (0 Bft)
14.10.2016 07:59 1,9 °C 2,0 °C 97 % 1009,5 hPa 0,0 mm 0,0 km/h (0 Bft) N-NO 32 ° 0 min 0,000 mm 0,0 UV-I 14 W/m² 1,5 °C 0,0 km/h (0 Bft)
14.10.2016 08:00 1,9 °C 1,9 °C 97 % 1009,5 hPa 0,0 mm 0,0 km/h (0 Bft) N-NO 32 ° 0 min 0,000 mm 0,0 UV-I 16 W/m² 1,5 °C 0,0 km/h (0 Bft)
14.10.2016 08:01 1,9 °C 1,9 °C 97 % 1009,5 hPa 0,0 mm 0,0 km/h (0 Bft) N-NO 32 ° 0 min 0,000 mm 0,0 UV-I 16 W/m² 1,5 °C 0,0 km/h (0 Bft)
14.10.2016 08:02 1,9 °C 1,9 °C 97 % 1009,5 hPa 0,0 mm 0,0 km/h (0 Bft) N-NO 32 ° 0 min 0,000 mm 0,0 UV-I 16 W/m² 1,5 °C 0,0 km/h (0 Bft)
14.10.2016 08:03 1,9 °C 1,9 °C 97 % 1009,4 hPa 0,0 mm 0,0 km/h (0 Bft) N-NO 32 ° 0 min 0,000 mm 0,0 UV-I 18 W/m² 1,5 °C 0,0 km/h (0 Bft)
14.10.2016 08:04 1,9 °C 1,9 °C 97 % 1009,4 hPa 0,0 mm 0,0 km/h (0 Bft) O-NO 64 ° 0 min 0,000 mm 0,0 UV-I 19 W/m² 1,5 °C 0,0 km/h (0 Bft)
14.10.2016 08:05 1,9 °C 1,9 °C 97 % 1009,3 hPa 0,0 mm 0,0 km/h (0 Bft) O-NO 64 ° 0 min 0,000 mm 0,0 UV-I 19 W/m² 1,5 °C 0,0 km/h (0 Bft)
14.10.2016 08:06 2,0 °C 2,0 °C 97 % 1009,3 hPa 0,0 mm 0,0 km/h (0 Bft) O-NO 64 ° 0 min 0,000 mm 0,0 UV-I 21 W/m² 1,6 °C 0,0 km/h (0 Bft)
14.10.2016 08:07 2,1 °C 2,1 °C 97 % 1009,3 hPa 0,0 mm 0,0 km/h (0 Bft) O-NO 64 ° 0 min 0,000 mm 0,0 UV-I 21 W/m² 1,7 °C 0,0 km/h (0 Bft)
14.10.2016 08:08 2,1 °C 2,1 °C 97 % 1009,3 hPa 0,0 mm 0,4 km/h (0 Bft) O-NO 64 ° 0 min 0,000 mm 0,0 UV-I 21 W/m² 1,7 °C 3,2 km/h (1 Bft)
14.10.2016 08:09 2,1 °C 2,1 °C 97 % 1009,3 hPa 0,0 mm 0,2 km/h (0 Bft) O-NO 64 ° 0 min 0,000 mm 0,0 UV-I 23 W/m² 1,7 °C 1,6 km/h (1 Bft)
14.10.2016 08:10 2,2 °C 2,2 °C 97 % 1009,2 hPa 0,0 mm 0,0 km/h (0 Bft) O-NO 64 ° 0 min 0,000 mm 0,0 UV-I 23 W/m² 1,8 °C 0,0 km/h (0 Bft)
14.10.2016 08:11 2,2 °C 2,2 °C 97 % 1009,3 hPa 0,0 mm 1,6 km/h (1 Bft) N-NW 333 ° 0 min 0,000 mm 0,0 UV-I 21 W/m² 1,8 °C 4,8 km/h (1 Bft)
14.10.2016 08:12 2,3 °C 2,3 °C 97 % 1009,3 hPa 0,0 mm 2,0 km/h (1 Bft) N-NW 333 ° 0 min 0,000 mm 0,0 UV-I 21 W/m² 1,9 °C 3,2 km/h (1 Bft)
14.10.2016 08:13 2,4 °C 2,4 °C 97 % 1009,3 hPa 0,0 mm 1,0 km/h (0 Bft) N-NW 333 ° 0 min 0,000 mm 0,0 UV-I 23 W/m² 2,0 °C 3,2 km/h (1 Bft)
14.10.2016 08:14 2,6 °C 2,6 °C 97 % 1009,4 hPa 0,0 mm 2,8 km/h (1 Bft) N 360 ° 0 min 0,000 mm 0,0 UV-I 23 W/m² 2,2 °C 4,8 km/h (1 Bft)
14.10.2016 08:15 2,7 °C 2,7 °C 97 % 1009,4 hPa 0,0 mm 2,1 km/h (1 Bft) SO 130 ° 0 min 0,000 mm 0,0 UV-I 23 W/m² 2,3 °C 3,2 km/h (1 Bft)
14.10.2016 08:16 2,9 °C 2,9 °C 97 % 1009,3 hPa 0,0 mm 1,3 km/h (1 Bft) SO 130 ° 0 min 0,000 mm 0,0 UV-I 23 W/m² 2,5 °C 3,2 km/h (1 Bft)
14.10.2016 08:17 3,7 °C 3,7 °C 97 % 1009,3 hPa 0,0 mm 1,8 km/h (1 Bft) SO 130 ° 0 min 0,000 mm 0,0 UV-I 23 W/m² 3,3 °C 3,2 km/h (1 Bft)
14.10.2016 08:18 4,2 °C 4,2 °C 97 % 1009,3 hPa 0,0 mm 1,4 km/h (1 Bft) NO 55 ° 0 min 0,000 mm 0,0 UV-I 26 W/m² 3,8 °C 3,2 km/h (1 Bft)
14.10.2016 08:19 4,7 °C 4,7 °C 97 % 1009,3 hPa 0,0 mm 2,7 km/h (1 Bft) N 5 ° 0 min 0,000 mm 0,0 UV-I 26 W/m² 4,3 °C 4,8 km/h (1 Bft)
14.10.2016 08:20 5,1 °C 5,1 °C 97 % 1009,2 hPa 0,0 mm 1,0 km/h (0 Bft) SO 138 ° 0 min 0,000 mm 0,0 UV-I 26 W/m² 4,7 °C 4,8 km/h (1 Bft)
14.10.2016 08:21 5,3 °C 5,3 °C 97 % 1009,1 hPa 0,0 mm 2,7 km/h (1 Bft) O-NO 74 ° 0 min 0,000 mm 0,0 UV-I 28 W/m² 4,9 °C 4,8 km/h (1 Bft)
14.10.2016 08:22 5,6 °C 5,6 °C 97 % 1009,1 hPa 0,0 mm 2,5 km/h (1 Bft) O 79 ° 0 min 0,000 mm 0,0 UV-I 30 W/m² 5,2 °C 3,2 km/h (1 Bft)
14.10.2016 08:23 5,9 °C 5,9 °C 97 % 1009,2 hPa 0,0 mm 1,3 km/h (1 Bft) O 79 ° 0 min 0,000 mm 0,0 UV-I 32 W/m² 5,5 °C 3,2 km/h (1 Bft)
14.10.2016 08:24 6,1 °C 6,1 °C 97 % 1009,2 hPa 0,0 mm 0,7 km/h (0 Bft) O 79 ° 0 min 0,000 mm 0,0 UV-I 33 W/m² 5,7 °C 1,6 km/h (1 Bft)
14.10.2016 08:25 6,3 °C 6,3 °C 97 % 1009,2 hPa 0,0 mm 0,7 km/h (0 Bft) O 79 ° 0 min 0,000 mm 0,0 UV-I 35 W/m² 5,9 °C 1,6 km/h (1 Bft)
14.10.2016 08:26 6,6 °C 6,6 °C 97 % 1009,2 hPa 0,0 mm 1,1 km/h (1 Bft) NO 55 ° 0 min 0,000 mm 0,0 UV-I 37 W/m² 6,2 °C 3,2 km/h (1 Bft)
14.10.2016 08:27 6,7 °C 6,7 °C 97 % 1009,2 hPa 0,0 mm 3,6 km/h (1 Bft) O 90 ° 0 min 0,000 mm 0,0 UV-I 39 W/m² 6,3 °C 4,8 km/h (1 Bft)
14.10.2016 08:28 6,7 °C 6,8 °C 97 % 1009,2 hPa 0,0 mm 1,7 km/h (1 Bft) O 90 ° 0 min 0,000 mm 0,0 UV-I 39 W/m² 6,3 °C 3,2 km/h (1 Bft)
14.10.2016 08:29 6,9 °C 6,9 °C 97 % 1009,1 hPa 0,0 mm 2,4 km/h (1 Bft) N-NW 344 ° 0 min 0,000 mm 0,0 UV-I 40 W/m² 6,5 °C 3,2 km/h (1 Bft)
14.10.2016 08:30 7,1 °C 7,1 °C 97 % 1009,1 hPa 0,0 mm 3,0 km/h (1 Bft) O-SO 110 ° 0 min 0,000 mm 0,0 UV-I 42 W/m² 6,7 °C 4,8 km/h (1 Bft)
14.10.2016 08:31 7,3 °C 7,3 °C 97 % 1009,1 hPa 0,0 mm 0,6 km/h (0 Bft) O-SO 110 ° 0 min 0,000 mm 0,0 UV-I 44 W/m² 6,9 °C 3,2 km/h (1 Bft)
14.10.2016 08:32 7,6 °C 7,6 °C 97 % 1009,1 hPa 0,0 mm 1,3 km/h (1 Bft) N-NO 15 ° 0 min 0,000 mm 0,0 UV-I 44 W/m² 7,2 °C 3,2 km/h (1 Bft)
14.10.2016 08:33 7,8 °C 7,8 °C 97 % 1009,1 hPa 0,0 mm 3,4 km/h (1 Bft) N-NW 335 ° 0 min 0,000 mm 0,0 UV-I 46 W/m² 7,4 °C 6,4 km/h (2 Bft)
14.10.2016 08:34 8,0 °C 8,0 °C 97 % 1009,1 hPa 0,0 mm 2,9 km/h (1 Bft) N-NW 336 ° 0 min 0,000 mm 0,0 UV-I 47 W/m² 7,6 °C 6,4 km/h (2 Bft)
14.10.2016 08:35 8,2 °C 8,2 °C 97 % 1009,0 hPa 0,0 mm 1,7 km/h (1 Bft) NO 47 ° 0 min 0,000 mm 0,0 UV-I 49 W/m² 7,8 °C 3,2 km/h (1 Bft)
14.10.2016 08:36 8,3 °C 8,3 °C 97 % 1009,0 hPa 0,0 mm 1,8 km/h (1 Bft) NO 47 ° 0 min 0,000 mm 0,0 UV-I 49 W/m² 7,9 °C 3,2 km/h (1 Bft)
14.10.2016 08:37 8,4 °C 8,4 °C 97 % 1009,0 hPa 0,0 mm 1,3 km/h (1 Bft) NO 47 ° 0 min 0,000 mm 0,0 UV-I 51 W/m² 8,0 °C 3,2 km/h (1 Bft)
14.10.2016 08:38 8,5 °C 8,5 °C 92 % 1009,0 hPa 0,0 mm 0,7 km/h (0 Bft) NO 47 ° 0 min 0,000 mm 0,0 UV-I 51 W/m² 7,3 °C 1,6 km/h (1 Bft)
14.10.2016 08:39 8,6 °C 8,6 °C 92 % 1009,1 hPa 0,0 mm 1,9 km/h (1 Bft) NO 47 ° 0 min 0,000 mm 0,0 UV-I 53 W/m² 7,4 °C 3,2 km/h (1 Bft)
14.10.2016 08:40 8,6 °C 8,6 °C 91 % 1009,0 hPa 0,0 mm 0,8 km/h (0 Bft) NO 47 ° 0 min 0,000 mm 0,0 UV-I 53 W/m² 7,2 °C 1,6 km/h (1 Bft)
14.10.2016 08:41 8,6 °C 8,6 °C 90 % 1009,0 hPa 0,0 mm 1,8 km/h (1 Bft) NO 47 ° 0 min 0,000 mm 0,0 UV-I 53 W/m² 7,1 °C 4,8 km/h (1 Bft)
14.10.2016 08:42 8,7 °C 8,7 °C 90 % 1009,0 hPa 0,0 mm 3,5 km/h (1 Bft) O 96 ° 0 min 0,000 mm 0,0 UV-I 54 W/m² 7,2 °C 8,0 km/h (2 Bft)
14.10.2016 08:43 8,8 °C 8,8 °C 89 % 1009,0 hPa 0,0 mm 2,1 km/h (1 Bft) O 84 ° 0 min 0,000 mm 0,0 UV-I 54 W/m² 7,1 °C 4,8 km/h (1 Bft)
14.10.2016 08:44 9,0 °C 9,0 °C 88 % 1009,0 hPa 0,0 mm 3,0 km/h (1 Bft) NO 37 ° 0 min 0,000 mm 0,0 UV-I 56 W/m² 7,1 °C 6,4 km/h (2 Bft)
14.10.2016 08:45 9,1 °C 9,1 °C 88 % 1009,0 hPa 0,0 mm 2,1 km/h (1 Bft) O-NO 65 ° 0 min 0,000 mm 0,0 UV-I 58 W/m² 7,2 °C 4,8 km/h (1 Bft)
14.10.2016 08:46 9,2 °C 9,2 °C 87 % 1009,0 hPa 0,0 mm 1,2 km/h (1 Bft) O-NO 65 ° 0 min 0,000 mm 0,0 UV-I 58 W/m² 7,2 °C 3,2 km/h (1 Bft)
14.10.2016 08:47 9,3 °C 9,3 °C 87 % 1008,9 hPa 0,0 mm 0,9 km/h (0 Bft) O-NO 65 ° 0 min 0,000 mm 0,0 UV-I 62 W/m² 7,2 °C 3,2 km/h (1 Bft)
14.10.2016 08:48 9,4 °C 9,4 °C 86 % 1009,0 hPa 0,0 mm 2,6 km/h (1 Bft) N-NO 26 ° 0 min 0,000 mm 0,0 UV-I 62 W/m² 7,2 °C 4,8 km/h (1 Bft)
14.10.2016 08:49 9,6 °C 9,6 °C 84 % 1009,0 hPa 0,0 mm 1,2 km/h (1 Bft) N-NO 16 ° 0 min 0,000 mm 0,0 UV-I 62 W/m² 7,0 °C 3,2 km/h (1 Bft)
14.10.2016 08:50 9,6 °C 9,6 °C 84 % 1009,0 hPa 0,0 mm 2,1 km/h (1 Bft) N 11 ° 0 min 0,000 mm 0,0 UV-I 63 W/m² 7,0 °C 4,8 km/h (1 Bft)
14.10.2016 08:51 9,6 °C 9,7 °C 85 % 1009,1 hPa 0,0 mm 1,8 km/h (1 Bft) O 91 ° 0 min 0,000 mm 0,0 UV-I 63 W/m² 7,2 °C 3,2 km/h (1 Bft)
14.10.2016 08:52 9,6 °C 9,7 °C 85 % 1009,1 hPa 0,0 mm 1,1 km/h (1 Bft) O 96 ° 0 min 0,000 mm 0,0 UV-I 63 W/m² 7,2 °C 3,2 km/h (1 Bft)
14.10.2016 08:53 9,6 °C 9,6 °C 85 % 1009,1 hPa 0,0 mm 2,0 km/h (1 Bft) O 96 ° 0 min 0,000 mm 0,0 UV-I 65 W/m² 7,2 °C 3,2 km/h (1 Bft)
14.10.2016 08:54 9,6 °C 9,6 °C 85 % 1009,1 hPa 0,0 mm 2,3 km/h (1 Bft) N 10 ° 0 min 0,000 mm 0,0 UV-I 65 W/m² 7,2 °C 4,8 km/h (1 Bft)
14.10.2016 08:55 9,6 °C 9,6 °C 84 % 1009,0 hPa 0,0 mm 3,1 km/h (1 Bft) N 11 ° 0 min 0,000 mm 0,0 UV-I 67 W/m² 7,0 °C 6,4 km/h (2 Bft)
14.10.2016 08:56 9,7 °C 9,7 °C 85 % 1009,0 hPa 0,0 mm 1,2 km/h (1 Bft) O-NO 73 ° 0 min 0,000 mm 0,0 UV-I 69 W/m² 7,3 °C 1,6 km/h (1 Bft)
14.10.2016 08:57 9,6 °C 9,7 °C 84 % 1008,9 hPa 0,0 mm 5,6 km/h (1 Bft) O 97 ° 0 min 0,000 mm 0,0 UV-I 70 W/m² 7,0 °C 12,9 km/h (3 Bft)
14.10.2016 08:58 9,7 °C 9,7 °C 83 % 1009,0 hPa 0,0 mm 2,5 km/h (1 Bft) O-NO 61 ° 0 min 0,000 mm 0,0 UV-I 72 W/m² 7,0 °C 4,8 km/h (1 Bft)
14.10.2016 08:59 9,7 °C 9,7 °C 84 % 1009,0 hPa 0,0 mm 2,1 km/h (1 Bft) NO 37 ° 0 min 0,000 mm 0,0 UV-I 74 W/m² 7,1 °C 4,8 km/h (1 Bft)
14.10.2016 09:00 9,7 °C 9,7 °C 84 % 1009,0 hPa 0,0 mm 2,2 km/h (1 Bft) SO 132 ° 0 min 0,000 mm 0,5 UV-I 74 W/m² 7,1 °C 4,8 km/h (1 Bft)
14.10.2016 09:01 9,8 °C 9,8 °C 83 % 1009,1 hPa 0,0 mm 2,7 km/h (1 Bft) N 5 ° 0 min 0,025 mm 0,5 UV-I 76 W/m² 7,1 °C 4,8 km/h (1 Bft)
14.10.2016 09:02 9,9 °C 9,9 °C 84 % 1009,1 hPa 0,0 mm 1,3 km/h (1 Bft) N-NO 19 ° 0 min 0,000 mm 0,5 UV-I 77 W/m² 7,3 °C 4,8 km/h (1 Bft)
14.10.2016 09:03 10,0 °C 10,0 °C 82 % 1009,0 hPa 0,0 mm 2,1 km/h (1 Bft) N 355 ° 0 min 0,000 mm 0,5 UV-I 77 W/m² 7,1 °C 6,4 km/h (2 Bft)
14.10.2016 09:04 10,1 °C 10,1 °C 82 % 1009,1 hPa 0,0 mm 5,3 km/h (1 Bft) O-NO 57 ° 0 min 0,000 mm 0,5 UV-I 79 W/m² 7,2 °C 9,7 km/h (2 Bft)
14.10.2016 09:05 10,2 °C 10,2 °C 82 % 1009,1 hPa 0,0 mm 1,3 km/h (1 Bft) O-NO 57 ° 0 min 0,000 mm 0,5 UV-I 81 W/m² 7,3 °C 3,2 km/h (1 Bft)
14.10.2016 09:06 10,2 °C 10,2 °C 83 % 1009,0 hPa 0,0 mm 2,0 km/h (1 Bft) O-NO 58 ° 0 min 0,000 mm 0,5 UV-I 83 W/m² 7,4 °C 3,2 km/h (1 Bft)
14.10.2016 09:07 10,3 °C 10,3 °C 81 % 1009,1 hPa 0,0 mm 3,0 km/h (1 Bft) N-NW 329 ° 0 min 0,000 mm 0,5 UV-I 84 W/m² 7,2 °C 6,4 km/h (2 Bft)
14.10.2016 09:08 10,3 °C 10,3 °C 81 % 1009,1 hPa 0,0 mm 2,1 km/h (1 Bft) N-NW 329 ° 0 min 0,000 mm 0,5 UV-I 86 W/m² 7,2 °C 4,8 km/h (1 Bft)
14.10.2016 09:09 10,4 °C 10,4 °C 82 % 1009,1 hPa 0,0 mm 1,7 km/h (1 Bft) NW 325 ° 0 min 0,000 mm 0,5 UV-I 86 W/m² 7,5 °C 4,8 km/h (1 Bft)
14.10.2016 09:10 10,5 °C 10,5 °C 82 % 1009,1 hPa 0,0 mm 2,0 km/h (1 Bft) N-NW 342 ° 0 min 0,000 mm 0,5 UV-I 90 W/m² 7,6 °C 3,2 km/h (1 Bft)
14.10.2016 09:11 10,4 °C 10,5 °C 83 % 1009,1 hPa 0,0 mm 3,0 km/h (1 Bft) N-NO 20 ° 0 min 0,000 mm 0,5 UV-I 90 W/m² 7,6 °C 4,8 km/h (1 Bft)
14.10.2016 09:12 10,4 °C 10,4 °C 82 % 1009,0 hPa 0,0 mm 3,0 km/h (1 Bft) N-NW 335 ° 0 min 0,000 mm 0,5 UV-I 91 W/m² 7,5 °C 8,0 km/h (2 Bft)
14.10.2016 09:13 10,4 °C 10,4 °C 82 % 1009,0 hPa 0,0 mm 3,7 km/h (1 Bft) N-NW 337 ° 0 min 0,000 mm 0,6 UV-I 91 W/m² 7,5 °C 8,0 km/h (2 Bft)
14.10.2016 09:14 10,5 °C 10,5 °C 82 % 1009,1 hPa 0,0 mm 4,3 km/h (1 Bft) W-NW 295 ° 0 min 0,000 mm 0,6 UV-I 93 W/m² 7,6 °C 6,4 km/h (2 Bft)
14.10.2016 09:15 10,6 °C 10,6 °C 82 % 1009,0 hPa 0,0 mm 3,9 km/h (1 Bft) NW 321 ° 0 min 0,000 mm 0,6 UV-I 93 W/m² 7,7 °C 4,8 km/h (1 Bft)
14.10.2016 09:16 10,7 °C 10,7 °C 81 % 1009,0 hPa 0,0 mm 4,1 km/h (1 Bft) N 5 ° 0 min 0,000 mm 0,6 UV-I 95 W/m² 7,6 °C 4,8 km/h (1 Bft)
14.10.2016 09:17 10,8 °C 10,8 °C 82 % 1008,9 hPa 0,0 mm 5,7 km/h (1 Bft) O-NO 74 ° 0 min 0,000 mm 0,6 UV-I 97 W/m² 7,9 °C 12,9 km/h (3 Bft)
14.10.2016 09:18 10,8 °C 10,8 °C 82 % 1009,0 hPa 0,0 mm 3,0 km/h (1 Bft) N-NW 333 ° 0 min 0,000 mm 0,6 UV-I 97 W/m² 7,9 °C 8,0 km/h (2 Bft)
14.10.2016 09:19 11,1 °C 11,1 °C 79 % 1008,9 hPa 0,0 mm 4,2 km/h (1 Bft) N-NO 32 ° 0 min 0,000 mm 0,6 UV-I 98 W/m² 7,6 °C 14,5 km/h (3 Bft)
14.10.2016 09:20 11,2 °C 11,2 °C 78 % 1008,9 hPa 0,0 mm 0,9 km/h (0 Bft) N-NO 32 ° 0 min 0,000 mm 0,6 UV-I 100 W/m² 7,5 °C 1,6 km/h (1 Bft)
14.10.2016 09:21 11,3 °C 11,3 °C 80 % 1009,0 hPa 0,0 mm 3,1 km/h (1 Bft) NW 321 ° 0 min 0,000 mm 0,6 UV-I 102 W/m² 8,0 °C 4,8 km/h (1 Bft)
14.10.2016 09:22 11,3 °C 11,3 °C 79 % 1009,1 hPa 0,0 mm 4,0 km/h (1 Bft) W-NW 288 ° 0 min 0,000 mm 0,6 UV-I 105 W/m² 7,8 °C 8,0 km/h (2 Bft)
14.10.2016 09:23 11,5 °C 11,5 °C 77 % 1008,9 hPa 0,0 mm 4,7 km/h (1 Bft) N-NO 16 ° 0 min 0,000 mm 0,6 UV-I 107 W/m² 7,6 °C 8,0 km/h (2 Bft)
14.10.2016 09:24 11,6 °C 11,6 °C 78 % 1009,0 hPa 0,0 mm 1,9 km/h (1 Bft) N-NW 342 ° 0 min 0,000 mm 0,6 UV-I 109 W/m² 7,9 °C 3,2 km/h (1 Bft)
14.10.2016 09:25 11,6 °C 11,6 °C 80 % 1009,1 hPa 0,0 mm 1,9 km/h (1 Bft) N-NW 348 ° 0 min 0,000 mm 0,6 UV-I 111 W/m² 8,3 °C 3,2 km/h (1 Bft)
14.10.2016 09:26 11,5 °C 11,6 °C 80 % 1009,1 hPa 0,0 mm 5,7 km/h (1 Bft) W-SW 252 ° 0 min 0,000 mm 0,7 UV-I 113 W/m² 8,2 °C 8,0 km/h (2 Bft)
14.10.2016 09:27 11,6 °C 11,6 °C 78 % 1009,1 hPa 0,0 mm 3,8 km/h (1 Bft) S-SO 148 ° 0 min 0,000 mm 0,7 UV-I 113 W/m² 7,9 °C 9,7 km/h (2 Bft)
14.10.2016 09:28 11,6 °C 11,6 °C 81 % 1009,1 hPa 0,0 mm 0,7 km/h (0 Bft) S-SO 148 ° 0 min 0,000 mm 0,7 UV-I 116 W/m² 8,5 °C 1,6 km/h (1 Bft)
14.10.2016 09:29 11,6 °C 11,6 °C 78 % 1009,1 hPa 0,0 mm 0,5 km/h (0 Bft) S-SO 148 ° 0 min 0,000 mm 0,7 UV-I 116 W/m² 7,9 °C 1,6 km/h (1 Bft)
14.10.2016 09:30 11,6 °C 11,6 °C 79 % 1009,2 hPa 0,0 mm 2,3 km/h (1 Bft) W-NW 290 ° 0 min 0,000 mm 0,7 UV-I 118 W/m² 8,1 °C 6,4 km/h (2 Bft)
14.10.2016 09:31 11,6 °C 11,6 °C 79 % 1009,2 hPa 0,0 mm 1,8 km/h (1 Bft) W-SW 250 ° 0 min 0,000 mm 0,7 UV-I 118 W/m² 8,1 °C 3,2 km/h (1 Bft)
14.10.2016 09:32 11,6 °C 11,6 °C 76 % 1009,0 hPa 0,0 mm 3,2 km/h (1 Bft) O 86 ° 0 min 0,000 mm 0,7 UV-I 118 W/m² 7,5 °C 4,8 km/h (1 Bft)
14.10.2016 09:33 11,7 °C 11,7 °C 74 % 1009,2 hPa 0,0 mm 1,2 km/h (1 Bft) O 86 ° 0 min 0,000 mm 0,7 UV-I 118 W/m² 7,2 °C 3,2 km/h (1 Bft)
14.10.2016 09:34 11,8 °C 11,8 °C 78 % 1009,0 hPa 0,0 mm 2,7 km/h (1 Bft) N 5 ° 0 min 0,000 mm 0,7 UV-I 114 W/m² 8,1 °C 6,4 km/h (2 Bft)
14.10.2016 09:35 11,7 °C 11,8 °C 80 % 1009,0 hPa 0,0 mm 3,7 km/h (1 Bft) NO 42 ° 0 min 0,000 mm 0,7 UV-I 113 W/m² 8,4 °C 6,4 km/h (2 Bft)
14.10.2016 09:36 11,7 °C 11,7 °C 79 % 1009,1 hPa 0,0 mm 1,9 km/h (1 Bft) NO 40 ° 0 min 0,000 mm 0,7 UV-I 113 W/m² 8,2 °C 3,2 km/h (1 Bft)
14.10.2016 09:37 11,7 °C 11,7 °C 78 % 1009,0 hPa 0,0 mm 2,8 km/h (1 Bft) O-NO 64 ° 0 min 0,000 mm 0,7 UV-I 111 W/m² 8,0 °C 4,8 km/h (1 Bft)
14.10.2016 09:38 11,8 °C 11,8 °C 80 % 1009,1 hPa 0,0 mm 2,5 km/h (1 Bft) N-NO 20 ° 0 min 0,000 mm 0,7 UV-I 111 W/m² 8,5 °C 4,8 km/h (1 Bft)
14.10.2016 09:39 11,7 °C 11,8 °C 78 % 1009,1 hPa 0,0 mm 0,5 km/h (0 Bft) N-NO 20 ° 0 min 0,000 mm 0,7 UV-I 113 W/m² 8,0 °C 1,6 km/h (1 Bft)
14.10.2016 09:40 11,7 °C 11,8 °C 80 % 1009,1 hPa 0,0 mm 1,5 km/h (1 Bft) N-NO 17 ° 0 min 0,000 mm 0,7 UV-I 113 W/m² 8,4 °C 3,2 km/h (1 Bft)
14.10.2016 09:41 11,7 °C 11,7 °C 79 % 1009,0 hPa 0,0 mm 0,8 km/h (0 Bft) N-NO 17 ° 0 min 0,000 mm 0,7 UV-I 111 W/m² 8,2 °C 3,2 km/h (1 Bft)
14.10.2016 09:42 11,7 °C 11,7 °C 79 % 1009,0 hPa 0,0 mm 2,1 km/h (1 Bft) N-NW 344 ° 0 min 0,000 mm 0,7 UV-I 111 W/m² 8,2 °C 4,8 km/h (1 Bft)
14.10.2016 09:43 11,8 °C 11,8 °C 77 % 1009,0 hPa 0,0 mm 5,4 km/h (1 Bft) NW 309 ° 0 min 0,000 mm 0,7 UV-I 109 W/m² 7,9 °C 9,7 km/h (2 Bft)
14.10.2016 09:44 11,9 °C 11,9 °C 78 % 1008,9 hPa 0,0 mm 3,4 km/h (1 Bft) NW 319 ° 0 min 0,000 mm 0,7 UV-I 109 W/m² 8,2 °C 6,4 km/h (2 Bft)
14.10.2016 09:45 11,9 °C 11,9 °C 77 % 1008,8 hPa 0,0 mm 3,1 km/h (1 Bft) N-NW 346 ° 0 min 0,000 mm 0,7 UV-I 107 W/m² 8,0 °C 6,4 km/h (2 Bft)
14.10.2016 09:46 12,1 °C 12,1 °C 75 % 1008,8 hPa 0,0 mm 6,0 km/h (2 Bft) O-SO 113 ° 0 min 0,000 mm 0,7 UV-I 107 W/m² 7,8 °C 12,9 km/h (3 Bft)
14.10.2016 09:47 12,2 °C 12,2 °C 77 % 1008,7 hPa 0,0 mm 4,7 km/h (1 Bft) SO 130 ° 0 min 0,000 mm 0,7 UV-I 107 W/m² 8,3 °C 11,3 km/h (2 Bft)
14.10.2016 09:48 12,2 °C 12,2 °C 78 % 1008,7 hPa 0,0 mm 1,5 km/h (1 Bft) N-NW 347 ° 0 min 0,000 mm 0,7 UV-I 107 W/m² 8,5 °C 4,8 km/h (1 Bft)
14.10.2016 09:49 12,2 °C 12,2 °C 79 % 1008,8 hPa 0,0 mm 3,0 km/h (1 Bft) N-NW 346 ° 0 min 0,000 mm 0,7 UV-I 109 W/m² 8,7 °C 4,8 km/h (1 Bft)
14.10.2016 09:50 12,2 °C 12,2 °C 78 % 1008,7 hPa 0,0 mm 1,6 km/h (1 Bft) N-NW 346 ° 0 min 0,000 mm 0,7 UV-I 109 W/m² 8,5 °C 3,2 km/h (1 Bft)
14.10.2016 09:51 12,2 °C 12,2 °C 76 % 1008,7 hPa 0,0 mm 1,0 km/h (0 Bft) N-NW 346 ° 0 min 0,000 mm 0,7 UV-I 111 W/m² 8,1 °C 3,2 km/h (1 Bft)
14.10.2016 09:52 12,2 °C 12,2 °C 80 % 1008,7 hPa 0,0 mm 1,8 km/h (1 Bft) N 350 ° 0 min 0,000 mm 0,7 UV-I 113 W/m² 8,9 °C 3,2 km/h (1 Bft)
14.10.2016 09:53 12,2 °C 12,2 °C 77 % 1008,7 hPa 0,0 mm 1,9 km/h (1 Bft) N 355 ° 0 min 0,000 mm 0,7 UV-I 113 W/m² 8,3 °C 3,2 km/h (1 Bft)
14.10.2016 09:54 12,3 °C 12,3 °C 77 % 1008,8 hPa 0,0 mm 1,8 km/h (1 Bft) N-NW 338 ° 0 min 0,000 mm 0,7 UV-I 113 W/m² 8,4 °C 3,2 km/h (1 Bft)
14.10.2016 09:55 12,5 °C 12,5 °C 75 % 1008,9 hPa 0,0 mm 4,3 km/h (1 Bft) O-NO 65 ° 0 min 0,000 mm 0,7 UV-I 113 W/m² 8,2 °C 8,0 km/h (2 Bft)
14.10.2016 09:56 12,8 °C 12,8 °C 74 % 1008,9 hPa 0,0 mm 3,2 km/h (1 Bft) NW 304 ° 0 min 0,000 mm 0,7 UV-I 113 W/m² 8,3 °C 6,4 km/h (2 Bft)
14.10.2016 09:57 13,0 °C 13,0 °C 74 % 1008,9 hPa 0,0 mm 2,2 km/h (1 Bft) NW 315 ° 0 min 0,000 mm 0,7 UV-I 114 W/m² 8,5 °C 6,4 km/h (2 Bft)
14.10.2016 09:58 13,1 °C 13,1 °C 74 % 1008,9 hPa 0,0 mm 1,2 km/h (1 Bft) NW 315 ° 0 min 0,000 mm 0,7 UV-I 114 W/m² 8,6 °C 3,2 km/h (1 Bft)
14.10.2016 09:59 13,3 °C 13,3 °C 71 % 1008,9 hPa 0,0 mm 1,0 km/h (0 Bft) NW 315 ° 0 min 0,000 mm 0,8 UV-I 116 W/m² 8,2 °C 1,6 km/h (1 Bft)
14.10.2016 10:00 13,4 °C 13,4 °C 71 % 1008,8 hPa 0,0 mm 3,1 km/h (1 Bft) NW 314 ° 0 min 0,051 mm 0,8 UV-I 118 W/m² 8,3 °C 4,8 km/h (1 Bft)
14.10.2016 10:01 13,4 °C 13,4 °C 75 % 1008,8 hPa 0,0 mm 2,7 km/h (1 Bft) N 355 ° 0 min 0,000 mm 0,8 UV-I 120 W/m² 9,1 °C 4,8 km/h (1 Bft)
14.10.2016 10:02 13,2 °C 13,4 °C 75 % 1008,8 hPa 0,0 mm 3,8 km/h (1 Bft) N-NW 346 ° 0 min 0,000 mm 0,8 UV-I 121 W/m² 8,9 °C 6,4 km/h (2 Bft)
14.10.2016 10:03 13,2 °C 13,2 °C 75 % 1008,8 hPa 0,0 mm 2,8 km/h (1 Bft) NO 53 ° 0 min 0,000 mm 0,8 UV-I 121 W/m² 8,9 °C 6,4 km/h (2 Bft)
14.10.2016 10:04 13,3 °C 13,3 °C 74 % 1008,8 hPa 0,0 mm 3,4 km/h (1 Bft) SO 126 ° 0 min 0,000 mm 0,8 UV-I 120 W/m² 8,8 °C 4,8 km/h (1 Bft)
14.10.2016 10:05 13,2 °C 13,3 °C 78 % 1008,9 hPa 0,0 mm 3,7 km/h (1 Bft) NO 44 ° 0 min 0,000 mm 0,8 UV-I 121 W/m² 9,4 °C 4,8 km/h (1 Bft)
14.10.2016 10:06 13,2 °C 13,2 °C 75 % 1008,8 hPa 0,0 mm 1,5 km/h (1 Bft) NO 48 ° 0 min 0,000 mm 0,8 UV-I 121 W/m² 8,9 °C 3,2 km/h (1 Bft)
14.10.2016 10:07 13,3 °C 13,3 °C 71 % 1008,9 hPa 0,0 mm 1,5 km/h (1 Bft) NO 48 ° 0 min 0,000 mm 0,8 UV-I 121 W/m² 8,2 °C 3,2 km/h (1 Bft)
14.10.2016 10:08 13,3 °C 13,3 °C 74 % 1008,9 hPa 0,0 mm 3,2 km/h (1 Bft) N-NW 336 ° 0 min 0,000 mm 0,8 UV-I 121 W/m² 8,8 °C 6,4 km/h (2 Bft)
14.10.2016 10:09 13,4 °C 13,4 °C 74 % 1008,9 hPa 0,0 mm 2,7 km/h (1 Bft) SO 124 ° 0 min 0,000 mm 0,8 UV-I 121 W/m² 8,9 °C 3,2 km/h (1 Bft)
14.10.2016 10:10 13,7 °C 13,7 °C 70 % 1008,9 hPa 0,0 mm 2,6 km/h (1 Bft) O-SO 119 ° 0 min 0,000 mm 0,8 UV-I 121 W/m² 8,3 °C 4,8 km/h (1 Bft)
14.10.2016 10:11 14,2 °C 14,2 °C 65 % 1008,9 hPa 0,0 mm 2,7 km/h (1 Bft) O-SO 119 ° 0 min 0,000 mm 0,8 UV-I 121 W/m² 7,7 °C 4,8 km/h (1 Bft)
14.10.2016 10:12 14,2 °C 14,2 °C 66 % 1008,9 hPa 0,0 mm 1,5 km/h (1 Bft) O 83 ° 0 min 0,000 mm 0,7 UV-I 121 W/m² 7,9 °C 3,2 km/h (1 Bft)
14.10.2016 10:13 14,1 °C 14,2 °C 71 % 1008,9 hPa 0,0 mm 3,4 km/h (1 Bft) NO 55 ° 0 min 0,000 mm 0,8 UV-I 121 W/m² 8,9 °C 4,8 km/h (1 Bft)
14.10.2016 10:14 13,9 °C 14,1 °C 70 % 1008,9 hPa 0,0 mm 2,1 km/h (1 Bft) NO 55 ° 0 min 0,000 mm 0,8 UV-I 121 W/m² 8,5 °C 3,2 km/h (1 Bft)
14.10.2016 10:15 13,9 °C 13,9 °C 69 % 1008,9 hPa 0,0 mm 1,8 km/h (1 Bft) NO 55 ° 0 min 0,000 mm 0,8 UV-I 121 W/m² 8,3 °C 3,2 km/h (1 Bft)
14.10.2016 10:16 13,8 °C 13,9 °C 75 % 1008,9 hPa 0,0 mm 6,4 km/h (2 Bft) NO 42 ° 0 min 0,000 mm 0,8 UV-I 123 W/m² 9,4 °C 9,7 km/h (2 Bft)
14.10.2016 10:17 13,8 °C 13,8 °C 70 % 1008,8 hPa 0,0 mm 4,5 km/h (1 Bft) NO 42 ° 0 min 0,000 mm 0,8 UV-I 123 W/m² 8,4 °C 6,4 km/h (2 Bft)
14.10.2016 10:18 13,9 °C 13,9 °C 71 % 1008,8 hPa 0,0 mm 3,7 km/h (1 Bft) S-SO 162 ° 0 min 0,000 mm 0,8 UV-I 123 W/m² 8,7 °C 6,4 km/h (2 Bft)
14.10.2016 10:19 14,1 °C 14,1 °C 69 % 1008,8 hPa 0,0 mm 0,3 km/h (0 Bft) S-SO 162 ° 0 min 0,000 mm 0,8 UV-I 125 W/m² 8,5 °C 1,6 km/h (1 Bft)
14.10.2016 10:20 14,1 °C 14,1 °C 73 % 1008,8 hPa 0,0 mm 1,3 km/h (1 Bft) SO 141 ° 0 min 0,000 mm 0,8 UV-I 130 W/m² 9,3 °C 3,2 km/h (1 Bft)
14.10.2016 10:21 14,1 °C 14,1 °C 71 % 1008,8 hPa 0,0 mm 0,6 km/h (0 Bft) SO 141 ° 0 min 0,000 mm 0,8 UV-I 132 W/m² 8,9 °C 1,6 km/h (1 Bft)
14.10.2016 10:22 14,0 °C 14,1 °C 72 % 1008,8 hPa 0,0 mm 2,1 km/h (1 Bft) O-NO 74 ° 0 min 0,000 mm 0,9 UV-I 135 W/m² 9,0 °C 4,8 km/h (1 Bft)
14.10.2016 10:23 13,9 °C 14,0 °C 74 % 1008,8 hPa 0,0 mm 6,5 km/h (2 Bft) O-NO 57 ° 0 min 0,000 mm 0,9 UV-I 139 W/m² 9,3 °C 9,7 km/h (2 Bft)
14.10.2016 10:24 13,8 °C 13,9 °C 71 % 1008,8 hPa 0,0 mm 2,6 km/h (1 Bft) S 169 ° 0 min 0,000 mm 0,9 UV-I 141 W/m² 8,6 °C 4,8 km/h (1 Bft)
14.10.2016 10:25 13,8 °C 13,8 °C 69 % 1008,8 hPa 0,0 mm 4,8 km/h (1 Bft) O 94 ° 0 min 0,000 mm 0,9 UV-I 144 W/m² 8,2 °C 9,7 km/h (2 Bft)
14.10.2016 10:26 13,9 °C 13,9 °C 74 % 1008,7 hPa 0,0 mm 6,0 km/h (2 Bft) O 96 ° 0 min 0,000 mm 0,9 UV-I 148 W/m² 9,3 °C 8,0 km/h (2 Bft)
14.10.2016 10:27 13,9 °C 13,9 °C 72 % 1008,7 hPa 0,0 mm 2,4 km/h (1 Bft) O 99 ° 0 min 0,000 mm 0,9 UV-I 149 W/m² 8,9 °C 6,4 km/h (2 Bft)
14.10.2016 10:28 13,9 °C 14,0 °C 73 % 1008,7 hPa 0,0 mm 4,7 km/h (1 Bft) O 85 ° 0 min 0,000 mm 1,0 UV-I 149 W/m² 9,1 °C 6,4 km/h (2 Bft)
14.10.2016 10:29 14,1 °C 14,1 °C 72 % 1008,7 hPa 0,0 mm 8,7 km/h (2 Bft) S-SO 163 ° 0 min 0,000 mm 1,0 UV-I 149 W/m² 9,1 °C 12,9 km/h (3 Bft)
14.10.2016 10:30 14,2 °C 14,2 °C 72 % 1008,7 hPa 0,0 mm 8,9 km/h (2 Bft) NO 50 ° 0 min 0,000 mm 1,0 UV-I 151 W/m² 9,2 °C 17,7 km/h (3 Bft)
14.10.2016 10:31 14,6 °C 14,6 °C 64 % 1008,6 hPa 0,0 mm 6,3 km/h (2 Bft) SO 129 ° 0 min 0,000 mm 1,0 UV-I 151 W/m² 7,9 °C 9,7 km/h (2 Bft)
14.10.2016 10:32 14,8 °C 14,8 °C 62 % 1008,7 hPa 0,0 mm 3,9 km/h (1 Bft) W-NW 298 ° 0 min 0,000 mm 1,0 UV-I 153 W/m² 7,6 °C 6,4 km/h (2 Bft)
14.10.2016 10:33 14,9 °C 15,0 °C 65 % 1008,6 hPa 0,0 mm 5,5 km/h (1 Bft) O 96 ° 0 min 0,000 mm 1,0 UV-I 155 W/m² 8,4 °C 8,0 km/h (2 Bft)
14.10.2016 10:34 14,9 °C 14,9 °C 66 % 1008,6 hPa 0,0 mm 3,6 km/h (1 Bft) N 10 ° 0 min 0,000 mm 1,0 UV-I 155 W/m² 8,6 °C 4,8 km/h (1 Bft)
14.10.2016 10:35 15,0 °C 15,0 °C 63 % 1008,6 hPa 0,0 mm 4,9 km/h (1 Bft) O-NO 65 ° 0 min 0,000 mm 1,0 UV-I 156 W/m² 8,0 °C 9,7 km/h (2 Bft)
14.10.2016 10:36 15,1 °C 15,1 °C 61 % 1008,5 hPa 0,0 mm 8,2 km/h (2 Bft) O 92 ° 0 min 0,000 mm 1,0 UV-I 158 W/m² 7,6 °C 11,3 km/h (2 Bft)
14.10.2016 10:37 15,2 °C 15,2 °C 65 % 1008,6 hPa 0,0 mm 3,2 km/h (1 Bft) W 278 ° 0 min 0,000 mm 1,0 UV-I 158 W/m² 8,7 °C 6,4 km/h (2 Bft)
14.10.2016 10:38 15,3 °C 15,3 °C 60 % 1008,6 hPa 0,0 mm 2,5 km/h (1 Bft) N 355 ° 0 min 0,000 mm 1,0 UV-I 163 W/m² 7,6 °C 3,2 km/h (1 Bft)
14.10.2016 10:39 15,4 °C 15,4 °C 61 % 1008,5 hPa 0,0 mm 2,8 km/h (1 Bft) W 262 ° 0 min 0,000 mm 1,0 UV-I 165 W/m² 7,9 °C 6,4 km/h (2 Bft)
14.10.2016 10:40 15,4 °C 15,4 °C 62 % 1008,6 hPa 0,0 mm 3,6 km/h (1 Bft) W-NW 284 ° 0 min 0,000 mm 1,0 UV-I 165 W/m² 8,2 °C 6,4 km/h (2 Bft)
14.10.2016 10:41 15,3 °C 15,4 °C 65 % 1008,6 hPa 0,0 mm 4,6 km/h (1 Bft) O-NO 68 ° 0 min 0,000 mm 1,1 UV-I 167 W/m² 8,8 °C 9,7 km/h (2 Bft)
14.10.2016 10:42 15,2 °C 15,3 °C 65 % 1008,7 hPa 0,0 mm 1,9 km/h (1 Bft) O-NO 68 ° 0 min 0,000 mm 1,1 UV-I 169 W/m² 8,7 °C 3,2 km/h (1 Bft)
14.10.2016 10:43 15,1 °C 15,2 °C 65 % 1008,7 hPa 0,0 mm 2,3 km/h (1 Bft) N-NO 25 ° 0 min 0,000 mm 1,1 UV-I 169 W/m² 8,6 °C 4,8 km/h (1 Bft)
14.10.2016 10:44 14,9 °C 15,1 °C 68 % 1008,8 hPa 0,0 mm 1,7 km/h (1 Bft) N-NO 25 ° 0 min 0,000 mm 1,1 UV-I 171 W/m² 9,0 °C 3,2 km/h (1 Bft)
14.10.2016 10:45 14,9 °C 14,9 °C 63 % 1008,7 hPa 0,0 mm 1,4 km/h (1 Bft) N-NO 25 ° 0 min 0,000 mm 1,1 UV-I 171 W/m² 7,9 °C 3,2 km/h (1 Bft)
14.10.2016 10:46 14,8 °C 14,9 °C 69 % 1008,8 hPa 0,0 mm 3,3 km/h (1 Bft) NO 38 ° 0 min 0,000 mm 1,1 UV-I 171 W/m² 9,2 °C 6,4 km/h (2 Bft)
14.10.2016 10:47 14,7 °C 14,8 °C 69 % 1008,7 hPa 0,0 mm 5,0 km/h (1 Bft) O-SO 122 ° 0 min 0,000 mm 1,1 UV-I 171 W/m² 9,1 °C 8,0 km/h (2 Bft)
14.10.2016 10:48 14,7 °C 14,7 °C 69 % 1008,8 hPa 0,0 mm 2,5 km/h (1 Bft) O-NO 62 ° 0 min 0,000 mm 1,1 UV-I 171 W/m² 9,1 °C 4,8 km/h (1 Bft)
14.10.2016 10:49 14,8 °C 14,8 °C 66 % 1008,8 hPa 0,0 mm 2,5 km/h (1 Bft) O-NO 59 ° 0 min 0,000 mm 1,1 UV-I 171 W/m² 8,5 °C 3,2 km/h (1 Bft)
14.10.2016 10:50 14,8 °C 14,8 °C 67 % 1008,8 hPa 0,0 mm 2,0 km/h (1 Bft) O-NO 59 ° 0 min 0,000 mm 1,1 UV-I 172 W/m² 8,7 °C 3,2 km/h (1 Bft)
14.10.2016 10:51 14,8 °C 14,8 °C 66 % 1008,8 hPa 0,0 mm 2,8 km/h (1 Bft) O-NO 67 ° 0 min 0,000 mm 1,1 UV-I 172 W/m² 8,5 °C 4,8 km/h (1 Bft)
14.10.2016 10:52 14,7 °C 14,8 °C 68 % 1008,7 hPa 0,0 mm 2,5 km/h (1 Bft) O-NO 67 ° 0 min 0,000 mm 1,1 UV-I 174 W/m² 8,9 °C 3,2 km/h (1 Bft)
14.10.2016 10:53 14,6 °C 14,7 °C 70 % 1008,7 hPa 0,0 mm 2,3 km/h (1 Bft) O-NO 66 ° 0 min 0,000 mm 1,1 UV-I 176 W/m² 9,2 °C 4,8 km/h (1 Bft)
14.10.2016 10:54 14,5 °C 14,6 °C 73 % 1008,6 hPa 0,0 mm 0,0 km/h (0 Bft) O-NO 66 ° 0 min 0,000 mm 1,1 UV-I 176 W/m² 9,7 °C 0,0 km/h (0 Bft)
14.10.2016 10:55 14,4 °C 14,5 °C 73 % 1008,6 hPa 0,0 mm 0,5 km/h (0 Bft) O-NO 66 ° 0 min 0,000 mm 1,2 UV-I 178 W/m² 9,6 °C 1,6 km/h (1 Bft)
14.10.2016 10:56 14,4 °C 14,4 °C 74 % 1008,6 hPa 0,0 mm 0,7 km/h (0 Bft) O-NO 66 ° 0 min 0,000 mm 1,2 UV-I 179 W/m² 9,8 °C 1,6 km/h (1 Bft)
14.10.2016 10:57 14,4 °C 14,4 °C 68 % 1008,7 hPa 0,0 mm 1,7 km/h (1 Bft) N 5 ° 0 min 0,000 mm 1,2 UV-I 181 W/m² 8,6 °C 4,8 km/h (1 Bft)
14.10.2016 10:58 14,3 °C 14,4 °C 72 % 1008,8 hPa 0,0 mm 1,9 km/h (1 Bft) O-NO 76 ° 0 min 0,000 mm 1,2 UV-I 181 W/m² 9,3 °C 3,2 km/h (1 Bft)
14.10.2016 10:59 14,3 °C 14,4 °C 71 % 1008,9 hPa 0,0 mm 0,2 km/h (0 Bft) O-NO 76 ° 0 min 0,000 mm 1,2 UV-I 183 W/m² 9,1 °C 1,6 km/h (1 Bft)
14.10.2016 11:00 14,3 °C 14,3 °C 69 % 1008,9 hPa 0,0 mm 2,7 km/h (1 Bft) O-NO 68 ° 0 min 0,000 mm 1,2 UV-I 183 W/m² 8,7 °C 3,2 km/h (1 Bft)
14.10.2016 11:01 14,5 °C 14,5 °C 66 % 1008,9 hPa 0,0 mm 1,5 km/h (1 Bft) O-NO 68 ° 0 min 0,102 mm 1,2 UV-I 183 W/m² 8,2 °C 3,2 km/h (1 Bft)
14.10.2016 11:02 14,8 °C 14,8 °C 65 % 1009,0 hPa 0,0 mm 4,6 km/h (1 Bft) SW 223 ° 0 min 0,000 mm 1,2 UV-I 183 W/m² 8,3 °C 9,7 km/h (2 Bft)
14.10.2016 11:03 14,9 °C 14,9 °C 67 % 1009,0 hPa 0,0 mm 5,5 km/h (1 Bft) S-SW 192 ° 0 min 0,000 mm 1,2 UV-I 183 W/m² 8,8 °C 9,7 km/h (2 Bft)
14.10.2016 11:04 15,1 °C 15,1 °C 65 % 1009,0 hPa 0,0 mm 4,0 km/h (1 Bft) S-SW 213 ° 0 min 0,000 mm 1,3 UV-I 183 W/m² 8,6 °C 6,4 km/h (2 Bft)
14.10.2016 11:05 15,0 °C 15,1 °C 70 % 1009,0 hPa 0,0 mm 0,8 km/h (0 Bft) W 267 ° 0 min 0,000 mm 1,3 UV-I 183 W/m² 9,6 °C 1,6 km/h (1 Bft)
14.10.2016 11:06 14,8 °C 15,0 °C 70 % 1009,0 hPa 0,0 mm 4,2 km/h (1 Bft) S-SW 205 ° 0 min 0,000 mm 1,3 UV-I 181 W/m² 9,4 °C 6,4 km/h (2 Bft)
14.10.2016 11:07 14,7 °C 14,8 °C 69 % 1008,9 hPa 0,0 mm 3,8 km/h (1 Bft) W-SW 246 ° 0 min 0,000 mm 1,3 UV-I 181 W/m² 9,1 °C 8,0 km/h (2 Bft)
14.10.2016 11:08 14,7 °C 14,7 °C 67 % 1008,9 hPa 0,0 mm 1,7 km/h (1 Bft) W-SW 237 ° 0 min 0,000 mm 1,3 UV-I 179 W/m² 8,6 °C 3,2 km/h (1 Bft)
14.10.2016 11:09 14,7 °C 14,7 °C 69 % 1008,7 hPa 0,0 mm 1,9 km/h (1 Bft) S-SW 210 ° 0 min 0,000 mm 1,3 UV-I 179 W/m² 9,1 °C 4,8 km/h (1 Bft)
14.10.2016 11:10 14,7 °C 14,7 °C 69 % 1008,7 hPa 0,0 mm 2,0 km/h (1 Bft) O-NO 65 ° 0 min 0,000 mm 1,2 UV-I 178 W/m² 9,1 °C 6,4 km/h (2 Bft)
14.10.2016 11:11 14,6 °C 14,7 °C 70 % 1008,7 hPa 0,0 mm 1,2 km/h (1 Bft) O-NO 59 ° 0 min 0,000 mm 1,2 UV-I 176 W/m² 9,2 °C 3,2 km/h (1 Bft)
14.10.2016 11:12 14,6 °C 14,7 °C 72 % 1008,7 hPa 0,0 mm 2,3 km/h (1 Bft) N-NW 343 ° 0 min 0,000 mm 1,2 UV-I 174 W/m² 9,6 °C 4,8 km/h (1 Bft)
14.10.2016 11:13 14,7 °C 14,7 °C 72 % 1008,7 hPa 0,0 mm 1,3 km/h (1 Bft) N 350 ° 0 min 0,000 mm 1,2 UV-I 169 W/m² 9,7 °C 3,2 km/h (1 Bft)
14.10.2016 11:14 14,7 °C 14,7 °C 67 % 1008,6 hPa 0,0 mm 2,6 km/h (1 Bft) N 355 ° 0 min 0,000 mm 1,2 UV-I 167 W/m² 8,6 °C 4,8 km/h (1 Bft)
14.10.2016 11:15 14,6 °C 14,7 °C 70 % 1008,6 hPa 0,0 mm 3,1 km/h (1 Bft) N-NO 22 ° 0 min 0,000 mm 1,2 UV-I 163 W/m² 9,2 °C 6,4 km/h (2 Bft)
14.10.2016 11:16 14,6 °C 14,6 °C 72 % 1008,5 hPa 0,0 mm 0,7 km/h (0 Bft) N-NO 22 ° 0 min 0,000 mm 1,2 UV-I 162 W/m² 9,6 °C 1,6 km/h (1 Bft)
14.10.2016 11:17 14,6 °C 14,6 °C 72 % 1008,6 hPa 0,0 mm 1,6 km/h (1 Bft) N-NO 30 ° 0 min 0,000 mm 1,1 UV-I 160 W/m² 9,6 °C 3,2 km/h (1 Bft)
14.10.2016 11:18 14,7 °C 14,7 °C 68 % 1008,6 hPa 0,0 mm 2,3 km/h (1 Bft) N-NO 13 ° 0 min 0,000 mm 1,1 UV-I 158 W/m² 8,9 °C 6,4 km/h (2 Bft)
14.10.2016 11:19 14,7 °C 14,7 °C 73 % 1008,5 hPa 0,0 mm 1,5 km/h (1 Bft) O 93 ° 0 min 0,000 mm 1,1 UV-I 155 W/m² 9,9 °C 3,2 km/h (1 Bft)
14.10.2016 11:20 14,6 °C 14,7 °C 71 % 1008,5 hPa 0,0 mm 0,3 km/h (0 Bft) O 93 ° 0 min 0,000 mm 1,1 UV-I 153 W/m² 9,4 °C 1,6 km/h (1 Bft)
14.10.2016 11:21 14,6 °C 14,6 °C 74 % 1008,4 hPa 0,0 mm 0,8 km/h (0 Bft) O 93 ° 0 min 0,000 mm 1,1 UV-I 151 W/m² 10,0 °C 3,2 km/h (1 Bft)
14.10.2016 11:22 14,5 °C 14,6 °C 70 % 1008,4 hPa 0,0 mm 0,9 km/h (0 Bft) O 93 ° 0 min 0,000 mm 1,1 UV-I 149 W/m² 9,1 °C 1,6 km/h (1 Bft)
14.10.2016 11:23 14,6 °C 14,6 °C 66 % 1008,3 hPa 0,0 mm 0,0 km/h (0 Bft) O 93 ° 0 min 0,000 mm 1,0 UV-I 148 W/m² 8,3 °C 0,0 km/h (0 Bft)
14.10.2016 11:24 14,7 °C 14,7 °C 72 % 1008,3 hPa 0,0 mm 0,7 km/h (0 Bft) NO 40 ° 0 min 0,000 mm 1,0 UV-I 146 W/m² 9,7 °C 3,2 km/h (1 Bft)
14.10.2016 11:25 14,7 °C 14,7 °C 70 % 1008,3 hPa 0,0 mm 1,4 km/h (1 Bft) NO 40 ° 0 min 0,000 mm 1,0 UV-I 148 W/m² 9,3 °C 1,6 km/h (1 Bft)
14.10.2016 11:26 14,7 °C 14,7 °C 71 % 1008,5 hPa 0,0 mm 1,7 km/h (1 Bft) NO 41 ° 0 min 0,000 mm 1,0 UV-I 148 W/m² 9,5 °C 3,2 km/h (1 Bft)
14.10.2016 11:27 14,6 °C 14,7 °C 70 % 1008,5 hPa 0,0 mm 1,9 km/h (1 Bft) NO 41 ° 0 min 0,000 mm 1,1 UV-I 149 W/m² 9,2 °C 3,2 km/h (1 Bft)
14.10.2016 11:28 14,6 °C 14,6 °C 70 % 1008,5 hPa 0,0 mm 1,1 km/h (1 Bft) NO 41 ° 0 min 0,000 mm 1,1 UV-I 153 W/m² 9,2 °C 3,2 km/h (1 Bft)
14.10.2016 11:29 14,7 °C 14,7 °C 70 % 1008,4 hPa 0,0 mm 0,5 km/h (0 Bft) NO 41 ° 0 min 0,000 mm 1,1 UV-I 156 W/m² 9,3 °C 1,6 km/h (1 Bft)
14.10.2016 11:30 14,7 °C 14,7 °C 72 % 1008,4 hPa 0,0 mm 1,5 km/h (1 Bft) NO 41 ° 0 min 0,000 mm 1,1 UV-I 160 W/m² 9,7 °C 3,2 km/h (1 Bft)
14.10.2016 11:31 14,7 °C 14,7 °C 69 % 1008,4 hPa 0,0 mm 0,7 km/h (0 Bft) NO 41 ° 0 min 0,000 mm 1,1 UV-I 169 W/m² 9,1 °C 1,6 km/h (1 Bft)
14.10.2016 11:32 14,6 °C 14,7 °C 72 % 1008,4 hPa 0,0 mm 2,7 km/h (1 Bft) O-NO 74 ° 0 min 0,000 mm 1,2 UV-I 172 W/m² 9,6 °C 4,8 km/h (1 Bft)
14.10.2016 11:33 14,5 °C 14,6 °C 73 % 1008,4 hPa 0,0 mm 2,1 km/h (1 Bft) NO 44 ° 0 min 0,000 mm 1,2 UV-I 176 W/m² 9,7 °C 3,2 km/h (1 Bft)
14.10.2016 11:34 14,6 °C 14,6 °C 72 % 1008,5 hPa 0,0 mm 1,0 km/h (0 Bft) NO 45 ° 0 min 0,000 mm 1,2 UV-I 179 W/m² 9,6 °C 3,2 km/h (1 Bft)
14.10.2016 11:35 14,6 °C 14,6 °C 70 % 1008,4 hPa 0,0 mm 3,5 km/h (1 Bft) NO 38 ° 0 min 0,000 mm 1,3 UV-I 181 W/m² 9,2 °C 9,7 km/h (2 Bft)
14.10.2016 11:36 14,6 °C 14,6 °C 68 % 1008,4 hPa 0,0 mm 3,2 km/h (1 Bft) O 86 ° 0 min 0,000 mm 1,3 UV-I 186 W/m² 8,8 °C 8,0 km/h (2 Bft)
14.10.2016 11:37 14,7 °C 14,7 °C 73 % 1008,4 hPa 0,0 mm 2,5 km/h (1 Bft) O 92 ° 0 min 0,000 mm 1,3 UV-I 186 W/m² 9,9 °C 4,8 km/h (1 Bft)
14.10.2016 11:38 14,7 °C 14,7 °C 73 % 1008,4 hPa 0,0 mm 2,4 km/h (1 Bft) O-SO 104 ° 0 min 0,000 mm 1,3 UV-I 186 W/m² 9,9 °C 4,8 km/h (1 Bft)
14.10.2016 11:39 14,7 °C 14,7 °C 73 % 1008,4 hPa 0,0 mm 1,3 km/h (1 Bft) O-SO 104 ° 0 min 0,000 mm 1,3 UV-I 185 W/m² 9,9 °C 3,2 km/h (1 Bft)
14.10.2016 11:40 14,9 °C 14,9 °C 70 % 1008,4 hPa 0,0 mm 1,2 km/h (1 Bft) O-SO 103 ° 0 min 0,000 mm 1,3 UV-I 183 W/m² 9,5 °C 3,2 km/h (1 Bft)
14.10.2016 11:41 14,9 °C 14,9 °C 72 % 1008,4 hPa 0,0 mm 1,0 km/h (0 Bft) O-SO 104 ° 0 min 0,000 mm 1,3 UV-I 181 W/m² 9,9 °C 1,6 km/h (1 Bft)
14.10.2016 11:42 14,9 °C 14,9 °C 73 % 1008,4 hPa 0,0 mm 1,2 km/h (1 Bft) NW 314 ° 0 min 0,000 mm 1,3 UV-I 179 W/m² 10,1 °C 6,4 km/h (2 Bft)
14.10.2016 11:43 14,8 °C 14,9 °C 69 % 1008,3 hPa 0,0 mm 3,4 km/h (1 Bft) O 94 ° 0 min 0,000 mm 1,3 UV-I 179 W/m² 9,2 °C 6,4 km/h (2 Bft)
14.10.2016 11:44 14,9 °C 14,9 °C 67 % 1008,3 hPa 0,0 mm 0,7 km/h (0 Bft) O 94 ° 0 min 0,000 mm 1,3 UV-I 179 W/m² 8,8 °C 1,6 km/h (1 Bft)
14.10.2016 11:45 14,9 °C 15,0 °C 70 % 1008,3 hPa 0,0 mm 1,1 km/h (1 Bft) O 94 ° 0 min 0,000 mm 1,3 UV-I 179 W/m² 9,5 °C 3,2 km/h (1 Bft)
14.10.2016 11:46 14,9 °C 14,9 °C 69 % 1008,2 hPa 0,0 mm 3,1 km/h (1 Bft) O-NO 61 ° 0 min 0,000 mm 1,3 UV-I 179 W/m² 9,3 °C 4,8 km/h (1 Bft)
14.10.2016 11:47 14,8 °C 14,9 °C 67 % 1008,3 hPa 0,0 mm 3,2 km/h (1 Bft) O-NO 74 ° 0 min 0,000 mm 1,3 UV-I 179 W/m² 8,7 °C 4,8 km/h (1 Bft)
14.10.2016 11:48 14,9 °C 14,9 °C 74 % 1008,2 hPa 0,0 mm 1,5 km/h (1 Bft) O-NO 74 ° 0 min 0,000 mm 1,3 UV-I 178 W/m² 10,3 °C 3,2 km/h (1 Bft)
14.10.2016 11:49 14,9 °C 14,9 °C 72 % 1008,2 hPa 0,0 mm 2,1 km/h (1 Bft) O-NO 74 ° 0 min 0,000 mm 1,3 UV-I 176 W/m² 9,9 °C 3,2 km/h (1 Bft)
14.10.2016 11:50 14,9 °C 14,9 °C 70 % 1008,3 hPa 0,0 mm 3,8 km/h (1 Bft) O-SO 104 ° 0 min 0,000 mm 1,3 UV-I 172 W/m² 9,5 °C 6,4 km/h (2 Bft)
14.10.2016 11:51 15,0 °C 15,0 °C 70 % 1008,3 hPa 0,0 mm 3,8 km/h (1 Bft) O 86 ° 0 min 0,000 mm 1,3 UV-I 171 W/m² 9,6 °C 4,8 km/h (1 Bft)
14.10.2016 11:52 14,9 °C 15,0 °C 73 % 1008,3 hPa 0,0 mm 6,4 km/h (2 Bft) O-NO 57 ° 0 min 0,000 mm 1,3 UV-I 169 W/m² 10,1 °C 9,7 km/h (2 Bft)
14.10.2016 11:53 14,8 °C 14,9 °C 73 % 1008,3 hPa 0,0 mm 4,7 km/h (1 Bft) O-NO 69 ° 0 min 0,000 mm 1,3 UV-I 165 W/m² 10,0 °C 6,4 km/h (2 Bft)
14.10.2016 11:54 14,8 °C 14,8 °C 73 % 1008,4 hPa 0,0 mm 5,1 km/h (1 Bft) O-NO 73 ° 0 min 0,000 mm 1,2 UV-I 162 W/m² 10,0 °C 6,4 km/h (2 Bft)
14.10.2016 11:55 14,7 °C 14,8 °C 75 % 1008,5 hPa 0,0 mm 4,3 km/h (1 Bft) O 85 ° 0 min 0,000 mm 1,2 UV-I 160 W/m² 10,3 °C 6,4 km/h (2 Bft)
14.10.2016 11:56 14,8 °C 14,8 °C 69 % 1008,4 hPa 0,0 mm 2,2 km/h (1 Bft) O 85 ° 0 min 0,000 mm 1,2 UV-I 160 W/m² 9,2 °C 3,2 km/h (1 Bft)
14.10.2016 11:57 14,9 °C 14,9 °C 68 % 1008,3 hPa 0,0 mm 3,8 km/h (1 Bft) O 92 ° 0 min 0,000 mm 1,2 UV-I 160 W/m² 9,0 °C 4,8 km/h (1 Bft)
14.10.2016 11:58 14,9 °C 14,9 °C 70 % 1008,3 hPa 0,0 mm 5,0 km/h (1 Bft) NO 56 ° 0 min 0,000 mm 1,2 UV-I 158 W/m² 9,5 °C 8,0 km/h (2 Bft)
14.10.2016 11:59 14,9 °C 14,9 °C 70 % 1008,3 hPa 0,0 mm 3,5 km/h (1 Bft) O-NO 71 ° 0 min 0,000 mm 1,2 UV-I 156 W/m² 9,5 °C 6,4 km/h (2 Bft)
14.10.2016 12:00 15,1 °C 15,1 °C 70 % 1008,3 hPa 0,0 mm 2,6 km/h (1 Bft) O-NO 71 ° 0 min 0,000 mm 1,2 UV-I 130 W/m² 9,7 °C 3,2 km/h (1 Bft)
14.10.2016 12:01 15,2 °C 15,2 °C 67 % 1008,4 hPa 0,0 mm 2,9 km/h (1 Bft) O-NO 71 ° 0 min 0,101 mm 1,2 UV-I 121 W/m² 9,1 °C 4,8 km/h (1 Bft)
14.10.2016 12:02 15,2 °C 15,2 °C 68 % 1008,4 hPa 0,0 mm 2,3 km/h (1 Bft) O-NO 71 ° 0 min 0,000 mm 1,1 UV-I 146 W/m² 9,3 °C 4,8 km/h (1 Bft)
14.10.2016 12:03 15,3 °C 15,3 °C 67 % 1008,4 hPa 0,0 mm 0,8 km/h (0 Bft) O-NO 71 ° 0 min 0,000 mm 1,1 UV-I 142 W/m² 9,2 °C 1,6 km/h (1 Bft)
14.10.2016 12:04 15,4 °C 15,4 °C 70 % 1008,3 hPa 0,0 mm 0,9 km/h (0 Bft) O-NO 71 ° 0 min 0,000 mm 1,1 UV-I 139 W/m² 10,0 °C 3,2 km/h (1 Bft)
14.10.2016 12:05 15,3 °C 15,4 °C 74 % 1008,3 hPa 0,0 mm 0,6 km/h (0 Bft) O-NO 71 ° 0 min 0,000 mm 1,1 UV-I 135 W/m² 10,7 °C 1,6 km/h (1 Bft)
14.10.2016 12:06 15,3 °C 15,3 °C 68 % 1008,3 hPa 0,0 mm 0,6 km/h (0 Bft) O-NO 71 ° 0 min 0,000 mm 1,0 UV-I 128 W/m² 9,4 °C 1,6 km/h (1 Bft)
14.10.2016 12:07 15,4 °C 15,4 °C 66 % 1008,3 hPa 0,0 mm 1,5 km/h (1 Bft) O-NO 71 ° 0 min 0,000 mm 1,0 UV-I 125 W/m² 9,1 °C 3,2 km/h (1 Bft)
14.10.2016 12:08 15,4 °C 15,4 °C 72 % 1008,2 hPa 0,0 mm 2,2 km/h (1 Bft) O-NO 71 ° 0 min 0,000 mm 1,0 UV-I 121 W/m² 10,4 °C 3,2 km/h (1 Bft)
14.10.2016 12:09 15,4 °C 15,4 °C 68 % 1008,1 hPa 0,0 mm 0,9 km/h (0 Bft) O-NO 71 ° 0 min 0,000 mm 0,9 UV-I 118 W/m² 9,5 °C 3,2 km/h (1 Bft)
14.10.2016 12:10 15,4 °C 15,4 °C 67 % 1008,2 hPa 0,0 mm 1,3 km/h (1 Bft) O-NO 71 ° 0 min 0,000 mm 0,9 UV-I 116 W/m² 9,3 °C 3,2 km/h (1 Bft)
14.10.2016 12:11 15,3 °C 15,4 °C 72 % 1008,1 hPa 0,0 mm 0,3 km/h (0 Bft) O-NO 71 ° 0 min 0,000 mm 0,9 UV-I 114 W/m² 10,3 °C 1,6 km/h (1 Bft)
14.10.2016 12:12 15,2 °C 15,3 °C 72 % 1008,1 hPa 0,0 mm 2,5 km/h (1 Bft) O-NO 71 ° 0 min 0,000 mm 0,9 UV-I 113 W/m² 10,2 °C 4,8 km/h (1 Bft)
14.10.2016 12:13 15,3 °C 15,3 °C 66 % 1008,1 hPa 0,0 mm 3,2 km/h (1 Bft) W 279 ° 0 min 0,000 mm 0,9 UV-I 113 W/m² 9,0 °C 4,8 km/h (1 Bft)
14.10.2016 12:14 15,2 °C 15,3 °C 71 % 1008,0 hPa 0,0 mm 0,6 km/h (0 Bft) W 279 ° 0 min 0,000 mm 0,9 UV-I 111 W/m² 10,0 °C 1,6 km/h (1 Bft)
14.10.2016 12:15 15,2 °C 15,2 °C 69 % 1008,0 hPa 0,0 mm 2,6 km/h (1 Bft) S-SW 211 ° 0 min 0,000 mm 0,9 UV-I 109 W/m² 9,6 °C 4,8 km/h (1 Bft)
14.10.2016 12:16 15,3 °C 15,3 °C 66 % 1008,0 hPa 0,0 mm 3,2 km/h (1 Bft) SW 225 ° 0 min 0,000 mm 0,8 UV-I 107 W/m² 9,0 °C 4,8 km/h (1 Bft)
14.10.2016 12:17 15,4 °C 15,4 °C 66 % 1007,9 hPa 0,0 mm 3,0 km/h (1 Bft) SW 225 ° 0 min 0,000 mm 0,8 UV-I 107 W/m² 9,1 °C 4,8 km/h (1 Bft)
14.10.2016 12:18 15,4 °C 15,4 °C 65 % 1007,9 hPa 0,0 mm 6,5 km/h (2 Bft) W-SW 252 ° 0 min 0,000 mm 0,8 UV-I 104 W/m² 8,9 °C 11,3 km/h (2 Bft)
14.10.2016 12:19 15,4 °C 15,5 °C 69 % 1007,9 hPa 0,0 mm 3,4 km/h (1 Bft) W-SW 252 ° 0 min 0,000 mm 0,8 UV-I 104 W/m² 9,7 °C 4,8 km/h (1 Bft)
14.10.2016 12:20 15,5 °C 15,5 °C 65 % 1007,9 hPa 0,0 mm 3,9 km/h (1 Bft) W 268 ° 0 min 0,000 mm 0,8 UV-I 102 W/m² 8,9 °C 4,8 km/h (1 Bft)
14.10.2016 12:21 15,6 °C 15,6 °C 63 % 1007,9 hPa 0,0 mm 2,9 km/h (1 Bft) W 268 ° 0 min 0,000 mm 0,8 UV-I 98 W/m² 8,6 °C 4,8 km/h (1 Bft)
14.10.2016 12:22 15,6 °C 15,6 °C 63 % 1007,9 hPa 0,0 mm 0,8 km/h (0 Bft) W 268 ° 0 min 0,000 mm 0,7 UV-I 97 W/m² 8,6 °C 1,6 km/h (1 Bft)
14.10.2016 12:23 15,4 °C 15,6 °C 67 % 1007,9 hPa 0,0 mm 3,1 km/h (1 Bft) W-SW 248 ° 0 min 0,000 mm 0,7 UV-I 91 W/m² 9,3 °C 6,4 km/h (2 Bft)
14.10.2016 12:24 15,4 °C 15,4 °C 67 % 1007,9 hPa 0,0 mm 1,5 km/h (1 Bft) W-SW 248 ° 0 min 0,000 mm 0,7 UV-I 90 W/m² 9,3 °C 3,2 km/h (1 Bft)
14.10.2016 12:25 15,3 °C 15,4 °C 70 % 1007,9 hPa 0,0 mm 1,2 km/h (1 Bft) W-SW 248 ° 0 min 0,000 mm 0,7 UV-I 90 W/m² 9,9 °C 3,2 km/h (1 Bft)
14.10.2016 12:26 15,1 °C 15,3 °C 70 % 1007,9 hPa 0,0 mm 2,5 km/h (1 Bft) S-SW 204 ° 0 min 0,000 mm 0,7 UV-I 88 W/m² 9,7 °C 4,8 km/h (1 Bft)
14.10.2016 12:27 14,9 °C 15,1 °C 69 % 1007,8 hPa 0,0 mm 0,4 km/h (0 Bft) S-SW 204 ° 0 min 0,000 mm 0,7 UV-I 88 W/m² 9,3 °C 1,6 km/h (1 Bft)
14.10.2016 12:28 14,9 °C 14,9 °C 68 % 1007,9 hPa 0,0 mm 0,5 km/h (0 Bft) S-SW 204 ° 0 min 0,000 mm 0,7 UV-I 86 W/m² 9,0 °C 1,6 km/h (1 Bft)
14.10.2016 12:29 14,9 °C 14,9 °C 68 % 1007,9 hPa 0,0 mm 0,9 km/h (0 Bft) S-SW 204 ° 0 min 0,000 mm 0,7 UV-I 86 W/m² 9,0 °C 1,6 km/h (1 Bft)
14.10.2016 12:30 14,9 °C 14,9 °C 69 % 1007,9 hPa 0,0 mm 0,7 km/h (0 Bft) S-SW 204 ° 0 min 0,000 mm 0,6 UV-I 84 W/m² 9,3 °C 1,6 km/h (1 Bft)
14.10.2016 12:31 14,9 °C 14,9 °C 68 % 1007,9 hPa 0,0 mm 0,6 km/h (0 Bft) S-SW 204 ° 0 min 0,000 mm 0,6 UV-I 84 W/m² 9,0 °C 1,6 km/h (1 Bft)
14.10.2016 12:32 14,9 °C 14,9 °C 70 % 1007,8 hPa 0,0 mm 1,1 km/h (1 Bft) S-SW 204 ° 0 min 0,000 mm 0,6 UV-I 83 W/m² 9,5 °C 3,2 km/h (1 Bft)
14.10.2016 12:33 14,9 °C 14,9 °C 72 % 1007,8 hPa 0,0 mm 1,5 km/h (1 Bft) S-SW 204 ° 0 min 0,000 mm 0,6 UV-I 83 W/m² 9,9 °C 3,2 km/h (1 Bft)
14.10.2016 12:34 14,7 °C 14,9 °C 72 % 1007,8 hPa 0,0 mm 0,8 km/h (0 Bft) S-SO 156 ° 0 min 0,000 mm 0,6 UV-I 83 W/m² 9,7 °C 3,2 km/h (1 Bft)
14.10.2016 12:35 14,7 °C 14,7 °C 73 % 1007,7 hPa 0,0 mm 2,7 km/h (1 Bft) SO 146 ° 0 min 0,000 mm 0,6 UV-I 81 W/m² 9,9 °C 6,4 km/h (2 Bft)
14.10.2016 12:36 14,7 °C 14,7 °C 69 % 1007,7 hPa 0,0 mm 1,7 km/h (1 Bft) S-SO 147 ° 0 min 0,000 mm 0,6 UV-I 79 W/m² 9,1 °C 4,8 km/h (1 Bft)
14.10.2016 12:37 14,8 °C 14,8 °C 67 % 1007,7 hPa 0,0 mm 1,1 km/h (1 Bft) S-SO 147 ° 0 min 0,000 mm 0,6 UV-I 79 W/m² 8,7 °C 1,6 km/h (1 Bft)
14.10.2016 12:38 14,8 °C 14,8 °C 71 % 1007,7 hPa 0,0 mm 2,2 km/h (1 Bft) S-SO 147 ° 0 min 0,000 mm 0,6 UV-I 77 W/m² 9,6 °C 3,2 km/h (1 Bft)
14.10.2016 12:39 14,8 °C 14,9 °C 71 % 1007,8 hPa 0,0 mm 0,5 km/h (0 Bft) S-SO 147 ° 0 min 0,000 mm 0,6 UV-I 77 W/m² 9,6 °C 1,6 km/h (1 Bft)
14.10.2016 12:40 14,7 °C 14,8 °C 75 % 1007,8 hPa 0,0 mm 1,3 km/h (1 Bft) S-SO 147 ° 0 min 0,000 mm 0,6 UV-I 77 W/m² 10,3 °C 3,2 km/h (1 Bft)
14.10.2016 12:41 14,6 °C 14,7 °C 73 % 1007,8 hPa 0,0 mm 0,9 km/h (0 Bft) S-SO 147 ° 0 min 0,000 mm 0,6 UV-I 74 W/m² 9,8 °C 3,2 km/h (1 Bft)
14.10.2016 12:42 14,4 °C 14,6 °C 74 % 1007,7 hPa 0,0 mm 0,0 km/h (0 Bft) S-SO 147 ° 0 min 0,000 mm 0,6 UV-I 72 W/m² 9,8 °C 0,0 km/h (0 Bft)
14.10.2016 12:43 14,3 °C 14,4 °C 73 % 1007,7 hPa 0,0 mm 2,3 km/h (1 Bft) S-SO 147 ° 0 min 0,000 mm 0,5 UV-I 72 W/m² 9,5 °C 4,8 km/h (1 Bft)
14.10.2016 12:44 14,2 °C 14,3 °C 71 % 1007,6 hPa 0,0 mm 3,0 km/h (1 Bft) S-SO 147 ° 0 min 0,000 mm 0,5 UV-I 70 W/m² 9,0 °C 4,8 km/h (1 Bft)
14.10.2016 12:45 14,2 °C 14,2 °C 70 % 1007,6 hPa 0,0 mm 3,5 km/h (1 Bft) O-NO 58 ° 0 min 0,000 mm 0,5 UV-I 69 W/m² 8,8 °C 4,8 km/h (1 Bft)
14.10.2016 12:46 14,2 °C 14,2 °C 74 % 1007,6 hPa 0,0 mm 4,4 km/h (1 Bft) O-NO 71 ° 0 min 0,000 mm 0,5 UV-I 67 W/m² 9,6 °C 6,4 km/h (2 Bft)
14.10.2016 12:47 14,1 °C 14,2 °C 74 % 1007,6 hPa 0,0 mm 3,8 km/h (1 Bft) O-NO 71 ° 0 min 0,000 mm 0,5 UV-I 65 W/m² 9,5 °C 4,8 km/h (1 Bft)
14.10.2016 12:48 14,1 °C 14,1 °C 71 % 1007,6 hPa 0,0 mm 3,8 km/h (1 Bft) SO 132 ° 0 min 0,000 mm 0,5 UV-I 63 W/m² 8,9 °C 6,4 km/h (2 Bft)
14.10.2016 12:49 14,2 °C 14,2 °C 70 % 1007,5 hPa 0,0 mm 2,2 km/h (1 Bft) SO 132 ° 0 min 0,000 mm 0,5 UV-I 63 W/m² 8,8 °C 3,2 km/h (1 Bft)
14.10.2016 12:50 14,3 °C 14,3 °C 70 % 1007,5 hPa 0,0 mm 2,9 km/h (1 Bft) SO 132 ° 0 min 0,000 mm 0,5 UV-I 62 W/m² 8,9 °C 3,2 km/h (1 Bft)
14.10.2016 12:51 14,3 °C 14,3 °C 70 % 1007,5 hPa 0,0 mm 2,3 km/h (1 Bft) SO 132 ° 0 min 0,000 mm 0,5 UV-I 62 W/m² 8,9 °C 4,8 km/h (1 Bft)
14.10.2016 12:52 14,2 °C 14,3 °C 75 % 1007,5 hPa 0,0 mm 1,5 km/h (1 Bft) SO 132 ° 0 min 0,000 mm 0,5 UV-I 62 W/m² 9,8 °C 3,2 km/h (1 Bft)
14.10.2016 12:53 14,1 °C 14,2 °C 73 % 1007,6 hPa 0,0 mm 2,7 km/h (1 Bft) SO 132 ° 0 min 0,000 mm 0,5 UV-I 60 W/m² 9,3 °C 3,2 km/h (1 Bft)
14.10.2016 12:54 14,2 °C 14,2 °C 72 % 1007,6 hPa 0,0 mm 1,1 km/h (1 Bft) SO 132 ° 0 min 0,000 mm 0,5 UV-I 60 W/m² 9,2 °C 3,2 km/h (1 Bft)
14.10.2016 12:55 14,2 °C 14,2 °C 74 % 1007,6 hPa 0,0 mm 0,0 km/h (0 Bft) SO 132 ° 0 min 0,000 mm 0,5 UV-I 60 W/m² 9,6 °C 0,0 km/h (0 Bft)
14.10.2016 12:56 14,1 °C 14,2 °C 76 % 1007,7 hPa 0,0 mm 0,1 km/h (0 Bft) SO 132 ° 0 min 0,000 mm 0,5 UV-I 60 W/m² 9,9 °C 1,6 km/h (1 Bft)
14.10.2016 12:57 14,1 °C 14,1 °C 73 % 1007,7 hPa 0,0 mm 1,4 km/h (1 Bft) SO 132 ° 0 min 0,000 mm 0,5 UV-I 60 W/m² 9,3 °C 3,2 km/h (1 Bft)
14.10.2016 12:58 14,1 °C 14,1 °C 72 % 1007,7 hPa 0,0 mm 0,9 km/h (0 Bft) SO 132 ° 0 min 0,000 mm 0,5 UV-I 60 W/m² 9,1 °C 1,6 km/h (1 Bft)
14.10.2016 12:59 14,1 °C 14,1 °C 72 % 1007,7 hPa 0,0 mm 0,5 km/h (0 Bft) SO 132 ° 0 min 0,000 mm 0,5 UV-I 60 W/m² 9,1 °C 1,6 km/h (1 Bft)
14.10.2016 13:00 14,0 °C 14,1 °C 74 % 1007,7 hPa 0,0 mm 1,2 km/h (1 Bft) SO 132 ° 0 min 0,000 mm 0,5 UV-I 58 W/m² 9,4 °C 3,2 km/h (1 Bft)
14.10.2016 13:01 13,9 °C 14,0 °C 74 % 1007,7 hPa 0,0 mm 3,2 km/h (1 Bft) SO 132 ° 0 min 0,051 mm 0,5 UV-I 58 W/m² 9,3 °C 3,2 km/h (1 Bft)
14.10.2016 13:02 13,8 °C 13,9 °C 75 % 1007,7 hPa 0,0 mm 2,7 km/h (1 Bft) SO 132 ° 0 min 0,000 mm 0,0 UV-I 56 W/m² 9,4 °C 3,2 km/h (1 Bft)
14.10.2016 13:03 13,7 °C 13,8 °C 74 % 1007,8 hPa 0,0 mm 1,1 km/h (1 Bft) SO 132 ° 0 min 0,000 mm 0,0 UV-I 56 W/m² 9,2 °C 3,2 km/h (1 Bft)
14.10.2016 13:04 13,7 °C 13,7 °C 76 % 1007,7 hPa 0,0 mm 0,0 km/h (0 Bft) SO 132 ° 0 min 0,000 mm 0,0 UV-I 53 W/m² 9,5 °C 0,0 km/h (0 Bft)
14.10.2016 13:05 13,7 °C 13,7 °C 75 % 1007,7 hPa 0,0 mm 0,1 km/h (0 Bft) SO 132 ° 0 min 0,000 mm 0,0 UV-I 53 W/m² 9,3 °C 1,6 km/h (1 Bft)
14.10.2016 13:06 13,7 °C 13,7 °C 76 % 1007,7 hPa 0,0 mm 0,9 km/h (0 Bft) SO 132 ° 0 min 0,000 mm 0,0 UV-I 51 W/m² 9,5 °C 1,6 km/h (1 Bft)
14.10.2016 13:07 13,7 °C 13,7 °C 74 % 1007,6 hPa 0,0 mm 1,5 km/h (1 Bft) SO 132 ° 0 min 0,000 mm 0,0 UV-I 49 W/m² 9,2 °C 3,2 km/h (1 Bft)
14.10.2016 13:08 13,7 °C 13,8 °C 75 % 1007,6 hPa 0,0 mm 0,2 km/h (0 Bft) SO 132 ° 0 min 0,000 mm 0,0 UV-I 47 W/m² 9,3 °C 1,6 km/h (1 Bft)
14.10.2016 13:09 13,8 °C 13,8 °C 76 % 1007,6 hPa 0,0 mm 3,3 km/h (1 Bft) W 281 ° 0 min 0,000 mm 0,0 UV-I 46 W/m² 9,6 °C 4,8 km/h (1 Bft)
14.10.2016 13:10 13,8 °C 13,8 °C 72 % 1007,5 hPa 0,0 mm 3,7 km/h (1 Bft) SW 233 ° 0 min 0,000 mm 0,0 UV-I 44 W/m² 8,8 °C 6,4 km/h (2 Bft)
14.10.2016 13:11 13,9 °C 13,9 °C 71 % 1007,5 hPa 0,0 mm 2,2 km/h (1 Bft) SW 234 ° 0 min 0,000 mm 0,0 UV-I 42 W/m² 8,7 °C 4,8 km/h (1 Bft)
14.10.2016 13:12 14,0 °C 14,0 °C 71 % 1007,5 hPa 0,0 mm 1,3 km/h (1 Bft) SW 234 ° 0 min 0,000 mm 0,0 UV-I 40 W/m² 8,8 °C 1,6 km/h (1 Bft)
14.10.2016 13:13 14,0 °C 14,0 °C 72 % 1007,6 hPa 0,0 mm 6,6 km/h (2 Bft) O 90 ° 0 min 0,000 mm 0,0 UV-I 40 W/m² 9,0 °C 9,7 km/h (2 Bft)
14.10.2016 13:14 13,9 °C 14,0 °C 72 % 1007,7 hPa 0,0 mm 6,6 km/h (2 Bft) NO 52 ° 0 min 0,000 mm 0,0 UV-I 39 W/m² 8,9 °C 8,0 km/h (2 Bft)
14.10.2016 13:15 13,8 °C 13,9 °C 73 % 1007,7 hPa 0,0 mm 4,5 km/h (1 Bft) NO 41 ° 0 min 0,000 mm 0,0 UV-I 39 W/m² 9,0 °C 6,4 km/h (2 Bft)
14.10.2016 13:16 13,7 °C 13,8 °C 74 % 1007,6 hPa 0,0 mm 4,1 km/h (1 Bft) NO 42 ° 0 min 0,000 mm 0,0 UV-I 39 W/m² 9,2 °C 6,4 km/h (2 Bft)
14.10.2016 13:17 13,6 °C 13,7 °C 74 % 1007,5 hPa 0,0 mm 1,7 km/h (1 Bft) O 80 ° 0 min 0,000 mm 0,0 UV-I 39 W/m² 9,1 °C 4,8 km/h (1 Bft)
14.10.2016 13:18 13,6 °C 13,6 °C 74 % 1007,5 hPa 0,0 mm 3,3 km/h (1 Bft) O-SO 102 ° 0 min 0,000 mm 0,0 UV-I 39 W/m² 9,1 °C 4,8 km/h (1 Bft)
14.10.2016 13:19 13,6 °C 13,6 °C 74 % 1007,7 hPa 0,0 mm 4,0 km/h (1 Bft) O 99 ° 0 min 0,000 mm 0,0 UV-I 39 W/m² 9,1 °C 4,8 km/h (1 Bft)
14.10.2016 13:20 13,5 °C 13,6 °C 77 % 1007,6 hPa 0,0 mm 2,4 km/h (1 Bft) O 99 ° 0 min 0,000 mm 0,0 UV-I 40 W/m² 9,5 °C 3,2 km/h (1 Bft)
14.10.2016 13:21 13,4 °C 13,5 °C 77 % 1007,7 hPa 0,0 mm 1,7 km/h (1 Bft) O 99 ° 0 min 0,000 mm 0,0 UV-I 40 W/m² 9,5 °C 3,2 km/h (1 Bft)
14.10.2016 13:22 13,4 °C 13,4 °C 74 % 1007,7 hPa 0,0 mm 1,1 km/h (1 Bft) O 99 ° 0 min 0,000 mm 0,0 UV-I 40 W/m² 8,9 °C 1,6 km/h (1 Bft)
14.10.2016 13:23 13,4 °C 13,4 °C 74 % 1007,7 hPa 0,0 mm 1,1 km/h (1 Bft) NO 40 ° 0 min 0,000 mm 0,0 UV-I 42 W/m² 8,9 °C 1,6 km/h (1 Bft)
14.10.2016 13:24 13,6 °C 13,6 °C 74 % 1007,6 hPa 0,0 mm 2,7 km/h (1 Bft) O 96 ° 0 min 0,000 mm 0,0 UV-I 42 W/m² 9,1 °C 3,2 km/h (1 Bft)
14.10.2016 13:25 13,6 °C 13,6 °C 74 % 1007,7 hPa 0,0 mm 1,5 km/h (1 Bft) O-SO 114 ° 0 min 0,000 mm 0,0 UV-I 42 W/m² 9,1 °C 3,2 km/h (1 Bft)
14.10.2016 13:26 13,6 °C 13,6 °C 76 % 1007,6 hPa 0,0 mm 2,3 km/h (1 Bft) O 90 ° 0 min 0,000 mm 0,0 UV-I 44 W/m² 9,4 °C 3,2 km/h (1 Bft)
14.10.2016 13:27 13,4 °C 13,6 °C 75 % 1007,6 hPa 0,0 mm 1,9 km/h (1 Bft) O 90 ° 0 min 0,000 mm 0,0 UV-I 44 W/m² 9,1 °C 3,2 km/h (1 Bft)
14.10.2016 13:28 13,4 °C 13,4 °C 77 % 1007,5 hPa 0,0 mm 1,9 km/h (1 Bft) O 90 ° 0 min 0,000 mm 0,0 UV-I 47 W/m² 9,5 °C 3,2 km/h (1 Bft)
14.10.2016 13:29 13,3 °C 13,4 °C 77 % 1007,4 hPa 0,0 mm 0,0 km/h (0 Bft) O 90 ° 0 min 0,000 mm 0,0 UV-I 49 W/m² 9,4 °C 0,0 km/h (0 Bft)
14.10.2016 13:30 13,3 °C 13,3 °C 78 % 1007,3 hPa 0,0 mm 0,0 km/h (0 Bft) O 90 ° 0 min 0,000 mm 0,0 UV-I 51 W/m² 9,5 °C 0,0 km/h (0 Bft)
14.10.2016 13:31 13,3 °C 13,3 °C 76 % 1007,2 hPa 0,0 mm 0,0 km/h (0 Bft) O 90 ° 0 min 0,000 mm 0,0 UV-I 53 W/m² 9,2 °C 0,0 km/h (0 Bft)
14.10.2016 13:32 13,3 °C 13,3 °C 73 % 1007,1 hPa 0,0 mm 0,0 km/h (0 Bft) O 90 ° 0 min 0,000 mm 0,0 UV-I 54 W/m² 8,6 °C 0,0 km/h (0 Bft)
14.10.2016 13:33 13,5 °C 13,5 °C 72 % 1007,0 hPa 0,0 mm 0,0 km/h (0 Bft) O 90 ° 0 min 0,000 mm 0,0 UV-I 54 W/m² 8,6 °C 0,0 km/h (0 Bft)
14.10.2016 13:34 13,7 °C 13,7 °C 71 % 1007,0 hPa 0,0 mm 0,0 km/h (0 Bft) O 90 ° 0 min 0,000 mm 0,0 UV-I 56 W/m² 8,5 °C 0,0 km/h (0 Bft)
14.10.2016 13:35 13,8 °C 13,8 °C 72 % 1007,0 hPa 0,0 mm 3,7 km/h (1 Bft) O 90 ° 0 min 0,000 mm 0,0 UV-I 58 W/m² 8,8 °C 4,8 km/h (1 Bft)
14.10.2016 13:36 13,8 °C 13,8 °C 72 % 1007,0 hPa 0,0 mm 3,3 km/h (1 Bft) O 90 ° 0 min 0,000 mm 0,5 UV-I 58 W/m² 8,8 °C 4,8 km/h (1 Bft)
14.10.2016 13:37 13,8 °C 13,8 °C 72 % 1006,9 hPa 0,0 mm 3,4 km/h (1 Bft) O 90 ° 0 min 0,000 mm 0,5 UV-I 62 W/m² 8,8 °C 4,8 km/h (1 Bft)
14.10.2016 13:38 13,9 °C 13,9 °C 71 % 1007,0 hPa 0,0 mm 2,5 km/h (1 Bft) O 90 ° 0 min 0,000 mm 0,5 UV-I 62 W/m² 8,7 °C 3,2 km/h (1 Bft)
14.10.2016 13:39 14,0 °C 14,0 °C 74 % 1006,9 hPa 0,0 mm 1,5 km/h (1 Bft) O 90 ° 0 min 0,000 mm 0,5 UV-I 67 W/m² 9,4 °C 1,6 km/h (1 Bft)
14.10.2016 13:40 14,0 °C 14,0 °C 77 % 1006,8 hPa 0,0 mm 0,3 km/h (0 Bft) O 90 ° 0 min 0,000 mm 0,5 UV-I 74 W/m² 10,0 °C 1,6 km/h (1 Bft)
14.10.2016 13:41 13,9 °C 14,0 °C 77 % 1006,9 hPa 0,0 mm 1,3 km/h (1 Bft) N-NO 17 ° 0 min 0,000 mm 0,6 UV-I 76 W/m² 9,9 °C 3,2 km/h (1 Bft)
14.10.2016 13:42 13,9 °C 13,9 °C 75 % 1007,0 hPa 0,0 mm 3,2 km/h (1 Bft) W-NW 290 ° 0 min 0,000 mm 0,6 UV-I 77 W/m² 9,5 °C 4,8 km/h (1 Bft)
14.10.2016 13:43 13,8 °C 13,9 °C 75 % 1007,0 hPa 0,0 mm 4,5 km/h (1 Bft) W-SW 257 ° 0 min 0,000 mm 0,6 UV-I 77 W/m² 9,4 °C 4,8 km/h (1 Bft)
14.10.2016 13:44 13,8 °C 13,8 °C 76 % 1007,1 hPa 0,0 mm 3,0 km/h (1 Bft) W 265 ° 0 min 0,000 mm 0,6 UV-I 77 W/m² 9,6 °C 4,8 km/h (1 Bft)
14.10.2016 13:45 13,8 °C 13,8 °C 77 % 1007,0 hPa 0,0 mm 1,3 km/h (1 Bft) NW 317 ° 0 min 0,000 mm 0,6 UV-I 77 W/m² 9,8 °C 4,8 km/h (1 Bft)
14.10.2016 13:46 13,8 °C 13,8 °C 76 % 1007,1 hPa 0,0 mm 4,2 km/h (1 Bft) NW 326 ° 0 min 0,000 mm 0,6 UV-I 77 W/m² 9,6 °C 4,8 km/h (1 Bft)
14.10.2016 13:47 13,8 °C 13,8 °C 74 % 1007,0 hPa 0,0 mm 1,4 km/h (1 Bft) NW 326 ° 0 min 0,000 mm 0,6 UV-I 77 W/m² 9,2 °C 3,2 km/h (1 Bft)
14.10.2016 13:48 13,9 °C 13,9 °C 73 % 1007,0 hPa 0,0 mm 0,5 km/h (0 Bft) NW 326 ° 0 min 0,000 mm 0,6 UV-I 77 W/m² 9,1 °C 1,6 km/h (1 Bft)
14.10.2016 13:49 13,9 °C 14,0 °C 74 % 1007,0 hPa 0,0 mm 0,0 km/h (0 Bft) NW 326 ° 0 min 0,000 mm 0,6 UV-I 77 W/m² 9,3 °C 0,0 km/h (0 Bft)
14.10.2016 13:50 14,0 °C 14,0 °C 74 % 1006,9 hPa 0,0 mm 0,0 km/h (0 Bft) NW 326 ° 0 min 0,000 mm 0,6 UV-I 77 W/m² 9,4 °C 0,0 km/h (0 Bft)
14.10.2016 13:51 14,1 °C 14,1 °C 74 % 1006,9 hPa 0,0 mm 0,0 km/h (0 Bft) NW 326 ° 0 min 0,000 mm 0,6 UV-I 77 W/m² 9,5 °C 0,0 km/h (0 Bft)
14.10.2016 13:52 14,0 °C 14,1 °C 74 % 1006,8 hPa 0,0 mm 0,0 km/h (0 Bft) NW 326 ° 0 min 0,000 mm 0,6 UV-I 77 W/m² 9,4 °C 0,0 km/h (0 Bft)
14.10.2016 13:53 14,0 °C 14,0 °C 74 % 1006,8 hPa 0,0 mm 0,0 km/h (0 Bft) NW 326 ° 0 min 0,000 mm 0,6 UV-I 76 W/m² 9,4 °C 0,0 km/h (0 Bft)
14.10.2016 13:54 14,0 °C 14,1 °C 74 % 1007,0 hPa 0,0 mm 0,3 km/h (0 Bft) N-NW 338 ° 0 min 0,000 mm 0,6 UV-I 76 W/m² 9,4 °C 1,6 km/h (1 Bft)
14.10.2016 13:55 13,9 °C 14,0 °C 75 % 1006,9 hPa 0,0 mm 3,4 km/h (1 Bft) O-NO 67 ° 0 min 0,000 mm 0,6 UV-I 74 W/m² 9,5 °C 4,8 km/h (1 Bft)
14.10.2016 13:56 13,8 °C 13,9 °C 77 % 1007,0 hPa 0,0 mm 0,8 km/h (0 Bft) O-NO 67 ° 0 min 0,000 mm 0,6 UV-I 72 W/m² 9,8 °C 3,2 km/h (1 Bft)
14.10.2016 13:57 13,8 °C 13,8 °C 78 % 1006,9 hPa 0,0 mm 0,4 km/h (0 Bft) O-NO 67 ° 0 min 0,000 mm 0,5 UV-I 69 W/m² 10,0 °C 1,6 km/h (1 Bft)
14.10.2016 13:58 13,8 °C 13,8 °C 76 % 1006,9 hPa 0,0 mm 2,3 km/h (1 Bft) O-NO 67 ° 0 min 0,000 mm 0,5 UV-I 67 W/m² 9,6 °C 3,2 km/h (1 Bft)
14.10.2016 13:59 13,8 °C 13,8 °C 76 % 1006,9 hPa 0,0 mm 1,8 km/h (1 Bft) O-NO 67 ° 0 min 0,000 mm 0,5 UV-I 63 W/m² 9,6 °C 3,2 km/h (1 Bft)
14.10.2016 14:00 13,7 °C 13,8 °C 77 % 1006,8 hPa 0,0 mm 2,8 km/h (1 Bft) O-NO 67 ° 0 min 0,000 mm 0,5 UV-I 62 W/m² 9,7 °C 4,8 km/h (1 Bft)
14.10.2016 14:01 13,6 °C 13,7 °C 79 % 1006,8 hPa 0,0 mm 2,8 km/h (1 Bft) O-NO 67 ° 0 min 0,051 mm 0,5 UV-I 60 W/m² 10,0 °C 4,8 km/h (1 Bft)
14.10.2016 14:02 13,6 °C 13,6 °C 79 % 1006,7 hPa 0,0 mm 1,9 km/h (1 Bft) N-NO 17 ° 0 min 0,000 mm 0,5 UV-I 58 W/m² 10,0 °C 3,2 km/h (1 Bft)
14.10.2016 14:03 13,6 °C 13,6 °C 77 % 1006,7 hPa 0,0 mm 4,6 km/h (1 Bft) W-SW 258 ° 0 min 0,000 mm 0,0 UV-I 56 W/m² 9,6 °C 9,7 km/h (2 Bft)
14.10.2016 14:04 13,6 °C 13,7 °C 78 % 1006,8 hPa 0,0 mm 7,8 km/h (2 Bft) W-SW 253 ° 0 min 0,000 mm 0,0 UV-I 56 W/m² 9,8 °C 11,3 km/h (2 Bft)
14.10.2016 14:05 13,6 °C 13,7 °C 80 % 1006,8 hPa 0,0 mm 8,6 km/h (2 Bft) W 278 ° 0 min 0,000 mm 0,0 UV-I 54 W/m² 10,2 °C 12,9 km/h (3 Bft)
14.10.2016 14:06 13,6 °C 13,7 °C 79 % 1006,9 hPa 0,0 mm 5,0 km/h (1 Bft) W-SW 240 ° 0 min 0,000 mm 0,0 UV-I 54 W/m² 10,0 °C 8,0 km/h (2 Bft)
14.10.2016 14:07 13,6 °C 13,6 °C 78 % 1006,9 hPa 0,0 mm 1,9 km/h (1 Bft) SW 221 ° 0 min 0,000 mm 0,0 UV-I 54 W/m² 9,8 °C 3,2 km/h (1 Bft)
14.10.2016 14:08 13,6 °C 13,6 °C 78 % 1007,0 hPa 0,0 mm 2,1 km/h (1 Bft) S-SW 202 ° 0 min 0,000 mm 0,0 UV-I 56 W/m² 9,8 °C 3,2 km/h (1 Bft)
14.10.2016 14:09 13,7 °C 13,7 °C 77 % 1007,0 hPa 0,0 mm 2,2 km/h (1 Bft) S-SW 202 ° 0 min 0,000 mm 0,0 UV-I 56 W/m² 9,7 °C 3,2 km/h (1 Bft)
14.10.2016 14:10 13,7 °C 13,7 °C 77 % 1007,1 hPa 0,0 mm 1,6 km/h (1 Bft) S-SW 202 ° 0 min 0,000 mm 0,0 UV-I 58 W/m² 9,7 °C 3,2 km/h (1 Bft)
14.10.2016 14:11 13,7 °C 13,7 °C 76 % 1007,1 hPa 0,0 mm 2,9 km/h (1 Bft) S-SW 202 ° 0 min 0,000 mm 0,0 UV-I 58 W/m² 9,5 °C 4,8 km/h (1 Bft)
14.10.2016 14:12 13,7 °C 13,8 °C 77 % 1007,1 hPa 0,0 mm 4,1 km/h (1 Bft) S-SW 206 ° 0 min 0,000 mm 0,0 UV-I 58 W/m² 9,7 °C 4,8 km/h (1 Bft)
14.10.2016 14:13 13,8 °C 13,8 °C 76 % 1007,1 hPa 0,0 mm 3,2 km/h (1 Bft) S-SW 208 ° 0 min 0,000 mm 0,0 UV-I 58 W/m² 9,6 °C 4,8 km/h (1 Bft)
14.10.2016 14:14 13,8 °C 13,8 °C 74 % 1007,1 hPa 0,0 mm 5,3 km/h (1 Bft) S 178 ° 0 min 0,000 mm 0,5 UV-I 60 W/m² 9,2 °C 6,4 km/h (2 Bft)
14.10.2016 14:15 13,9 °C 13,9 °C 73 % 1007,2 hPa 0,0 mm 6,6 km/h (2 Bft) S 184 ° 0 min 0,000 mm 0,5 UV-I 60 W/m² 9,1 °C 8,0 km/h (2 Bft)
14.10.2016 14:16 14,0 °C 14,0 °C 74 % 1007,1 hPa 0,0 mm 6,0 km/h (2 Bft) SW 226 ° 0 min 0,000 mm 0,5 UV-I 60 W/m² 9,4 °C 8,0 km/h (2 Bft)
14.10.2016 14:17 14,1 °C 14,1 °C 73 % 1007,1 hPa 0,0 mm 5,1 km/h (1 Bft) S-SO 165 ° 0 min 0,000 mm 0,5 UV-I 60 W/m² 9,3 °C 8,0 km/h (2 Bft)
14.10.2016 14:18 14,1 °C 14,2 °C 76 % 1007,1 hPa 0,0 mm 2,7 km/h (1 Bft) S-SO 155 ° 0 min 0,000 mm 0,5 UV-I 60 W/m² 9,9 °C 3,2 km/h (1 Bft)
14.10.2016 14:19 14,2 °C 14,2 °C 75 % 1007,0 hPa 0,0 mm 2,8 km/h (1 Bft) S-SO 155 ° 0 min 0,000 mm 0,5 UV-I 60 W/m² 9,8 °C 3,2 km/h (1 Bft)
14.10.2016 14:20 14,1 °C 14,2 °C 76 % 1007,0 hPa 0,0 mm 3,2 km/h (1 Bft) S-SO 148 ° 0 min 0,000 mm 0,5 UV-I 62 W/m² 9,9 °C 4,8 km/h (1 Bft)
14.10.2016 14:21 14,1 °C 14,1 °C 76 % 1007,1 hPa 0,0 mm 1,9 km/h (1 Bft) O-SO 123 ° 0 min 0,000 mm 0,5 UV-I 62 W/m² 9,9 °C 4,8 km/h (1 Bft)
14.10.2016 14:22 14,1 °C 14,1 °C 76 % 1007,1 hPa 0,0 mm 3,4 km/h (1 Bft) S-SO 165 ° 0 min 0,000 mm 0,0 UV-I 60 W/m² 9,9 °C 8,0 km/h (2 Bft)
14.10.2016 14:23 14,1 °C 14,1 °C 75 % 1007,1 hPa 0,0 mm 7,0 km/h (2 Bft) S-SO 163 ° 0 min 0,000 mm 0,0 UV-I 60 W/m² 9,7 °C 8,0 km/h (2 Bft)
14.10.2016 14:24 14,2 °C 14,2 °C 77 % 1007,2 hPa 0,0 mm 3,6 km/h (1 Bft) S-SO 148 ° 0 min 0,000 mm 0,0 UV-I 60 W/m² 10,2 °C 6,4 km/h (2 Bft)
14.10.2016 14:25 14,2 °C 14,2 °C 75 % 1007,2 hPa 0,0 mm 2,3 km/h (1 Bft) S-SO 148 ° 0 min 0,000 mm 0,0 UV-I 60 W/m² 9,8 °C 3,2 km/h (1 Bft)
14.10.2016 14:26 14,2 °C 14,2 °C 77 % 1007,0 hPa 0,0 mm 3,5 km/h (1 Bft) SO 143 ° 0 min 0,000 mm 0,0 UV-I 58 W/m² 10,2 °C 6,4 km/h (2 Bft)
14.10.2016 14:27 14,1 °C 14,2 °C 75 % 1007,1 hPa 0,0 mm 8,0 km/h (2 Bft) S-SO 163 ° 0 min 0,000 mm 0,0 UV-I 58 W/m² 9,7 °C 9,7 km/h (2 Bft)
14.10.2016 14:28 14,2 °C 14,2 °C 74 % 1007,0 hPa 0,0 mm 5,3 km/h (1 Bft) S-SO 163 ° 0 min 0,000 mm 0,0 UV-I 58 W/m² 9,6 °C 8,0 km/h (2 Bft)
14.10.2016 14:29 14,2 °C 14,2 °C 74 % 1007,1 hPa 0,0 mm 5,5 km/h (1 Bft) S-SO 163 ° 0 min 0,000 mm 0,0 UV-I 56 W/m² 9,6 °C 8,0 km/h (2 Bft)
14.10.2016 14:30 14,3 °C 14,3 °C 76 % 1007,0 hPa 0,0 mm 5,0 km/h (1 Bft) S-SO 163 ° 0 min 0,000 mm 0,0 UV-I 56 W/m² 10,1 °C 6,4 km/h (2 Bft)
14.10.2016 14:31 14,3 °C 14,3 °C 75 % 1007,0 hPa 0,0 mm 3,1 km/h (1 Bft) S-SO 163 ° 0 min 0,000 mm 0,0 UV-I 54 W/m² 9,9 °C 6,4 km/h (2 Bft)
14.10.2016 14:32 14,3 °C 14,3 °C 76 % 1006,9 hPa 0,0 mm 3,4 km/h (1 Bft) S-SO 163 ° 0 min 0,000 mm 0,0 UV-I 53 W/m² 10,1 °C 6,4 km/h (2 Bft)
14.10.2016 14:33 14,3 °C 14,3 °C 77 % 1006,9 hPa 0,0 mm 1,9 km/h (1 Bft) S-SO 163 ° 0 min 0,000 mm 0,0 UV-I 51 W/m² 10,3 °C 3,2 km/h (1 Bft)
14.10.2016 14:34 14,3 °C 14,3 °C 76 % 1006,8 hPa 0,0 mm 2,7 km/h (1 Bft) S-SO 163 ° 0 min 0,000 mm 0,0 UV-I 51 W/m² 10,1 °C 3,2 km/h (1 Bft)
14.10.2016 14:35 14,4 °C 14,4 °C 74 % 1006,8 hPa 0,0 mm 1,3 km/h (1 Bft) SW 214 ° 0 min 0,000 mm 0,0 UV-I 49 W/m² 9,8 °C 3,2 km/h (1 Bft)
14.10.2016 14:36 14,4 °C 14,4 °C 72 % 1006,8 hPa 0,0 mm 3,3 km/h (1 Bft) O-SO 105 ° 0 min 0,000 mm 0,0 UV-I 49 W/m² 9,4 °C 4,8 km/h (1 Bft)
14.10.2016 14:37 14,6 °C 14,6 °C 71 % 1006,9 hPa 0,0 mm 5,0 km/h (1 Bft) O-SO 109 ° 0 min 0,000 mm 0,0 UV-I 49 W/m² 9,4 °C 6,4 km/h (2 Bft)
14.10.2016 14:38 14,7 °C 14,7 °C 70 % 1006,9 hPa 0,0 mm 4,3 km/h (1 Bft) O-SO 113 ° 0 min 0,000 mm 0,0 UV-I 49 W/m² 9,3 °C 6,4 km/h (2 Bft)
14.10.2016 14:39 14,7 °C 14,7 °C 73 % 1006,8 hPa 0,0 mm 3,8 km/h (1 Bft) NO 42 ° 0 min 0,000 mm 0,0 UV-I 49 W/m² 9,9 °C 6,4 km/h (2 Bft)
14.10.2016 14:40 14,6 °C 14,7 °C 74 % 1006,8 hPa 0,0 mm 4,6 km/h (1 Bft) S-SO 150 ° 0 min 0,000 mm 0,0 UV-I 47 W/m² 10,0 °C 6,4 km/h (2 Bft)
14.10.2016 14:41 14,6 °C 14,7 °C 73 % 1006,7 hPa 0,0 mm 2,6 km/h (1 Bft) S-SO 150 ° 0 min 0,000 mm 0,0 UV-I 47 W/m² 9,8 °C 4,8 km/h (1 Bft)
14.10.2016 14:42 14,6 °C 14,6 °C 74 % 1006,7 hPa 0,0 mm 2,5 km/h (1 Bft) O 96 ° 0 min 0,000 mm 0,0 UV-I 46 W/m² 10,0 °C 4,8 km/h (1 Bft)
14.10.2016 14:43 14,4 °C 14,6 °C 72 % 1006,6 hPa 0,0 mm 5,0 km/h (1 Bft) O-SO 104 ° 0 min 0,000 mm 0,0 UV-I 46 W/m² 9,4 °C 6,4 km/h (2 Bft)
14.10.2016 14:44 14,5 °C 14,5 °C 71 % 1006,6 hPa 0,0 mm 4,0 km/h (1 Bft) O-SO 107 ° 0 min 0,000 mm 0,0 UV-I 44 W/m² 9,3 °C 4,8 km/h (1 Bft)
14.10.2016 14:45 14,7 °C 14,7 °C 69 % 1006,6 hPa 0,0 mm 4,0 km/h (1 Bft) SO 131 ° 0 min 0,000 mm 0,0 UV-I 44 W/m² 9,1 °C 6,4 km/h (2 Bft)
14.10.2016 14:46 14,9 °C 14,9 °C 69 % 1006,6 hPa 0,0 mm 2,9 km/h (1 Bft) SO 131 ° 0 min 0,000 mm 0,0 UV-I 42 W/m² 9,3 °C 4,8 km/h (1 Bft)
14.10.2016 14:47 15,1 °C 15,1 °C 69 % 1006,7 hPa 0,0 mm 3,9 km/h (1 Bft) SO 131 ° 0 min 0,000 mm 0,0 UV-I 42 W/m² 9,5 °C 4,8 km/h (1 Bft)
14.10.2016 14:48 15,2 °C 15,2 °C 67 % 1006,7 hPa 0,0 mm 3,0 km/h (1 Bft) SO 131 ° 0 min 0,000 mm 0,0 UV-I 40 W/m² 9,1 °C 4,8 km/h (1 Bft)
14.10.2016 14:49 15,3 °C 15,3 °C 68 % 1006,6 hPa 0,0 mm 2,1 km/h (1 Bft) SO 131 ° 0 min 0,000 mm 0,0 UV-I 40 W/m² 9,4 °C 3,2 km/h (1 Bft)
14.10.2016 14:50 15,4 °C 15,4 °C 68 % 1006,6 hPa 0,0 mm 4,6 km/h (1 Bft) S 177 ° 0 min 0,000 mm 0,0 UV-I 40 W/m² 9,5 °C 6,4 km/h (2 Bft)
14.10.2016 14:51 15,4 °C 15,4 °C 70 % 1006,5 hPa 0,0 mm 5,0 km/h (1 Bft) S 184 ° 0 min 0,000 mm 0,0 UV-I 40 W/m² 10,0 °C 8,0 km/h (2 Bft)
14.10.2016 14:52 15,4 °C 15,4 °C 69 % 1006,6 hPa 0,0 mm 5,1 km/h (1 Bft) S 176 ° 0 min 0,000 mm 0,0 UV-I 42 W/m² 9,7 °C 6,4 km/h (2 Bft)
14.10.2016 14:53 15,4 °C 15,4 °C 72 % 1006,5 hPa 0,0 mm 2,0 km/h (1 Bft) S 177 ° 0 min 0,000 mm 0,0 UV-I 42 W/m² 10,4 °C 3,2 km/h (1 Bft)
14.10.2016 14:54 15,3 °C 15,4 °C 72 % 1006,5 hPa 0,0 mm 3,1 km/h (1 Bft) S 177 ° 0 min 0,000 mm 0,0 UV-I 42 W/m² 10,3 °C 4,8 km/h (1 Bft)
14.10.2016 14:55 15,2 °C 15,3 °C 70 % 1006,4 hPa 0,0 mm 3,2 km/h (1 Bft) S 177 ° 0 min 0,000 mm 0,0 UV-I 42 W/m² 9,8 °C 4,8 km/h (1 Bft)
14.10.2016 14:56 15,2 °C 15,2 °C 72 % 1006,4 hPa 0,0 mm 1,7 km/h (1 Bft) S 178 ° 0 min 0,000 mm 0,0 UV-I 44 W/m² 10,2 °C 4,8 km/h (1 Bft)
14.10.2016 14:57 15,0 °C 15,2 °C 75 % 1006,5 hPa 0,0 mm 1,0 km/h (0 Bft) NW 317 ° 0 min 0,000 mm 0,0 UV-I 44 W/m² 10,6 °C 4,8 km/h (1 Bft)
14.10.2016 14:58 14,8 °C 15,0 °C 73 % 1006,4 hPa 0,0 mm 4,0 km/h (1 Bft) NW 304 ° 0 min 0,000 mm 0,0 UV-I 44 W/m² 10,0 °C 6,4 km/h (2 Bft)
14.10.2016 14:59 14,7 °C 14,8 °C 74 % 1006,5 hPa 0,0 mm 2,6 km/h (1 Bft) W-NW 284 ° 0 min 0,000 mm 0,0 UV-I 44 W/m² 10,1 °C 4,8 km/h (1 Bft)
14.10.2016 15:00 14,6 °C 14,7 °C 75 % 1006,4 hPa 0,0 mm 3,7 km/h (1 Bft) W-NW 284 ° 0 min 0,000 mm 0,0 UV-I 44 W/m² 10,2 °C 4,8 km/h (1 Bft)
14.10.2016 15:01 14,4 °C 14,6 °C 74 % 1006,4 hPa 0,0 mm 2,1 km/h (1 Bft) S 169 ° 0 min 0,051 mm 0,0 UV-I 46 W/m² 9,8 °C 4,8 km/h (1 Bft)
14.10.2016 15:02 14,3 °C 14,4 °C 75 % 1006,4 hPa 0,0 mm 0,8 km/h (0 Bft) S-SW 193 ° 0 min 0,000 mm 0,0 UV-I 46 W/m² 9,9 °C 1,6 km/h (1 Bft)
14.10.2016 15:03 14,3 °C 14,3 °C 76 % 1006,4 hPa 0,0 mm 0,2 km/h (0 Bft) S-SW 203 ° 0 min 0,000 mm 0,0 UV-I 47 W/m² 10,1 °C 1,6 km/h (1 Bft)
14.10.2016 15:04 14,2 °C 14,3 °C 78 % 1006,4 hPa 0,0 mm 0,5 km/h (0 Bft) S-SW 202 ° 0 min 0,000 mm 0,0 UV-I 47 W/m² 10,4 °C 3,2 km/h (1 Bft)
14.10.2016 15:05 14,1 °C 14,2 °C 77 % 1006,6 hPa 0,0 mm 2,0 km/h (1 Bft) S 179 ° 0 min 0,000 mm 0,0 UV-I 49 W/m² 10,1 °C 4,8 km/h (1 Bft)
14.10.2016 15:06 14,1 °C 14,1 °C 77 % 1006,6 hPa 0,0 mm 2,7 km/h (1 Bft) NO 47 ° 0 min 0,000 mm 0,0 UV-I 51 W/m² 10,1 °C 4,8 km/h (1 Bft)
14.10.2016 15:07 14,1 °C 14,1 °C 78 % 1006,6 hPa 0,0 mm 6,0 km/h (2 Bft) NO 44 ° 0 min 0,000 mm 0,0 UV-I 53 W/m² 10,3 °C 9,7 km/h (2 Bft)
14.10.2016 15:08 13,9 °C 14,1 °C 78 % 1006,7 hPa 0,0 mm 5,6 km/h (1 Bft) O 88 ° 0 min 0,000 mm 0,0 UV-I 54 W/m² 10,1 °C 8,0 km/h (2 Bft)
14.10.2016 15:09 13,9 °C 13,9 °C 78 % 1006,7 hPa 0,0 mm 1,9 km/h (1 Bft) O-SO 113 ° 0 min 0,000 mm 0,0 UV-I 56 W/m² 10,1 °C 3,2 km/h (1 Bft)
14.10.2016 15:10 13,9 °C 13,9 °C 77 % 1006,7 hPa 0,0 mm 2,5 km/h (1 Bft) O-SO 113 ° 0 min 0,000 mm 0,0 UV-I 58 W/m² 9,9 °C 4,8 km/h (1 Bft)
14.10.2016 15:11 14,1 °C 14,1 °C 75 % 1006,7 hPa 0,0 mm 3,1 km/h (1 Bft) O-SO 118 ° 0 min 0,000 mm 0,0 UV-I 60 W/m² 9,7 °C 4,8 km/h (1 Bft)
14.10.2016 15:12 14,1 °C 14,1 °C 77 % 1006,7 hPa 0,0 mm 1,6 km/h (1 Bft) O-SO 119 ° 0 min 0,000 mm 0,0 UV-I 60 W/m² 10,1 °C 3,2 km/h (1 Bft)
14.10.2016 15:13 14,2 °C 14,2 °C 77 % 1006,6 hPa 0,0 mm 0,9 km/h (0 Bft) O-SO 119 ° 0 min 0,000 mm 0,0 UV-I 62 W/m² 10,2 °C 3,2 km/h (1 Bft)
14.10.2016 15:14 14,2 °C 14,2 °C 76 % 1006,7 hPa 0,0 mm 1,7 km/h (1 Bft) SO 143 ° 0 min 0,000 mm 0,0 UV-I 62 W/m² 10,0 °C 3,2 km/h (1 Bft)
14.10.2016 15:15 14,3 °C 14,3 °C 77 % 1006,6 hPa 0,0 mm 2,8 km/h (1 Bft) SO 146 ° 0 min 0,000 mm 0,0 UV-I 62 W/m² 10,3 °C 4,8 km/h (1 Bft)
14.10.2016 15:16 14,3 °C 14,3 °C 76 % 1006,7 hPa 0,0 mm 0,5 km/h (0 Bft) SO 146 ° 0 min 0,000 mm 0,0 UV-I 60 W/m² 10,1 °C 3,2 km/h (1 Bft)
14.10.2016 15:17 14,2 °C 14,3 °C 78 % 1006,6 hPa 0,0 mm 1,9 km/h (1 Bft) SO 146 ° 0 min 0,000 mm 0,0 UV-I 60 W/m² 10,4 °C 4,8 km/h (1 Bft)
14.10.2016 15:18 14,3 °C 14,3 °C 76 % 1006,6 hPa 0,0 mm 2,6 km/h (1 Bft) SO 146 ° 0 min 0,000 mm 0,0 UV-I 58 W/m² 10,1 °C 3,2 km/h (1 Bft)
14.10.2016 15:19 14,2 °C 14,3 °C 77 % 1006,5 hPa 0,0 mm 1,0 km/h (0 Bft) SO 146 ° 0 min 0,000 mm 0,0 UV-I 56 W/m² 10,2 °C 1,6 km/h (1 Bft)
14.10.2016 15:20 14,1 °C 14,2 °C 77 % 1006,5 hPa 0,0 mm 0,4 km/h (0 Bft) SO 146 ° 0 min 0,000 mm 0,0 UV-I 56 W/m² 10,1 °C 1,6 km/h (1 Bft)
14.10.2016 15:21 14,1 °C 14,1 °C 79 % 1006,5 hPa 0,0 mm 0,8 km/h (0 Bft) W-SW 254 ° 0 min 0,000 mm 0,0 UV-I 56 W/m² 10,5 °C 1,6 km/h (1 Bft)
14.10.2016 15:22 14,0 °C 14,1 °C 79 % 1006,6 hPa 0,0 mm 0,6 km/h (0 Bft) W-SW 254 ° 0 min 0,000 mm 0,0 UV-I 56 W/m² 10,4 °C 1,6 km/h (1 Bft)
14.10.2016 15:23 13,9 °C 14,0 °C 79 % 1006,6 hPa 0,0 mm 0,0 km/h (0 Bft) W-SW 254 ° 0 min 0,000 mm 0,0 UV-I 56 W/m² 10,3 °C 0,0 km/h (0 Bft)
14.10.2016 15:24 13,9 °C 13,9 °C 80 % 1006,7 hPa 0,0 mm 0,0 km/h (0 Bft) W-SW 254 ° 0 min 0,000 mm 0,0 UV-I 56 W/m² 10,5 °C 0,0 km/h (0 Bft)
14.10.2016 15:25 13,8 °C 13,9 °C 82 % 1006,6 hPa 0,0 mm 0,9 km/h (0 Bft) W-SW 254 ° 0 min 0,000 mm 0,0 UV-I 56 W/m² 10,8 °C 1,6 km/h (1 Bft)
14.10.2016 15:26 13,8 °C 13,8 °C 81 % 1006,6 hPa 0,0 mm 0,0 km/h (0 Bft) W-SW 254 ° 0 min 0,000 mm 0,0 UV-I 56 W/m² 10,6 °C 0,0 km/h (0 Bft)
14.10.2016 15:27 13,8 °C 13,8 °C 82 % 1006,6 hPa 0,0 mm 0,0 km/h (0 Bft) W-SW 254 ° 0 min 0,000 mm 0,0 UV-I 58 W/m² 10,8 °C 0,0 km/h (0 Bft)
14.10.2016 15:28 13,7 °C 13,8 °C 83 % 1006,6 hPa 0,0 mm 0,0 km/h (0 Bft) W-SW 254 ° 0 min 0,000 mm 0,0 UV-I 58 W/m² 10,9 °C 0,0 km/h (0 Bft)
14.10.2016 15:29 13,7 °C 13,7 °C 82 % 1006,5 hPa 0,0 mm 0,2 km/h (0 Bft) W-SW 254 ° 0 min 0,000 mm 0,0 UV-I 56 W/m² 10,7 °C 1,6 km/h (1 Bft)
14.10.2016 15:30 13,7 °C 13,7 °C 82 % 1006,5 hPa 0,0 mm 0,3 km/h (0 Bft) W-SW 254 ° 0 min 0,000 mm 0,0 UV-I 56 W/m² 10,7 °C 1,6 km/h (1 Bft)
14.10.2016 15:31 13,7 °C 13,7 °C 83 % 1006,7 hPa 0,0 mm 0,9 km/h (0 Bft) W-SW 254 ° 0 min 0,000 mm 0,0 UV-I 56 W/m² 10,9 °C 1,6 km/h (1 Bft)
14.10.2016 15:32 13,6 °C 13,7 °C 84 % 1006,6 hPa 0,0 mm 0,7 km/h (0 Bft) W-SW 254 ° 0 min 0,000 mm 0,0 UV-I 56 W/m² 10,9 °C 1,6 km/h (1 Bft)
14.10.2016 15:33 13,6 °C 13,6 °C 84 % 1006,6 hPa 0,0 mm 0,6 km/h (0 Bft) W-SW 254 ° 0 min 0,000 mm 0,0 UV-I 56 W/m² 10,9 °C 1,6 km/h (1 Bft)
14.10.2016 15:34 13,6 °C 13,6 °C 84 % 1006,6 hPa 0,0 mm 0,2 km/h (0 Bft) W-SW 254 ° 0 min 0,000 mm 0,0 UV-I 56 W/m² 10,9 °C 1,6 km/h (1 Bft)
14.10.2016 15:35 13,5 °C 13,6 °C 85 % 1006,5 hPa 0,0 mm 1,9 km/h (1 Bft) W-SW 254 ° 0 min 0,000 mm 0,0 UV-I 56 W/m² 11,0 °C 3,2 km/h (1 Bft)
14.10.2016 15:36 13,5 °C 13,5 °C 84 % 1006,5 hPa 0,0 mm 2,9 km/h (1 Bft) W-NW 294 ° 0 min 0,000 mm 0,0 UV-I 58 W/m² 10,8 °C 3,2 km/h (1 Bft)
14.10.2016 15:37 13,4 °C 13,5 °C 85 % 1006,5 hPa 0,0 mm 0,7 km/h (0 Bft) W-NW 294 ° 0 min 0,000 mm 0,0 UV-I 56 W/m² 10,9 °C 3,2 km/h (1 Bft)
14.10.2016 15:38 13,4 °C 13,4 °C 85 % 1006,5 hPa 0,0 mm 0,8 km/h (0 Bft) W-NW 294 ° 0 min 0,000 mm 0,0 UV-I 56 W/m² 10,9 °C 3,2 km/h (1 Bft)
14.10.2016 15:39 13,3 °C 13,4 °C 85 % 1006,6 hPa 0,0 mm 1,3 km/h (1 Bft) W-NW 294 ° 0 min 0,000 mm 0,0 UV-I 54 W/m² 10,8 °C 3,2 km/h (1 Bft)
14.10.2016 15:40 13,3 °C 13,3 °C 86 % 1006,6 hPa 0,0 mm 1,3 km/h (1 Bft) W-NW 294 ° 0 min 0,000 mm 0,0 UV-I 54 W/m² 11,0 °C 3,2 km/h (1 Bft)
14.10.2016 15:41 13,2 °C 13,3 °C 85 % 1006,5 hPa 0,0 mm 1,6 km/h (1 Bft) W-NW 294 ° 0 min 0,000 mm 0,0 UV-I 53 W/m² 10,7 °C 3,2 km/h (1 Bft)
14.10.2016 15:42 13,2 °C 13,2 °C 85 % 1006,4 hPa 0,0 mm 0,5 km/h (0 Bft) W-NW 294 ° 0 min 0,000 mm 0,0 UV-I 53 W/m² 10,7 °C 1,6 km/h (1 Bft)
14.10.2016 15:43 13,2 °C 13,2 °C 85 % 1006,4 hPa 0,0 mm 0,4 km/h (0 Bft) W-NW 294 ° 0 min 0,000 mm 0,0 UV-I 54 W/m² 10,7 °C 1,6 km/h (1 Bft)
14.10.2016 15:44 13,2 °C 13,2 °C 85 % 1006,3 hPa 0,0 mm 0,8 km/h (0 Bft) W-NW 294 ° 0 min 0,000 mm 0,0 UV-I 54 W/m² 10,7 °C 1,6 km/h (1 Bft)
14.10.2016 15:45 13,1 °C 13,2 °C 85 % 1006,2 hPa 0,0 mm 2,7 km/h (1 Bft) W 273 ° 0 min 0,000 mm 0,0 UV-I 56 W/m² 10,6 °C 4,8 km/h (1 Bft)
14.10.2016 15:46 13,1 °C 13,1 °C 86 % 1006,1 hPa 0,0 mm 2,9 km/h (1 Bft) W 273 ° 0 min 0,000 mm 0,0 UV-I 54 W/m² 10,8 °C 3,2 km/h (1 Bft)
14.10.2016 15:47 13,1 °C 13,1 °C 85 % 1006,1 hPa 0,0 mm 3,3 km/h (1 Bft) SW 216 ° 0 min 0,000 mm 0,0 UV-I 54 W/m² 10,6 °C 4,8 km/h (1 Bft)
14.10.2016 15:48 13,1 °C 13,1 °C 84 % 1006,1 hPa 0,0 mm 4,3 km/h (1 Bft) S 186 ° 0 min 0,000 mm 0,0 UV-I 54 W/m² 10,5 °C 6,4 km/h (2 Bft)
14.10.2016 15:49 13,1 °C 13,1 °C 84 % 1006,0 hPa 0,0 mm 3,6 km/h (1 Bft) S 187 ° 0 min 0,000 mm 0,0 UV-I 54 W/m² 10,5 °C 4,8 km/h (1 Bft)
14.10.2016 15:50 13,1 °C 13,1 °C 85 % 1006,0 hPa 0,0 mm 4,6 km/h (1 Bft) S-SW 194 ° 0 min 0,000 mm 0,0 UV-I 53 W/m² 10,6 °C 6,4 km/h (2 Bft)
14.10.2016 15:51 13,1 °C 13,1 °C 86 % 1006,0 hPa 0,0 mm 1,9 km/h (1 Bft) S-SW 194 ° 0 min 0,000 mm 0,0 UV-I 53 W/m² 10,8 °C 3,2 km/h (1 Bft)
14.10.2016 15:52 13,1 °C 13,1 °C 85 % 1005,9 hPa 0,0 mm 0,7 km/h (0 Bft) S-SW 193 ° 0 min 0,000 mm 0,0 UV-I 53 W/m² 10,6 °C 3,2 km/h (1 Bft)
14.10.2016 15:53 13,0 °C 13,1 °C 85 % 1005,9 hPa 0,0 mm 3,2 km/h (1 Bft) S-SW 193 ° 0 min 0,000 mm 0,0 UV-I 53 W/m² 10,5 °C 4,8 km/h (1 Bft)
14.10.2016 15:54 12,9 °C 13,0 °C 84 % 1005,8 hPa 0,0 mm 2,1 km/h (1 Bft) S-SW 193 ° 0 min 0,000 mm 0,0 UV-I 53 W/m² 10,3 °C 3,2 km/h (1 Bft)
14.10.2016 15:55 12,9 °C 12,9 °C 84 % 1005,7 hPa 0,0 mm 3,2 km/h (1 Bft) N-NO 28 ° 0 min 0,000 mm 0,0 UV-I 54 W/m² 10,3 °C 4,8 km/h (1 Bft)
14.10.2016 15:56 12,9 °C 12,9 °C 86 % 1005,6 hPa 0,0 mm 7,0 km/h (2 Bft) N-NO 22 ° 0 min 0,000 mm 0,0 UV-I 54 W/m² 10,6 °C 8,0 km/h (2 Bft)
14.10.2016 15:57 12,8 °C 12,9 °C 87 % 1005,5 hPa 0,0 mm 4,5 km/h (1 Bft) N-NW 328 ° 0 min 0,000 mm 0,0 UV-I 54 W/m² 10,7 °C 6,4 km/h (2 Bft)
14.10.2016 15:58 12,8 °C 12,9 °C 86 % 1005,4 hPa 0,0 mm 6,0 km/h (2 Bft) NW 304 ° 0 min 0,000 mm 0,0 UV-I 54 W/m² 10,5 °C 9,7 km/h (2 Bft)
14.10.2016 15:59 12,8 °C 12,8 °C 85 % 1005,4 hPa 0,0 mm 4,1 km/h (1 Bft) W 281 ° 0 min 0,000 mm 0,0 UV-I 53 W/m² 10,3 °C 6,4 km/h (2 Bft)
14.10.2016 16:00 12,7 °C 12,8 °C 86 % 1005,5 hPa 0,0 mm 3,9 km/h (1 Bft) NW 308 ° 0 min 0,000 mm 0,0 UV-I 51 W/m² 10,4 °C 4,8 km/h (1 Bft)
14.10.2016 16:01 12,7 °C 12,7 °C 85 % 1005,5 hPa 0,0 mm 2,4 km/h (1 Bft) W 277 ° 0 min 0,025 mm 0,0 UV-I 49 W/m² 10,2 °C 4,8 km/h (1 Bft)
14.10.2016 16:02 12,7 °C 12,7 °C 85 % 1005,6 hPa 0,0 mm 4,6 km/h (1 Bft) W-SW 239 ° 0 min 0,000 mm 0,0 UV-I 47 W/m² 10,2 °C 6,4 km/h (2 Bft)
14.10.2016 16:03 12,6 °C 12,7 °C 85 % 1005,6 hPa 0,0 mm 3,3 km/h (1 Bft) W-SW 239 ° 0 min 0,000 mm 0,0 UV-I 47 W/m² 10,1 °C 4,8 km/h (1 Bft)
14.10.2016 16:04 12,6 °C 12,6 °C 85 % 1005,6 hPa 0,0 mm 3,6 km/h (1 Bft) W-SW 252 ° 0 min 0,000 mm 0,0 UV-I 46 W/m² 10,1 °C 6,4 km/h (2 Bft)
14.10.2016 16:05 12,5 °C 12,6 °C 85 % 1005,7 hPa 0,0 mm 1,7 km/h (1 Bft) S-SW 192 ° 0 min 0,000 mm 0,0 UV-I 44 W/m² 10,0 °C 4,8 km/h (1 Bft)
14.10.2016 16:06 12,5 °C 12,5 °C 84 % 1005,7 hPa 0,0 mm 3,8 km/h (1 Bft) S 181 ° 0 min 0,000 mm 0,0 UV-I 44 W/m² 9,9 °C 6,4 km/h (2 Bft)
14.10.2016 16:07 12,4 °C 12,5 °C 85 % 1005,7 hPa 0,0 mm 3,1 km/h (1 Bft) W-SW 255 ° 0 min 0,000 mm 0,0 UV-I 42 W/m² 9,9 °C 6,4 km/h (2 Bft)
14.10.2016 16:08 12,4 °C 12,5 °C 84 % 1005,7 hPa 0,0 mm 4,1 km/h (1 Bft) W 271 ° 0 min 0,000 mm 0,0 UV-I 40 W/m² 9,8 °C 4,8 km/h (1 Bft)
14.10.2016 16:09 12,4 °C 12,5 °C 84 % 1005,7 hPa 0,0 mm 2,3 km/h (1 Bft) W-NW 282 ° 0 min 0,000 mm 0,0 UV-I 40 W/m² 9,8 °C 6,4 km/h (2 Bft)
14.10.2016 16:10 12,5 °C 12,5 °C 83 % 1005,7 hPa 0,0 mm 4,3 km/h (1 Bft) S-SO 159 ° 0 min 0,000 mm 0,0 UV-I 40 W/m² 9,7 °C 6,4 km/h (2 Bft)
14.10.2016 16:11 12,4 °C 12,5 °C 84 % 1005,6 hPa 0,0 mm 4,4 km/h (1 Bft) SO 124 ° 0 min 0,000 mm 0,0 UV-I 42 W/m² 9,8 °C 6,4 km/h (2 Bft)
14.10.2016 16:12 12,5 °C 12,5 °C 84 % 1005,7 hPa 0,0 mm 4,2 km/h (1 Bft) O 94 ° 0 min 0,000 mm 0,0 UV-I 46 W/m² 9,9 °C 4,8 km/h (1 Bft)
14.10.2016 16:13 12,4 °C 12,5 °C 85 % 1005,6 hPa 0,0 mm 4,0 km/h (1 Bft) O 95 ° 0 min 0,000 mm 0,0 UV-I 47 W/m² 9,9 °C 4,8 km/h (1 Bft)
14.10.2016 16:14 12,4 °C 12,4 °C 85 % 1005,6 hPa 0,0 mm 3,5 km/h (1 Bft) S-SO 160 ° 0 min 0,000 mm 0,0 UV-I 49 W/m² 9,9 °C 6,4 km/h (2 Bft)
14.10.2016 16:15 12,4 °C 12,4 °C 84 % 1005,6 hPa 0,0 mm 5,3 km/h (1 Bft) S-SO 164 ° 0 min 0,000 mm 0,0 UV-I 51 W/m² 9,8 °C 8,0 km/h (2 Bft)
14.10.2016 16:16 12,4 °C 12,4 °C 84 % 1005,6 hPa 0,0 mm 4,5 km/h (1 Bft) S-SO 163 ° 0 min 0,000 mm 0,0 UV-I 53 W/m² 9,8 °C 6,4 km/h (2 Bft)
14.10.2016 16:17 12,5 °C 12,5 °C 85 % 1005,6 hPa 0,0 mm 3,7 km/h (1 Bft) SO 144 ° 0 min 0,000 mm 0,0 UV-I 54 W/m² 10,0 °C 6,4 km/h (2 Bft)
14.10.2016 16:18 12,4 °C 12,5 °C 85 % 1005,6 hPa 0,0 mm 5,0 km/h (1 Bft) O-SO 121 ° 0 min 0,000 mm 0,0 UV-I 56 W/m² 9,9 °C 6,4 km/h (2 Bft)
14.10.2016 16:19 12,4 °C 12,4 °C 84 % 1005,7 hPa 0,0 mm 5,4 km/h (1 Bft) SO 132 ° 0 min 0,000 mm 0,0 UV-I 56 W/m² 9,8 °C 6,4 km/h (2 Bft)
14.10.2016 16:20 12,4 °C 12,4 °C 85 % 1005,5 hPa 0,0 mm 1,5 km/h (1 Bft) SO 132 ° 0 min 0,000 mm 0,0 UV-I 56 W/m² 9,9 °C 3,2 km/h (1 Bft)
14.10.2016 16:21 12,4 °C 12,4 °C 86 % 1005,5 hPa 0,0 mm 0,0 km/h (0 Bft) SO 132 ° 0 min 0,000 mm 0,0 UV-I 56 W/m² 10,1 °C 0,0 km/h (0 Bft)
14.10.2016 16:22 12,4 °C 12,4 °C 86 % 1005,5 hPa 0,0 mm 1,4 km/h (1 Bft) SO 132 ° 0 min 0,000 mm 0,0 UV-I 54 W/m² 10,1 °C 3,2 km/h (1 Bft)
14.10.2016 16:23 12,4 °C 12,4 °C 86 % 1005,5 hPa 0,0 mm 0,7 km/h (0 Bft) SO 132 ° 0 min 0,000 mm 0,0 UV-I 53 W/m² 10,1 °C 1,6 km/h (1 Bft)
14.10.2016 16:24 12,3 °C 12,4 °C 86 % 1005,4 hPa 0,0 mm 0,0 km/h (0 Bft) SO 132 ° 0 min 0,000 mm 0,0 UV-I 53 W/m² 10,0 °C 0,0 km/h (0 Bft)
14.10.2016 16:25 12,3 °C 12,3 °C 86 % 1005,4 hPa 0,0 mm 0,0 km/h (0 Bft) SO 132 ° 0 min 0,000 mm 0,0 UV-I 51 W/m² 10,0 °C 0,0 km/h (0 Bft)
14.10.2016 16:26 12,3 °C 12,3 °C 87 % 1005,4 hPa 0,0 mm 0,1 km/h (0 Bft) SO 133 ° 0 min 0,000 mm 0,0 UV-I 51 W/m² 10,2 °C 1,6 km/h (1 Bft)
14.10.2016 16:27 12,3 °C 12,3 °C 86 % 1005,5 hPa 0,0 mm 4,0 km/h (1 Bft) SW 223 ° 0 min 0,000 mm 0,0 UV-I 51 W/m² 10,0 °C 4,8 km/h (1 Bft)
14.10.2016 16:28 12,3 °C 12,3 °C 86 % 1005,5 hPa 0,0 mm 5,0 km/h (1 Bft) W-SW 251 ° 0 min 0,000 mm 0,0 UV-I 51 W/m² 10,0 °C 6,4 km/h (2 Bft)
14.10.2016 16:29 12,2 °C 12,3 °C 86 % 1005,5 hPa 0,0 mm 4,5 km/h (1 Bft) W 272 ° 0 min 0,000 mm 0,0 UV-I 51 W/m² 9,9 °C 6,4 km/h (2 Bft)
14.10.2016 16:30 12,2 °C 12,2 °C 86 % 1005,4 hPa 0,0 mm 3,2 km/h (1 Bft) W 272 ° 0 min 0,000 mm 0,0 UV-I 53 W/m² 9,9 °C 4,8 km/h (1 Bft)
14.10.2016 16:31 12,2 °C 12,2 °C 86 % 1005,5 hPa 0,0 mm 3,3 km/h (1 Bft) W-SW 238 ° 0 min 0,000 mm 0,0 UV-I 54 W/m² 9,9 °C 4,8 km/h (1 Bft)
14.10.2016 16:32 12,2 °C 12,2 °C 86 % 1005,4 hPa 0,0 mm 4,2 km/h (1 Bft) SW 214 ° 0 min 0,000 mm 0,0 UV-I 54 W/m² 9,9 °C 6,4 km/h (2 Bft)
14.10.2016 16:33 12,2 °C 12,2 °C 86 % 1005,4 hPa 0,0 mm 2,3 km/h (1 Bft) S-SW 213 ° 0 min 0,000 mm 0,0 UV-I 56 W/m² 9,9 °C 3,2 km/h (1 Bft)
14.10.2016 16:34 12,2 °C 12,2 °C 85 % 1005,4 hPa 0,0 mm 3,6 km/h (1 Bft) S-SW 204 ° 0 min 0,000 mm 0,0 UV-I 58 W/m² 9,8 °C 4,8 km/h (1 Bft)
14.10.2016 16:35 12,3 °C 12,3 °C 85 % 1005,4 hPa 0,0 mm 2,5 km/h (1 Bft) S-SW 192 ° 0 min 0,000 mm 0,0 UV-I 58 W/m² 9,9 °C 4,8 km/h (1 Bft)
14.10.2016 16:36 12,3 °C 12,3 °C 85 % 1005,4 hPa 0,0 mm 1,3 km/h (1 Bft) S-SW 192 ° 0 min 0,000 mm 0,0 UV-I 58 W/m² 9,9 °C 1,6 km/h (1 Bft)
14.10.2016 16:37 12,3 °C 12,3 °C 86 % 1005,4 hPa 0,0 mm 1,6 km/h (1 Bft) S-SW 192 ° 0 min 0,000 mm 0,0 UV-I 58 W/m² 10,0 °C 3,2 km/h (1 Bft)
14.10.2016 16:38 12,2 °C 12,3 °C 87 % 1005,5 hPa 0,0 mm 4,4 km/h (1 Bft) S-SO 150 ° 0 min 0,000 mm 0,0 UV-I 58 W/m² 10,1 °C 6,4 km/h (2 Bft)
14.10.2016 16:39 12,2 °C 12,2 °C 86 % 1005,6 hPa 0,0 mm 4,3 km/h (1 Bft) S-SO 150 ° 0 min 0,000 mm 0,0 UV-I 58 W/m² 9,9 °C 4,8 km/h (1 Bft)
14.10.2016 16:40 12,2 °C 12,2 °C 85 % 1005,6 hPa 0,0 mm 2,3 km/h (1 Bft) S-SO 150 ° 0 min 0,000 mm 0,0 UV-I 56 W/m² 9,8 °C 4,8 km/h (1 Bft)
14.10.2016 16:41 12,2 °C 12,2 °C 86 % 1005,6 hPa 0,0 mm 2,6 km/h (1 Bft) S-SO 152 ° 0 min 0,000 mm 0,0 UV-I 54 W/m² 9,9 °C 4,8 km/h (1 Bft)
14.10.2016 16:42 12,3 °C 12,3 °C 85 % 1005,5 hPa 0,0 mm 2,8 km/h (1 Bft) S-SO 157 ° 0 min 0,000 mm 0,0 UV-I 53 W/m² 9,9 °C 4,8 km/h (1 Bft)
14.10.2016 16:43 12,3 °C 12,3 °C 85 % 1005,4 hPa 0,0 mm 3,4 km/h (1 Bft) S-SO 157 ° 0 min 0,000 mm 0,0 UV-I 51 W/m² 9,9 °C 4,8 km/h (1 Bft)
14.10.2016 16:44 12,4 °C 12,4 °C 85 % 1005,4 hPa 0,0 mm 1,7 km/h (1 Bft) S-SO 157 ° 0 min 0,000 mm 0,0 UV-I 49 W/m² 9,9 °C 3,2 km/h (1 Bft)
14.10.2016 16:45 12,4 °C 12,4 °C 84 % 1005,3 hPa 0,0 mm 2,5 km/h (1 Bft) S-SO 157 ° 0 min 0,000 mm 0,0 UV-I 47 W/m² 9,8 °C 3,2 km/h (1 Bft)
14.10.2016 16:46 12,5 °C 12,5 °C 84 % 1005,4 hPa 0,0 mm 2,1 km/h (1 Bft) S-SO 157 ° 0 min 0,000 mm 0,0 UV-I 46 W/m² 9,9 °C 3,2 km/h (1 Bft)
14.10.2016 16:47 12,4 °C 12,5 °C 85 % 1005,4 hPa 0,0 mm 1,1 km/h (1 Bft) S-SO 157 ° 0 min 0,000 mm 0,0 UV-I 42 W/m² 9,9 °C 3,2 km/h (1 Bft)
14.10.2016 16:48 12,3 °C 12,4 °C 86 % 1005,5 hPa 0,0 mm 1,7 km/h (1 Bft) S-SO 157 ° 0 min 0,000 mm 0,0 UV-I 40 W/m² 10,0 °C 3,2 km/h (1 Bft)
14.10.2016 16:49 12,3 °C 12,3 °C 86 % 1005,5 hPa 0,0 mm 0,3 km/h (0 Bft) S-SO 157 ° 0 min 0,000 mm 0,0 UV-I 40 W/m² 10,0 °C 1,6 km/h (1 Bft)
14.10.2016 16:50 12,2 °C 12,3 °C 86 % 1005,5 hPa 0,0 mm 1,5 km/h (1 Bft) S-SO 157 ° 0 min 0,000 mm 0,0 UV-I 39 W/m² 9,9 °C 3,2 km/h (1 Bft)
14.10.2016 16:51 12,2 °C 12,2 °C 86 % 1005,6 hPa 0,0 mm 0,6 km/h (0 Bft) S-SO 157 ° 0 min 0,000 mm 0,0 UV-I 39 W/m² 9,9 °C 1,6 km/h (1 Bft)
14.10.2016 16:52 12,2 °C 12,2 °C 86 % 1005,6 hPa 0,0 mm 1,4 km/h (1 Bft) S-SO 157 ° 0 min 0,000 mm 0,0 UV-I 39 W/m² 9,9 °C 3,2 km/h (1 Bft)
14.10.2016 16:53 12,2 °C 12,2 °C 87 % 1005,7 hPa 0,0 mm 3,0 km/h (1 Bft) W-SW 244 ° 0 min 0,000 mm 0,0 UV-I 39 W/m² 10,1 °C 4,8 km/h (1 Bft)
14.10.2016 16:54 12,1 °C 12,2 °C 87 % 1005,7 hPa 0,0 mm 3,2 km/h (1 Bft) W-SW 244 ° 0 min 0,000 mm 0,0 UV-I 37 W/m² 10,0 °C 4,8 km/h (1 Bft)
14.10.2016 16:55 12,1 °C 12,1 °C 87 % 1005,7 hPa 0,0 mm 1,9 km/h (1 Bft) W-SW 244 ° 0 min 0,000 mm 0,0 UV-I 37 W/m² 10,0 °C 3,2 km/h (1 Bft)
14.10.2016 16:56 12,1 °C 12,1 °C 87 % 1005,8 hPa 0,0 mm 2,5 km/h (1 Bft) W-SW 244 ° 0 min 0,000 mm 0,0 UV-I 35 W/m² 10,0 °C 3,2 km/h (1 Bft)
14.10.2016 16:57 12,0 °C 12,1 °C 87 % 1005,9 hPa 0,0 mm 0,8 km/h (0 Bft) W-SW 244 ° 0 min 0,000 mm 0,0 UV-I 35 W/m² 9,9 °C 1,6 km/h (1 Bft)
14.10.2016 16:58 12,0 °C 12,0 °C 87 % 1006,0 hPa 0,0 mm 0,7 km/h (0 Bft) W-SW 244 ° 0 min 0,000 mm 0,0 UV-I 33 W/m² 9,9 °C 1,6 km/h (1 Bft)
14.10.2016 16:59 12,0 °C 12,0 °C 87 % 1006,0 hPa 0,0 mm 0,7 km/h (0 Bft) W-SW 244 ° 0 min 0,000 mm 0,0 UV-I 32 W/m² 9,9 °C 1,6 km/h (1 Bft)
14.10.2016 17:00 11,9 °C 12,0 °C 87 % 1006,0 hPa 0,0 mm 2,2 km/h (1 Bft) W-SW 244 ° 0 min 0,000 mm 0,0 UV-I 32 W/m² 9,8 °C 3,2 km/h (1 Bft)
14.10.2016 17:01 11,9 °C 12,0 °C 87 % 1006,0 hPa 0,0 mm 1,7 km/h (1 Bft) W-SW 244 ° 0 min 0,025 mm 0,0 UV-I 30 W/m² 9,8 °C 3,2 km/h (1 Bft)
14.10.2016 17:02 12,0 °C 12,0 °C 87 % 1006,0 hPa 0,0 mm 1,5 km/h (1 Bft) W-SW 243 ° 0 min 0,001 mm 0,0 UV-I 28 W/m² 9,9 °C 3,2 km/h (1 Bft)
14.10.2016 17:03 12,0 °C 12,0 °C 86 % 1006,0 hPa 0,0 mm 2,5 km/h (1 Bft) W-SW 243 ° 0 min 0,000 mm 0,0 UV-I 26 W/m² 9,7 °C 3,2 km/h (1 Bft)
14.10.2016 17:04 12,0 °C 12,0 °C 86 % 1006,0 hPa 0,0 mm 2,5 km/h (1 Bft) W-SW 243 ° 0 min 0,000 mm 0,0 UV-I 25 W/m² 9,7 °C 3,2 km/h (1 Bft)
14.10.2016 17:05 12,1 °C 12,1 °C 86 % 1006,0 hPa 0,0 mm 2,2 km/h (1 Bft) W-SW 243 ° 0 min 0,000 mm 0,0 UV-I 23 W/m² 9,8 °C 3,2 km/h (1 Bft)
14.10.2016 17:06 12,1 °C 12,1 °C 86 % 1006,0 hPa 0,0 mm 2,1 km/h (1 Bft) S-SW 194 ° 0 min 0,000 mm 0,0 UV-I 23 W/m² 9,8 °C 3,2 km/h (1 Bft)
14.10.2016 17:07 12,1 °C 12,1 °C 87 % 1006,0 hPa 0,0 mm 3,4 km/h (1 Bft) S 185 ° 0 min 0,000 mm 0,0 UV-I 23 W/m² 10,0 °C 4,8 km/h (1 Bft)
14.10.2016 17:08 12,1 °C 12,1 °C 87 % 1006,0 hPa 0,0 mm 3,4 km/h (1 Bft) S 184 ° 0 min 0,000 mm 0,0 UV-I 21 W/m² 10,0 °C 4,8 km/h (1 Bft)
14.10.2016 17:09 12,0 °C 12,1 °C 87 % 1005,9 hPa 0,0 mm 3,3 km/h (1 Bft) S 178 ° 0 min 0,000 mm 0,0 UV-I 21 W/m² 9,9 °C 4,8 km/h (1 Bft)
14.10.2016 17:10 12,0 °C 12,0 °C 87 % 1005,9 hPa 0,0 mm 2,5 km/h (1 Bft) S 176 ° 0 min 0,000 mm 0,0 UV-I 21 W/m² 9,9 °C 4,8 km/h (1 Bft)
14.10.2016 17:11 11,9 °C 12,0 °C 87 % 1005,9 hPa 0,0 mm 1,9 km/h (1 Bft) S 176 ° 0 min 0,000 mm 0,0 UV-I 21 W/m² 9,8 °C 3,2 km/h (1 Bft)
14.10.2016 17:12 11,9 °C 11,9 °C 87 % 1005,9 hPa 0,0 mm 1,9 km/h (1 Bft) S 176 ° 0 min 0,000 mm 0,0 UV-I 21 W/m² 9,8 °C 3,2 km/h (1 Bft)
14.10.2016 17:13 11,9 °C 11,9 °C 87 % 1005,9 hPa 0,0 mm 2,3 km/h (1 Bft) S 176 ° 0 min 0,000 mm 0,0 UV-I 21 W/m² 9,8 °C 3,2 km/h (1 Bft)
14.10.2016 17:14 11,9 °C 11,9 °C 86 % 1006,0 hPa 0,0 mm 0,9 km/h (0 Bft) S 176 ° 0 min 0,000 mm 0,0 UV-I 21 W/m² 9,6 °C 1,6 km/h (1 Bft)
14.10.2016 17:15 11,9 °C 11,9 °C 86 % 1006,0 hPa 0,0 mm 0,3 km/h (0 Bft) S 176 ° 0 min 0,000 mm 0,0 UV-I 21 W/m² 9,6 °C 1,6 km/h (1 Bft)
14.10.2016 17:16 11,9 °C 11,9 °C 85 % 1006,0 hPa 0,0 mm 0,6 km/h (0 Bft) S 176 ° 0 min 0,000 mm 0,0 UV-I 23 W/m² 9,5 °C 1,6 km/h (1 Bft)
14.10.2016 17:17 12,1 °C 12,1 °C 85 % 1005,9 hPa 0,0 mm 0,0 km/h (0 Bft) S 176 ° 0 min 0,000 mm 0,0 UV-I 23 W/m² 9,7 °C 0,0 km/h (0 Bft)
14.10.2016 17:18 12,2 °C 12,2 °C 85 % 1005,8 hPa 0,0 mm 0,5 km/h (0 Bft) S 176 ° 0 min 0,000 mm 0,0 UV-I 25 W/m² 9,8 °C 1,6 km/h (1 Bft)
14.10.2016 17:19 12,3 °C 12,3 °C 85 % 1005,8 hPa 0,0 mm 0,6 km/h (0 Bft) S 176 ° 0 min 0,000 mm 0,0 UV-I 25 W/m² 9,9 °C 3,2 km/h (1 Bft)
14.10.2016 17:20 12,6 °C 12,6 °C 84 % 1005,9 hPa 0,0 mm 0,4 km/h (0 Bft) S 176 ° 0 min 0,000 mm 0,0 UV-I 26 W/m² 10,0 °C 3,2 km/h (1 Bft)
14.10.2016 17:21 12,7 °C 12,7 °C 84 % 1005,9 hPa 0,0 mm 1,2 km/h (1 Bft) SW 221 ° 0 min 0,000 mm 0,0 UV-I 26 W/m² 10,1 °C 3,2 km/h (1 Bft)
14.10.2016 17:22 12,6 °C 12,7 °C 84 % 1005,9 hPa 0,0 mm 2,5 km/h (1 Bft) W-SW 244 ° 0 min 0,000 mm 0,0 UV-I 28 W/m² 10,0 °C 3,2 km/h (1 Bft)
14.10.2016 17:23 12,5 °C 12,6 °C 84 % 1005,9 hPa 0,0 mm 2,0 km/h (1 Bft) W-SW 244 ° 0 min 0,000 mm 0,0 UV-I 30 W/m² 9,9 °C 3,2 km/h (1 Bft)
14.10.2016 17:24 12,4 °C 12,6 °C 85 % 1005,8 hPa 0,0 mm 2,4 km/h (1 Bft) W-SW 244 ° 0 min 0,000 mm 0,0 UV-I 30 W/m² 9,9 °C 3,2 km/h (1 Bft)
14.10.2016 17:25 12,3 °C 12,4 °C 86 % 1005,8 hPa 0,0 mm 1,6 km/h (1 Bft) W-SW 244 ° 0 min 0,000 mm 0,0 UV-I 32 W/m² 10,0 °C 3,2 km/h (1 Bft)
14.10.2016 17:26 12,1 °C 12,3 °C 86 % 1005,8 hPa 0,0 mm 0,3 km/h (0 Bft) W-SW 244 ° 0 min 0,000 mm 0,0 UV-I 33 W/m² 9,8 °C 1,6 km/h (1 Bft)
14.10.2016 17:27 12,0 °C 12,1 °C 87 % 1005,7 hPa 0,0 mm 0,3 km/h (0 Bft) W-SW 244 ° 0 min 0,000 mm 0,0 UV-I 33 W/m² 9,9 °C 1,6 km/h (1 Bft)
14.10.2016 17:28 11,9 °C 12,1 °C 87 % 1005,7 hPa 0,0 mm 1,0 km/h (0 Bft) W-SW 244 ° 0 min 0,000 mm 0,0 UV-I 35 W/m² 9,8 °C 1,6 km/h (1 Bft)
14.10.2016 17:29 11,8 °C 11,9 °C 87 % 1005,7 hPa 0,0 mm 0,2 km/h (0 Bft) W-SW 244 ° 0 min 0,000 mm 0,0 UV-I 35 W/m² 9,7 °C 1,6 km/h (1 Bft)
14.10.2016 17:30 11,8 °C 11,8 °C 88 % 1005,7 hPa 0,0 mm 0,0 km/h (0 Bft) W-SW 244 ° 0 min 0,000 mm 0,0 UV-I 37 W/m² 9,9 °C 0,0 km/h (0 Bft)
14.10.2016 17:31 11,8 °C 11,8 °C 88 % 1005,7 hPa 0,0 mm 0,0 km/h (0 Bft) W-SW 244 ° 0 min 0,000 mm 0,0 UV-I 37 W/m² 9,9 °C 0,0 km/h (0 Bft)
14.10.2016 17:32 11,7 °C 11,8 °C 88 % 1005,7 hPa 0,0 mm 1,3 km/h (1 Bft) W-SW 244 ° 0 min 0,000 mm 0,0 UV-I 37 W/m² 9,8 °C 1,6 km/h (1 Bft)
14.10.2016 17:33 11,7 °C 11,8 °C 88 % 1005,7 hPa 0,0 mm 1,4 km/h (1 Bft) W-SW 244 ° 0 min 0,000 mm 0,0 UV-I 37 W/m² 9,8 °C 1,6 km/h (1 Bft)
14.10.2016 17:34 11,8 °C 11,8 °C 88 % 1005,7 hPa 0,0 mm 3,1 km/h (1 Bft) W-SW 244 ° 0 min 0,000 mm 0,0 UV-I 35 W/m² 9,9 °C 4,8 km/h (1 Bft)
14.10.2016 17:35 11,8 °C 11,8 °C 88 % 1005,7 hPa 0,0 mm 4,6 km/h (1 Bft) W-SW 250 ° 0 min 0,000 mm 0,0 UV-I 35 W/m² 9,9 °C 4,8 km/h (1 Bft)
14.10.2016 17:36 11,8 °C 11,8 °C 88 % 1005,7 hPa 0,0 mm 2,6 km/h (1 Bft) W 259 ° 0 min 0,000 mm 0,0 UV-I 35 W/m² 9,9 °C 3,2 km/h (1 Bft)
14.10.2016 17:37 11,8 °C 11,8 °C 88 % 1005,7 hPa 0,0 mm 2,5 km/h (1 Bft) W 259 ° 0 min 0,000 mm 0,0 UV-I 35 W/m² 9,9 °C 3,2 km/h (1 Bft)
14.10.2016 17:38 11,7 °C 11,8 °C 88 % 1005,7 hPa 0,0 mm 2,1 km/h (1 Bft) W 259 ° 0 min 0,000 mm 0,0 UV-I 37 W/m² 9,8 °C 3,2 km/h (1 Bft)
14.10.2016 17:39 11,7 °C 11,7 °C 88 % 1005,7 hPa 0,0 mm 1,8 km/h (1 Bft) W 259 ° 0 min 0,000 mm 0,0 UV-I 37 W/m² 9,8 °C 3,2 km/h (1 Bft)
14.10.2016 17:40 11,7 °C 11,7 °C 88 % 1005,7 hPa 0,0 mm 0,9 km/h (0 Bft) W 259 ° 0 min 0,000 mm 0,0 UV-I 39 W/m² 9,8 °C 1,6 km/h (1 Bft)
14.10.2016 17:41 11,6 °C 11,7 °C 89 % 1005,7 hPa 0,0 mm 1,8 km/h (1 Bft) W 259 ° 0 min 0,000 mm 0,0 UV-I 39 W/m² 9,8 °C 3,2 km/h (1 Bft)
14.10.2016 17:42 11,6 °C 11,6 °C 89 % 1005,8 hPa 0,0 mm 2,5 km/h (1 Bft) W 259 ° 0 min 0,000 mm 0,0 UV-I 39 W/m² 9,8 °C 3,2 km/h (1 Bft)
14.10.2016 17:43 11,6 °C 11,6 °C 89 % 1005,7 hPa 0,0 mm 1,7 km/h (1 Bft) W 259 ° 0 min 0,000 mm 0,0 UV-I 39 W/m² 9,8 °C 3,2 km/h (1 Bft)
14.10.2016 17:44 11,6 °C 11,6 °C 89 % 1005,7 hPa 0,0 mm 1,7 km/h (1 Bft) W 259 ° 0 min 0,000 mm 0,0 UV-I 39 W/m² 9,8 °C 3,2 km/h (1 Bft)
14.10.2016 17:45 11,6 °C 11,6 °C 89 % 1005,7 hPa 0,0 mm 2,7 km/h (1 Bft) W 259 ° 0 min 0,000 mm 0,0 UV-I 39 W/m² 9,8 °C 3,2 km/h (1 Bft)
14.10.2016 17:46 11,6 °C 11,6 °C 89 % 1005,7 hPa 0,0 mm 2,0 km/h (1 Bft) W 259 ° 0 min 0,000 mm 0,0 UV-I 39 W/m² 9,8 °C 3,2 km/h (1 Bft)
14.10.2016 17:47 11,6 °C 11,6 °C 88 % 1005,7 hPa 0,0 mm 1,7 km/h (1 Bft) W 259 ° 0 min 0,000 mm 0,0 UV-I 39 W/m² 9,7 °C 3,2 km/h (1 Bft)
14.10.2016 17:48 11,6 °C 11,6 °C 88 % 1005,6 hPa 0,0 mm 1,5 km/h (1 Bft) W 259 ° 0 min 0,000 mm 0,0 UV-I 37 W/m² 9,7 °C 1,6 km/h (1 Bft)
14.10.2016 17:49 11,6 °C 11,6 °C 89 % 1005,6 hPa 0,0 mm 1,9 km/h (1 Bft) W 259 ° 0 min 0,000 mm 0,0 UV-I 37 W/m² 9,8 °C 3,2 km/h (1 Bft)
14.10.2016 17:50 11,6 °C 11,6 °C 89 % 1005,6 hPa 0,0 mm 1,9 km/h (1 Bft) W 259 ° 0 min 0,000 mm 0,0 UV-I 37 W/m² 9,8 °C 4,8 km/h (1 Bft)
14.10.2016 17:51 11,6 °C 11,6 °C 89 % 1005,6 hPa 0,0 mm 1,1 km/h (1 Bft) W 259 ° 0 min 0,000 mm 0,0 UV-I 35 W/m² 9,8 °C 1,6 km/h (1 Bft)
14.10.2016 17:52 11,6 °C 11,6 °C 89 % 1005,7 hPa 0,0 mm 1,1 km/h (1 Bft) W 259 ° 0 min 0,000 mm 0,0 UV-I 35 W/m² 9,8 °C 1,6 km/h (1 Bft)
14.10.2016 17:53 11,7 °C 11,7 °C 88 % 1005,6 hPa 0,0 mm 2,9 km/h (1 Bft) SW 235 ° 0 min 0,000 mm 0,0 UV-I 33 W/m² 9,8 °C 4,8 km/h (1 Bft)
14.10.2016 17:54 11,8 °C 11,8 °C 88 % 1005,6 hPa 0,0 mm 2,1 km/h (1 Bft) SW 235 ° 0 min 0,000 mm 0,0 UV-I 32 W/m² 9,9 °C 4,8 km/h (1 Bft)
14.10.2016 17:55 11,9 °C 11,9 °C 88 % 1005,6 hPa 0,0 mm 1,4 km/h (1 Bft) SW 235 ° 0 min 0,000 mm 0,0 UV-I 30 W/m² 10,0 °C 1,6 km/h (1 Bft)
14.10.2016 17:56 12,1 °C 12,1 °C 88 % 1005,6 hPa 0,0 mm 0,5 km/h (0 Bft) SW 235 ° 0 min 0,000 mm 0,0 UV-I 30 W/m² 10,2 °C 1,6 km/h (1 Bft)
14.10.2016 17:57 12,1 °C 12,1 °C 88 % 1005,6 hPa 0,0 mm 0,4 km/h (0 Bft) SW 235 ° 0 min 0,000 mm 0,0 UV-I 26 W/m² 10,2 °C 1,6 km/h (1 Bft)
14.10.2016 17:58 12,2 °C 12,2 °C 87 % 1005,5 hPa 0,0 mm 1,6 km/h (1 Bft) SW 234 ° 0 min 0,000 mm 0,0 UV-I 25 W/m² 10,1 °C 4,8 km/h (1 Bft)
14.10.2016 17:59 12,3 °C 12,3 °C 86 % 1005,6 hPa 0,0 mm 2,0 km/h (1 Bft) SW 234 ° 0 min 0,000 mm 0,0 UV-I 23 W/m² 10,0 °C 3,2 km/h (1 Bft)
14.10.2016 18:00 12,6 °C 12,6 °C 85 % 1005,6 hPa 0,0 mm 1,1 km/h (1 Bft) SW 234 ° 0 min 0,000 mm 0,0 UV-I 21 W/m² 10,1 °C 1,6 km/h (1 Bft)
14.10.2016 18:01 12,7 °C 12,7 °C 84 % 1005,6 hPa 0,0 mm 1,3 km/h (1 Bft) SW 234 ° 0 min 0,025 mm 0,0 UV-I 21 W/m² 10,1 °C 3,2 km/h (1 Bft)
14.10.2016 18:02 12,8 °C 12,8 °C 84 % 1005,7 hPa 0,0 mm 1,6 km/h (1 Bft) SW 232 ° 0 min 0,000 mm 0,0 UV-I 18 W/m² 10,2 °C 3,2 km/h (1 Bft)
14.10.2016 18:03 12,9 °C 12,9 °C 84 % 1005,8 hPa 0,0 mm 0,4 km/h (0 Bft) SW 232 ° 0 min 0,000 mm 0,0 UV-I 16 W/m² 10,3 °C 1,6 km/h (1 Bft)
14.10.2016 18:04 12,9 °C 12,9 °C 84 % 1005,8 hPa 0,0 mm 0,2 km/h (0 Bft) SW 232 ° 0 min 0,000 mm 0,0 UV-I 16 W/m² 10,3 °C 1,6 km/h (1 Bft)
14.10.2016 18:05 12,8 °C 12,9 °C 85 % 1005,8 hPa 0,0 mm 1,0 km/h (0 Bft) SW 232 ° 0 min 0,000 mm 0,0 UV-I 14 W/m² 10,3 °C 3,2 km/h (1 Bft)
14.10.2016 18:06 12,8 °C 12,8 °C 84 % 1005,8 hPa 0,0 mm 1,9 km/h (1 Bft) SW 232 ° 0 min 0,000 mm 0,0 UV-I 14 W/m² 10,2 °C 3,2 km/h (1 Bft)
14.10.2016 18:07 12,7 °C 12,8 °C 85 % 1005,9 hPa 0,0 mm 2,1 km/h (1 Bft) SW 224 ° 0 min 0,000 mm 0,0 UV-I 14 W/m² 10,2 °C 3,2 km/h (1 Bft)
14.10.2016 18:08 12,6 °C 12,7 °C 85 % 1005,8 hPa 0,0 mm 2,5 km/h (1 Bft) S-SW 204 ° 0 min 0,000 mm 0,0 UV-I 12 W/m² 10,1 °C 3,2 km/h (1 Bft)
14.10.2016 18:09 12,6 °C 12,6 °C 86 % 1005,8 hPa 0,0 mm 2,3 km/h (1 Bft) S-SW 204 ° 0 min 0,000 mm 0,0 UV-I 12 W/m² 10,3 °C 3,2 km/h (1 Bft)
14.10.2016 18:10 12,5 °C 12,6 °C 86 % 1005,9 hPa 0,0 mm 2,4 km/h (1 Bft) S-SW 204 ° 0 min 0,000 mm 0,0 UV-I 12 W/m² 10,2 °C 3,2 km/h (1 Bft)
14.10.2016 18:11 12,6 °C 12,6 °C 86 % 1005,8 hPa 0,0 mm 1,2 km/h (1 Bft) S-SW 204 ° 0 min 0,000 mm 0,0 UV-I 11 W/m² 10,3 °C 3,2 km/h (1 Bft)
14.10.2016 18:12 12,7 °C 12,7 °C 85 % 1005,8 hPa 0,0 mm 0,9 km/h (0 Bft) S-SW 204 ° 0 min 0,000 mm 0,0 UV-I 11 W/m² 10,2 °C 3,2 km/h (1 Bft)
14.10.2016 18:13 12,8 °C 12,8 °C 83 % 1005,9 hPa 0,0 mm 2,9 km/h (1 Bft) S-SW 204 ° 0 min 0,000 mm 0,0 UV-I 11 W/m² 10,0 °C 3,2 km/h (1 Bft)
14.10.2016 18:14 13,1 °C 13,1 °C 82 % 1005,8 hPa 0,0 mm 3,0 km/h (1 Bft) S-SW 204 ° 0 min 0,000 mm 0,0 UV-I 9 W/m² 10,1 °C 3,2 km/h (1 Bft)
14.10.2016 18:15 13,2 °C 13,2 °C 81 % 1005,8 hPa 0,0 mm 3,2 km/h (1 Bft) S-SW 204 ° 0 min 0,000 mm 0,0 UV-I 7 W/m² 10,0 °C 3,2 km/h (1 Bft)
14.10.2016 18:16 13,4 °C 13,4 °C 81 % 1005,8 hPa 0,0 mm 3,1 km/h (1 Bft) S-SW 203 ° 0 min 0,000 mm 0,0 UV-I 7 W/m² 10,2 °C 3,2 km/h (1 Bft)
14.10.2016 18:17 13,6 °C 13,6 °C 81 % 1005,8 hPa 0,0 mm 2,0 km/h (1 Bft) S-SW 203 ° 0 min 0,000 mm 0,0 UV-I 7 W/m² 10,4 °C 3,2 km/h (1 Bft)
14.10.2016 18:18 13,6 °C 13,6 °C 81 % 1005,8 hPa 0,0 mm 1,0 km/h (0 Bft) S-SW 203 ° 0 min 0,000 mm 0,0 UV-I 5 W/m² 10,4 °C 1,6 km/h (1 Bft)
14.10.2016 18:19 13,5 °C 13,6 °C 81 % 1005,8 hPa 0,0 mm 0,6 km/h (0 Bft) S-SW 203 ° 0 min 0,000 mm 0,0 UV-I 5 W/m² 10,3 °C 1,6 km/h (1 Bft)
14.10.2016 18:20 13,4 °C 13,5 °C 81 % 1005,9 hPa 0,0 mm 0,0 km/h (0 Bft) S-SW 203 ° 0 min 0,000 mm 0,0 UV-I 5 W/m² 10,2 °C 0,0 km/h (0 Bft)
14.10.2016 18:21 13,2 °C 13,4 °C 82 % 1005,9 hPa 0,0 mm 2,6 km/h (1 Bft) S-SW 213 ° 0 min 0,000 mm 0,0 UV-I 0 W/m² 10,2 °C 3,2 km/h (1 Bft)
14.10.2016 18:22 13,1 °C 13,2 °C 83 % 1005,9 hPa 0,0 mm 3,4 km/h (1 Bft) W-SW 252 ° 0 min 0,000 mm 0,0 UV-I 0 W/m² 10,3 °C 4,8 km/h (1 Bft)
14.10.2016 18:23 12,8 °C 13,1 °C 83 % 1005,9 hPa 0,0 mm 1,8 km/h (1 Bft) W-SW 252 ° 0 min 0,000 mm 0,0 UV-I 0 W/m² 10,0 °C 3,2 km/h (1 Bft)
14.10.2016 18:24 12,6 °C 12,8 °C 84 % 1005,9 hPa 0,0 mm 2,4 km/h (1 Bft) W-SW 252 ° 0 min 0,000 mm 0,0 UV-I 0 W/m² 10,0 °C 3,2 km/h (1 Bft)
14.10.2016 18:25 12,3 °C 12,6 °C 85 % 1005,9 hPa 0,0 mm 1,1 km/h (1 Bft) W-SW 252 ° 0 min 0,000 mm 0,0 UV-I 0 W/m² 9,9 °C 1,6 km/h (1 Bft)
14.10.2016 18:26 12,2 °C 12,3 °C 85 % 1005,9 hPa 0,0 mm 1,7 km/h (1 Bft) W-SW 252 ° 0 min 0,000 mm 0,0 UV-I 0 W/m² 9,8 °C 3,2 km/h (1 Bft)
14.10.2016 18:27 11,9 °C 12,2 °C 86 % 1005,9 hPa 0,0 mm 1,0 km/h (0 Bft) W-SW 252 ° 0 min 0,000 mm 0,0 UV-I 5 W/m² 9,6 °C 1,6 km/h (1 Bft)
14.10.2016 18:28 11,8 °C 11,9 °C 86 % 1005,9 hPa 0,0 mm 0,9 km/h (0 Bft) W-SW 252 ° 0 min 0,000 mm 0,0 UV-I 5 W/m² 9,5 °C 1,6 km/h (1 Bft)
14.10.2016 18:29 11,7 °C 11,8 °C 87 % 1005,9 hPa 0,0 mm 0,5 km/h (0 Bft) W-SW 252 ° 0 min 0,000 mm 0,0 UV-I 5 W/m² 9,6 °C 1,6 km/h (1 Bft)
14.10.2016 18:30 11,6 °C 11,7 °C 87 % 1005,9 hPa 0,0 mm 0,0 km/h (0 Bft) W-SW 252 ° 0 min 0,000 mm 0,0 UV-I 5 W/m² 9,5 °C 0,0 km/h (0 Bft)
14.10.2016 18:31 11,5 °C 11,6 °C 87 % 1005,9 hPa 0,0 mm 0,4 km/h (0 Bft) W-SW 252 ° 0 min 0,000 mm 0,0 UV-I 5 W/m² 9,4 °C 1,6 km/h (1 Bft)
14.10.2016 18:32 11,4 °C 11,5 °C 88 % 1005,8 hPa 0,0 mm 1,8 km/h (1 Bft) SW 227 ° 0 min 0,000 mm 0,0 UV-I 0 W/m² 9,5 °C 3,2 km/h (1 Bft)
14.10.2016 18:33 11,3 °C 11,4 °C 88 % 1005,8 hPa 0,0 mm 2,1 km/h (1 Bft) SW 227 ° 0 min 0,000 mm 0,0 UV-I 0 W/m² 9,4 °C 3,2 km/h (1 Bft)
14.10.2016 18:34 11,3 °C 11,3 °C 89 % 1005,8 hPa 0,0 mm 2,1 km/h (1 Bft) SW 227 ° 0 min 0,000 mm 0,0 UV-I 0 W/m² 9,6 °C 3,2 km/h (1 Bft)
14.10.2016 18:35 11,3 °C 11,3 °C 89 % 1005,8 hPa 0,0 mm 1,4 km/h (1 Bft) SW 227 ° 0 min 0,000 mm 0,0 UV-I 0 W/m² 9,6 °C 3,2 km/h (1 Bft)
14.10.2016 18:36 11,3 °C 11,3 °C 88 % 1005,8 hPa 0,0 mm 1,5 km/h (1 Bft) SW 227 ° 0 min 0,000 mm 0,0 UV-I 0 W/m² 9,4 °C 3,2 km/h (1 Bft)
14.10.2016 18:37 11,2 °C 11,3 °C 89 % 1005,8 hPa 0,0 mm 1,7 km/h (1 Bft) SW 227 ° 0 min 0,000 mm 0,0 UV-I 0 W/m² 9,5 °C 3,2 km/h (1 Bft)
14.10.2016 18:38 11,2 °C 11,2 °C 89 % 1005,7 hPa 0,0 mm 1,3 km/h (1 Bft) SW 227 ° 0 min 0,000 mm 0,0 UV-I 0 W/m² 9,5 °C 1,6 km/h (1 Bft)
14.10.2016 18:39 11,2 °C 11,2 °C 89 % 1005,7 hPa 0,0 mm 1,8 km/h (1 Bft) SW 227 ° 0 min 0,000 mm 0,0 UV-I 0 W/m² 9,5 °C 3,2 km/h (1 Bft)
14.10.2016 18:40 11,2 °C 11,2 °C 89 % 1005,7 hPa 0,0 mm 2,1 km/h (1 Bft) SW 227 ° 0 min 0,000 mm 0,0 UV-I 0 W/m² 9,5 °C 3,2 km/h (1 Bft)
14.10.2016 18:41 11,2 °C 11,2 °C 89 % 1005,7 hPa 0,0 mm 1,6 km/h (1 Bft) SW 227 ° 0 min 0,000 mm 0,0 UV-I 0 W/m² 9,5 °C 3,2 km/h (1 Bft)
14.10.2016 18:42 11,3 °C 11,3 °C 88 % 1005,7 hPa 0,0 mm 1,3 km/h (1 Bft) SW 227 ° 0 min 0,000 mm 0,0 UV-I 0 W/m² 9,4 °C 3,2 km/h (1 Bft)
14.10.2016 18:43 11,3 °C 11,3 °C 88 % 1005,7 hPa 0,0 mm 2,1 km/h (1 Bft) SW 227 ° 0 min 0,000 mm 0,0 UV-I 0 W/m² 9,4 °C 3,2 km/h (1 Bft)
14.10.2016 18:44 11,3 °C 11,3 °C 88 % 1005,8 hPa 0,0 mm 1,0 km/h (0 Bft) SW 227 ° 0 min 0,000 mm 0,0 UV-I 0 W/m² 9,4 °C 1,6 km/h (1 Bft)
14.10.2016 18:45 11,3 °C 11,3 °C 87 % 1005,8 hPa 0,0 mm 1,7 km/h (1 Bft) S-SW 212 ° 0 min 0,000 mm 0,0 UV-I 0 W/m² 9,2 °C 3,2 km/h (1 Bft)
14.10.2016 18:46 11,3 °C 11,3 °C 87 % 1005,8 hPa 0,0 mm 0,8 km/h (0 Bft) S-SW 212 ° 0 min 0,000 mm 0,0 UV-I 0 W/m² 9,2 °C 1,6 km/h (1 Bft)
14.10.2016 18:47 11,5 °C 11,5 °C 86 % 1005,9 hPa 0,0 mm 0,0 km/h (0 Bft) S-SW 212 ° 0 min 0,000 mm 0,0 UV-I 0 W/m² 9,2 °C 0,0 km/h (0 Bft)
14.10.2016 18:48 11,6 °C 11,6 °C 86 % 1005,8 hPa 0,0 mm 0,0 km/h (0 Bft) S-SW 212 ° 0 min 0,000 mm 0,0 UV-I 0 W/m² 9,3 °C 0,0 km/h (0 Bft)
14.10.2016 18:49 11,7 °C 11,7 °C 85 % 1005,8 hPa 0,0 mm 0,0 km/h (0 Bft) S-SW 212 ° 0 min 0,000 mm 0,0 UV-I 0 W/m² 9,3 °C 0,0 km/h (0 Bft)
14.10.2016 18:50 11,7 °C 11,7 °C 85 % 1005,8 hPa 0,0 mm 0,7 km/h (0 Bft) S-SW 212 ° 0 min 0,000 mm 0,0 UV-I 0 W/m² 9,3 °C 3,2 km/h (1 Bft)
14.10.2016 18:51 11,8 °C 11,8 °C 84 % 1005,9 hPa 0,0 mm 1,6 km/h (1 Bft) S-SW 212 ° 0 min 0,000 mm 0,0 UV-I 0 W/m² 9,2 °C 3,2 km/h (1 Bft)
14.10.2016 18:52 11,9 °C 11,9 °C 84 % 1005,9 hPa 0,0 mm 1,7 km/h (1 Bft) S-SW 212 ° 0 min 0,000 mm 0,0 UV-I 0 W/m² 9,3 °C 3,2 km/h (1 Bft)
14.10.2016 18:53 11,9 °C 11,9 °C 85 % 1006,0 hPa 0,0 mm 0,7 km/h (0 Bft) S-SW 212 ° 0 min 0,000 mm 0,0 UV-I 0 W/m² 9,5 °C 1,6 km/h (1 Bft)
14.10.2016 18:54 12,0 °C 12,0 °C 84 % 1006,0 hPa 0,0 mm 0,1 km/h (0 Bft) S-SW 212 ° 0 min 0,000 mm 0,0 UV-I 0 W/m² 9,4 °C 1,6 km/h (1 Bft)
14.10.2016 18:55 12,2 °C 12,2 °C 84 % 1006,1 hPa 0,0 mm 0,6 km/h (0 Bft) W-NW 287 ° 0 min 0,000 mm 0,0 UV-I 0 W/m² 9,6 °C 4,8 km/h (1 Bft)
14.10.2016 18:56 12,2 °C 12,2 °C 83 % 1006,1 hPa 0,0 mm 1,0 km/h (0 Bft) W-NW 287 ° 0 min 0,000 mm 0,0 UV-I 0 W/m² 9,4 °C 3,2 km/h (1 Bft)
14.10.2016 18:57 12,2 °C 12,2 °C 82 % 1006,0 hPa 0,0 mm 1,3 km/h (1 Bft) W-NW 287 ° 0 min 0,000 mm 0,0 UV-I 0 W/m² 9,2 °C 3,2 km/h (1 Bft)
14.10.2016 18:58 12,2 °C 12,2 °C 83 % 1006,1 hPa 0,0 mm 2,0 km/h (1 Bft) W-NW 287 ° 0 min 0,000 mm 0,0 UV-I 0 W/m² 9,4 °C 3,2 km/h (1 Bft)
14.10.2016 18:59 12,2 °C 12,2 °C 83 % 1006,1 hPa 0,0 mm 1,1 km/h (1 Bft) W-NW 287 ° 0 min 0,000 mm 0,0 UV-I 0 W/m² 9,4 °C 3,2 km/h (1 Bft)
14.10.2016 19:00 12,2 °C 12,2 °C 83 % 1006,1 hPa 0,0 mm 3,0 km/h (1 Bft) N 355 ° 0 min 0,000 mm 0,0 UV-I 0 W/m² 9,4 °C 4,8 km/h (1 Bft)
14.10.2016 19:01 12,2 °C 12,2 °C 84 % 1006,1 hPa 0,0 mm 1,5 km/h (1 Bft) N 355 ° 0 min 0,000 mm 0,0 UV-I 0 W/m² 9,6 °C 3,2 km/h (1 Bft)
14.10.2016 19:02 12,2 °C 12,2 °C 84 % 1006,1 hPa 0,0 mm 0,5 km/h (0 Bft) N 355 ° 0 min 0,000 mm 0,0 UV-I 0 W/m² 9,6 °C 1,6 km/h (1 Bft)
14.10.2016 19:03 12,2 °C 12,2 °C 83 % 1006,2 hPa 0,0 mm 0,0 km/h (0 Bft) N 355 ° 0 min 0,000 mm 0,0 UV-I 0 W/m² 9,4 °C 0,0 km/h (0 Bft)
14.10.2016 19:04 12,2 °C 12,3 °C 83 % 1006,3 hPa 0,0 mm 0,0 km/h (0 Bft) N 355 ° 0 min 0,000 mm 0,0 UV-I 0 W/m² 9,4 °C 0,0 km/h (0 Bft)
14.10.2016 19:05 12,3 °C 12,3 °C 83 % 1006,3 hPa 0,0 mm 0,0 km/h (0 Bft) N 355 ° 0 min 0,000 mm 0,0 UV-I 0 W/m² 9,5 °C 0,0 km/h (0 Bft)
14.10.2016 19:06 12,3 °C 12,3 °C 83 % 1006,4 hPa 0,0 mm 0,0 km/h (0 Bft) N 355 ° 0 min 0,000 mm 0,0 UV-I 0 W/m² 9,5 °C 0,0 km/h (0 Bft)
14.10.2016 19:07 12,3 °C 12,3 °C 83 % 1006,4 hPa 0,0 mm 0,0 km/h (0 Bft) N 355 ° 0 min 0,000 mm 0,0 UV-I 0 W/m² 9,5 °C 0,0 km/h (0 Bft)
14.10.2016 19:08 12,3 °C 12,3 °C 83 % 1006,5 hPa 0,0 mm 0,0 km/h (0 Bft) N 355 ° 0 min 0,000 mm 0,0 UV-I 0 W/m² 9,5 °C 0,0 km/h (0 Bft)
14.10.2016 19:09 12,2 °C 12,3 °C 83 % 1006,4 hPa 0,0 mm 0,0 km/h (0 Bft) N 355 ° 0 min 0,000 mm 0,0 UV-I 0 W/m² 9,4 °C 0,0 km/h (0 Bft)
14.10.2016 19:10 12,2 °C 12,2 °C 83 % 1006,5 hPa 0,0 mm 0,0 km/h (0 Bft) N 355 ° 0 min 0,000 mm 0,0 UV-I 0 W/m² 9,4 °C 0,0 km/h (0 Bft)
14.10.2016 19:11 12,2 °C 12,2 °C 83 % 1006,5 hPa 0,0 mm 0,0 km/h (0 Bft) N 355 ° 0 min 0,000 mm 0,0 UV-I 0 W/m² 9,4 °C 0,0 km/h (0 Bft)
14.10.2016 19:12 12,1 °C 12,2 °C 83 % 1006,5 hPa 0,0 mm 0,0 km/h (0 Bft) N 355 ° 0 min 0,000 mm 0,0 UV-I 0 W/m² 9,3 °C 0,0 km/h (0 Bft)
14.10.2016 19:13 12,1 °C 12,1 °C 83 % 1006,5 hPa 0,0 mm 0,0 km/h (0 Bft) N 355 ° 0 min 0,000 mm 0,0 UV-I 0 W/m² 9,3 °C 0,0 km/h (0 Bft)
14.10.2016 19:14 12,0 °C 12,1 °C 83 % 1006,5 hPa 0,0 mm 0,0 km/h (0 Bft) N 355 ° 0 min 0,000 mm 0,0 UV-I 0 W/m² 9,2 °C 0,0 km/h (0 Bft)
14.10.2016 19:15 11,9 °C 12,0 °C 83 % 1006,6 hPa 0,0 mm 0,5 km/h (0 Bft) N 355 ° 0 min 0,000 mm 0,0 UV-I 0 W/m² 9,1 °C 1,6 km/h (1 Bft)
14.10.2016 19:16 11,9 °C 12,0 °C 84 % 1006,5 hPa 0,0 mm 0,0 km/h (0 Bft) N 355 ° 0 min 0,000 mm 0,0 UV-I 0 W/m² 9,3 °C 0,0 km/h (0 Bft)
14.10.2016 19:17 11,9 °C 11,9 °C 83 % 1006,6 hPa 0,0 mm 0,0 km/h (0 Bft) N 355 ° 0 min 0,000 mm 0,0 UV-I 0 W/m² 9,1 °C 0,0 km/h (0 Bft)
14.10.2016 19:18 11,9 °C 11,9 °C 83 % 1006,5 hPa 0,0 mm 0,0 km/h (0 Bft) N 355 ° 0 min 0,000 mm 0,0 UV-I 0 W/m² 9,1 °C 0,0 km/h (0 Bft)
14.10.2016 19:19 11,8 °C 11,9 °C 84 % 1006,5 hPa 0,0 mm 1,0 km/h (0 Bft) N 355 ° 0 min 0,000 mm 0,0 UV-I 0 W/m² 9,2 °C 1,6 km/h (1 Bft)
14.10.2016 19:20 11,8 °C 11,8 °C 85 % 1006,4 hPa 0,0 mm 0,0 km/h (0 Bft) N 355 ° 0 min 0,000 mm 0,0 UV-I 0 W/m² 9,4 °C 0,0 km/h (0 Bft)
14.10.2016 19:21 11,7 °C 11,8 °C 85 % 1006,4 hPa 0,0 mm 0,0 km/h (0 Bft) N 360 ° 0 min 0,000 mm 0,0 UV-I 0 W/m² 9,3 °C 0,0 km/h (0 Bft)
14.10.2016 19:22 11,6 °C 11,7 °C 85 % 1006,5 hPa 0,0 mm 0,0 km/h (0 Bft) N 360 ° 0 min 0,000 mm 0,0 UV-I 0 W/m² 9,2 °C 0,0 km/h (0 Bft)
14.10.2016 19:23 11,6 °C 11,6 °C 86 % 1006,5 hPa 0,0 mm 0,0 km/h (0 Bft) N 360 ° 0 min 0,000 mm 0,0 UV-I 0 W/m² 9,3 °C 0,0 km/h (0 Bft)
14.10.2016 19:24 11,5 °C 11,6 °C 86 % 1006,5 hPa 0,0 mm 0,0 km/h (0 Bft) N 360 ° 0 min 0,000 mm 0,0 UV-I 0 W/m² 9,2 °C 0,0 km/h (0 Bft)
14.10.2016 19:25 11,5 °C 11,5 °C 85 % 1006,6 hPa 0,0 mm 0,0 km/h (0 Bft) N 360 ° 0 min 0,000 mm 0,0 UV-I 0 W/m² 9,1 °C 0,0 km/h (0 Bft)
14.10.2016 19:26 11,5 °C 11,5 °C 85 % 1006,5 hPa 0,0 mm 0,0 km/h (0 Bft) N 360 ° 0 min 0,000 mm 0,0 UV-I 0 W/m² 9,1 °C 0,0 km/h (0 Bft)
14.10.2016 19:27 11,4 °C 11,5 °C 85 % 1006,5 hPa 0,0 mm 0,0 km/h (0 Bft) N 360 ° 0 min 0,000 mm 0,0 UV-I 0 W/m² 9,0 °C 0,0 km/h (0 Bft)
14.10.2016 19:28 11,3 °C 11,4 °C 86 % 1006,5 hPa 0,0 mm 0,0 km/h (0 Bft) N 360 ° 0 min 0,000 mm 0,0 UV-I 0 W/m² 9,0 °C 0,0 km/h (0 Bft)
14.10.2016 19:29 11,3 °C 11,3 °C 86 % 1006,5 hPa 0,0 mm 0,0 km/h (0 Bft) N 360 ° 0 min 0,000 mm 0,0 UV-I 0 W/m² 9,0 °C 0,0 km/h (0 Bft)
14.10.2016 19:30 11,2 °C 11,3 °C 87 % 1006,5 hPa 0,0 mm 0,0 km/h (0 Bft) N 360 ° 0 min 0,000 mm 0,0 UV-I 0 W/m² 9,1 °C 0,0 km/h (0 Bft)
14.10.2016 19:31 11,1 °C 11,2 °C 87 % 1006,5 hPa 0,0 mm 0,0 km/h (0 Bft) N 360 ° 0 min 0,000 mm 0,0 UV-I 0 W/m² 9,0 °C 0,0 km/h (0 Bft)
14.10.2016 19:32 11,2 °C 11,2 °C 87 % 1006,5 hPa 0,0 mm 0,0 km/h (0 Bft) N 360 ° 0 min 0,000 mm 0,0 UV-I 0 W/m² 9,1 °C 0,0 km/h (0 Bft)
14.10.2016 19:33 11,2 °C 11,2 °C 87 % 1006,5 hPa 0,0 mm 0,0 km/h (0 Bft) N 360 ° 0 min 0,000 mm 0,0 UV-I 0 W/m² 9,1 °C 0,0 km/h (0 Bft)
14.10.2016 19:34 11,3 °C 11,3 °C 86 % 1006,4 hPa 0,0 mm 0,0 km/h (0 Bft) N 360 ° 0 min 0,000 mm 0,0 UV-I 0 W/m² 9,0 °C 0,0 km/h (0 Bft)
14.10.2016 19:35 11,4 °C 11,4 °C 85 % 1006,4 hPa 0,0 mm 0,0 km/h (0 Bft) N 360 ° 0 min 0,000 mm 0,0 UV-I 0 W/m² 9,0 °C 0,0 km/h (0 Bft)
14.10.2016 19:36 11,5 °C 11,5 °C 85 % 1006,5 hPa 0,0 mm 0,0 km/h (0 Bft) N 360 ° 0 min 0,000 mm 0,0 UV-I 0 W/m² 9,1 °C 0,0 km/h (0 Bft)
14.10.2016 19:37 11,6 °C 11,6 °C 85 % 1006,5 hPa 0,0 mm 0,0 km/h (0 Bft) N 360 ° 0 min 0,000 mm 0,0 UV-I 0 W/m² 9,2 °C 0,0 km/h (0 Bft)
14.10.2016 19:38 11,6 °C 11,6 °C 84 % 1006,6 hPa 0,0 mm 0,0 km/h (0 Bft) N 360 ° 0 min 0,000 mm 0,0 UV-I 0 W/m² 9,0 °C 0,0 km/h (0 Bft)
14.10.2016 19:39 11,7 °C 11,7 °C 84 % 1006,6 hPa 0,0 mm 0,0 km/h (0 Bft) N 360 ° 0 min 0,000 mm 0,0 UV-I 0 W/m² 9,1 °C 0,0 km/h (0 Bft)
14.10.2016 19:40 11,7 °C 11,7 °C 84 % 1006,7 hPa 0,0 mm 0,0 km/h (0 Bft) O-NO 63 ° 0 min 0,000 mm 0,0 UV-I 0 W/m² 9,1 °C 0,0 km/h (0 Bft)
14.10.2016 19:41 11,8 °C 11,8 °C 83 % 1006,7 hPa 0,0 mm 0,0 km/h (0 Bft) O-NO 63 ° 0 min 0,000 mm 0,0 UV-I 0 W/m² 9,0 °C 0,0 km/h (0 Bft)
14.10.2016 19:42 11,7 °C 11,8 °C 83 % 1006,7 hPa 0,0 mm 0,0 km/h (0 Bft) O-NO 63 ° 0 min 0,000 mm 0,0 UV-I 0 W/m² 8,9 °C 0,0 km/h (0 Bft)
14.10.2016 19:43 11,7 °C 11,7 °C 83 % 1006,7 hPa 0,0 mm 0,0 km/h (0 Bft) O-NO 63 ° 0 min 0,000 mm 0,0 UV-I 0 W/m² 8,9 °C 0,0 km/h (0 Bft)
14.10.2016 19:44 11,8 °C 11,8 °C 83 % 1006,7 hPa 0,0 mm 0,0 km/h (0 Bft) O-NO 63 ° 0 min 0,000 mm 0,0 UV-I 0 W/m² 9,0 °C 0,0 km/h (0 Bft)
14.10.2016 19:45 11,9 °C 11,9 °C 82 % 1006,8 hPa 0,0 mm 0,0 km/h (0 Bft) O-NO 63 ° 0 min 0,000 mm 0,0 UV-I 0 W/m² 8,9 °C 0,0 km/h (0 Bft)
14.10.2016 19:46 12,1 °C 12,1 °C 81 % 1006,8 hPa 0,0 mm 0,0 km/h (0 Bft) O-NO 63 ° 0 min 0,000 mm 0,0 UV-I 0 W/m² 8,9 °C 0,0 km/h (0 Bft)
14.10.2016 19:47 12,2 °C 12,2 °C 82 % 1006,8 hPa 0,0 mm 0,0 km/h (0 Bft) O-NO 63 ° 0 min 0,000 mm 0,0 UV-I 0 W/m² 9,2 °C 0,0 km/h (0 Bft)
14.10.2016 19:48 12,4 °C 12,4 °C 81 % 1006,8 hPa 0,0 mm 0,0 km/h (0 Bft) O-NO 63 ° 0 min 0,000 mm 0,0 UV-I 0 W/m² 9,2 °C 0,0 km/h (0 Bft)
14.10.2016 19:49 12,5 °C 12,5 °C 80 % 1006,8 hPa 0,0 mm 0,0 km/h (0 Bft) O-NO 63 ° 0 min 0,000 mm 0,0 UV-I 0 W/m² 9,1 °C 0,0 km/h (0 Bft)
14.10.2016 19:50 12,6 °C 12,6 °C 80 % 1006,9 hPa 0,0 mm 0,0 km/h (0 Bft) O-NO 63 ° 0 min 0,000 mm 0,0 UV-I 0 W/m² 9,2 °C 0,0 km/h (0 Bft)
14.10.2016 19:51 12,6 °C 12,6 °C 79 % 1006,9 hPa 0,0 mm 0,0 km/h (0 Bft) O-NO 63 ° 0 min 0,000 mm 0,0 UV-I 0 W/m² 9,1 °C 0,0 km/h (0 Bft)
14.10.2016 19:52 12,6 °C 12,6 °C 80 % 1006,9 hPa 0,0 mm 0,0 km/h (0 Bft) O-NO 63 ° 0 min 0,000 mm 0,0 UV-I 0 W/m² 9,2 °C 0,0 km/h (0 Bft)
14.10.2016 19:53 12,6 °C 12,6 °C 79 % 1006,9 hPa 0,0 mm 0,0 km/h (0 Bft) O-NO 63 ° 0 min 0,000 mm 0,0 UV-I 0 W/m² 9,1 °C 0,0 km/h (0 Bft)
14.10.2016 19:54 12,6 °C 12,6 °C 79 % 1007,0 hPa 0,0 mm 0,0 km/h (0 Bft) O-NO 63 ° 0 min 0,000 mm 0,0 UV-I 0 W/m² 9,1 °C 0,0 km/h (0 Bft)
14.10.2016 19:55 12,8 °C 12,8 °C 79 % 1007,0 hPa 0,0 mm 0,0 km/h (0 Bft) O-NO 63 ° 0 min 0,000 mm 0,0 UV-I 0 W/m² 9,2 °C 0,0 km/h (0 Bft)
14.10.2016 19:56 12,8 °C 12,8 °C 79 % 1006,9 hPa 0,0 mm 0,0 km/h (0 Bft) O-NO 63 ° 0 min 0,000 mm 0,0 UV-I 0 W/m² 9,2 °C 0,0 km/h (0 Bft)
14.10.2016 19:57 12,8 °C 12,8 °C 79 % 1006,8 hPa 0,0 mm 0,0 km/h (0 Bft) O-NO 63 ° 0 min 0,000 mm 0,0 UV-I 0 W/m² 9,2 °C 0,0 km/h (0 Bft)
14.10.2016 19:58 12,6 °C 12,8 °C 80 % 1006,8 hPa 0,0 mm 0,0 km/h (0 Bft) O-NO 63 ° 0 min 0,000 mm 0,0 UV-I 0 W/m² 9,2 °C 0,0 km/h (0 Bft)
14.10.2016 19:59 12,4 °C 12,6 °C 80 % 1006,8 hPa 0,0 mm 0,0 km/h (0 Bft) O-NO 63 ° 0 min 0,000 mm 0,0 UV-I 0 W/m² 9,0 °C 0,0 km/h (0 Bft)
14.10.2016 20:00 12,4 °C 12,4 °C 80 % 1006,8 hPa 0,0 mm 0,0 km/h (0 Bft) N-NW 340 ° 0 min 0,000 mm 0,0 UV-I 0 W/m² 9,0 °C 0,0 km/h (0 Bft)
14.10.2016 20:01 12,4 °C 12,4 °C 79 % 1006,9 hPa 0,0 mm 1,7 km/h (1 Bft) SW 223 ° 0 min 0,000 mm 0,0 UV-I 0 W/m² 8,9 °C 3,2 km/h (1 Bft)
14.10.2016 20:02 12,5 °C 12,5 °C 80 % 1006,9 hPa 0,0 mm 0,5 km/h (0 Bft) SW 223 ° 0 min 0,000 mm 0,0 UV-I 0 W/m² 9,1 °C 1,6 km/h (1 Bft)
14.10.2016 20:03 12,4 °C 12,5 °C 79 % 1006,9 hPa 0,0 mm 0,0 km/h (0 Bft) SW 223 ° 0 min 0,000 mm 0,0 UV-I 0 W/m² 8,9 °C 0,0 km/h (0 Bft)
14.10.2016 20:04 12,4 °C 12,4 °C 81 % 1006,9 hPa 0,0 mm 1,2 km/h (1 Bft) SW 223 ° 0 min 0,000 mm 0,0 UV-I 0 W/m² 9,2 °C 3,2 km/h (1 Bft)
14.10.2016 20:05 12,3 °C 12,4 °C 81 % 1006,8 hPa 0,0 mm 2,2 km/h (1 Bft) S-SW 201 ° 0 min 0,000 mm 0,0 UV-I 0 W/m² 9,1 °C 3,2 km/h (1 Bft)
14.10.2016 20:06 12,3 °C 12,3 °C 82 % 1006,7 hPa 0,0 mm 4,0 km/h (1 Bft) SO 146 ° 0 min 0,000 mm 0,0 UV-I 0 W/m² 9,3 °C 4,8 km/h (1 Bft)
14.10.2016 20:07 12,3 °C 12,3 °C 81 % 1006,8 hPa 0,0 mm 3,7 km/h (1 Bft) SO 146 ° 0 min 0,000 mm 0,0 UV-I 0 W/m² 9,1 °C 4,8 km/h (1 Bft)
14.10.2016 20:08 12,3 °C 12,3 °C 81 % 1006,8 hPa 0,0 mm 0,8 km/h (0 Bft) SO 146 ° 0 min 0,000 mm 0,0 UV-I 0 W/m² 9,1 °C 3,2 km/h (1 Bft)
14.10.2016 20:09 12,3 °C 12,3 °C 81 % 1006,7 hPa 0,0 mm 1,9 km/h (1 Bft) S-SO 152 ° 0 min 0,000 mm 0,0 UV-I 0 W/m² 9,1 °C 4,8 km/h (1 Bft)
14.10.2016 20:10 12,3 °C 12,3 °C 79 % 1006,7 hPa 0,0 mm 0,9 km/h (0 Bft) S-SO 152 ° 0 min 0,000 mm 0,0 UV-I 0 W/m² 8,8 °C 3,2 km/h (1 Bft)
14.10.2016 20:11 12,2 °C 12,3 °C 80 % 1006,7 hPa 0,0 mm 3,6 km/h (1 Bft) W-SW 241 ° 0 min 0,000 mm 0,0 UV-I 0 W/m² 8,9 °C 6,4 km/h (2 Bft)
14.10.2016 20:12 12,3 °C 12,3 °C 79 % 1006,7 hPa 0,0 mm 1,4 km/h (1 Bft) W-SW 242 ° 0 min 0,000 mm 0,0 UV-I 0 W/m² 8,8 °C 4,8 km/h (1 Bft)
14.10.2016 20:13 12,4 °C 12,4 °C 79 % 1006,7 hPa 0,0 mm 1,9 km/h (1 Bft) O-NO 74 ° 0 min 0,000 mm 0,0 UV-I 0 W/m² 8,9 °C 4,8 km/h (1 Bft)
14.10.2016 20:14 12,4 °C 12,4 °C 81 % 1006,7 hPa 0,0 mm 4,4 km/h (1 Bft) O-SO 122 ° 0 min 0,000 mm 0,0 UV-I 0 W/m² 9,2 °C 6,4 km/h (2 Bft)
14.10.2016 20:15 12,5 °C 12,5 °C 80 % 1006,8 hPa 0,0 mm 2,4 km/h (1 Bft) O-SO 122 ° 0 min 0,000 mm 0,0 UV-I 0 W/m² 9,1 °C 4,8 km/h (1 Bft)
14.10.2016 20:16 12,5 °C 12,5 °C 79 % 1006,7 hPa 0,0 mm 0,2 km/h (0 Bft) O-SO 122 ° 0 min 0,000 mm 0,0 UV-I 0 W/m² 9,0 °C 1,6 km/h (1 Bft)
14.10.2016 20:17 12,4 °C 12,6 °C 79 % 1006,7 hPa 0,0 mm 0,0 km/h (0 Bft) O-SO 122 ° 0 min 0,000 mm 0,0 UV-I 0 W/m² 8,9 °C 0,0 km/h (0 Bft)
14.10.2016 20:18 12,4 °C 12,4 °C 80 % 1006,7 hPa 0,0 mm 0,7 km/h (0 Bft) O-SO 122 ° 0 min 0,000 mm 0,0 UV-I 0 W/m² 9,0 °C 3,2 km/h (1 Bft)
14.10.2016 20:19 12,3 °C 12,4 °C 80 % 1006,7 hPa 0,0 mm 3,7 km/h (1 Bft) O 97 ° 0 min 0,000 mm 0,0 UV-I 0 W/m² 8,9 °C 4,8 km/h (1 Bft)
14.10.2016 20:20 12,3 °C 12,3 °C 80 % 1006,7 hPa 0,0 mm 3,1 km/h (1 Bft) O 98 ° 0 min 0,000 mm 0,0 UV-I 0 W/m² 8,9 °C 4,8 km/h (1 Bft)
14.10.2016 20:21 12,3 °C 12,3 °C 80 % 1006,8 hPa 0,0 mm 1,1 km/h (1 Bft) O 98 ° 0 min 0,000 mm 0,0 UV-I 0 W/m² 8,9 °C 3,2 km/h (1 Bft)
14.10.2016 20:22 12,2 °C 12,3 °C 81 % 1006,8 hPa 0,0 mm 0,1 km/h (0 Bft) O 98 ° 0 min 0,000 mm 0,0 UV-I 0 W/m² 9,0 °C 1,6 km/h (1 Bft)
14.10.2016 20:23 12,2 °C 12,2 °C 81 % 1006,8 hPa 0,0 mm 0,4 km/h (0 Bft) O 98 ° 0 min 0,000 mm 0,0 UV-I 0 W/m² 9,0 °C 1,6 km/h (1 Bft)
14.10.2016 20:24 12,2 °C 12,2 °C 81 % 1006,8 hPa 0,0 mm 0,9 km/h (0 Bft) O 98 ° 0 min 0,000 mm 0,0 UV-I 0 W/m² 9,0 °C 3,2 km/h (1 Bft)
14.10.2016 20:25 12,2 °C 12,2 °C 80 % 1006,8 hPa 0,0 mm 0,8 km/h (0 Bft) O 98 ° 0 min 0,000 mm 0,0 UV-I 0 W/m² 8,9 °C 1,6 km/h (1 Bft)
14.10.2016 20:26 12,2 °C 12,2 °C 80 % 1006,7 hPa 0,0 mm 1,0 km/h (0 Bft) O 98 ° 0 min 0,000 mm 0,0 UV-I 0 W/m² 8,9 °C 3,2 km/h (1 Bft)
14.10.2016 20:27 12,2 °C 12,2 °C 81 % 1006,7 hPa 0,0 mm 0,3 km/h (0 Bft) O 98 ° 0 min 0,000 mm 0,0 UV-I 0 W/m² 9,0 °C 1,6 km/h (1 Bft)
14.10.2016 20:28 12,2 °C 12,2 °C 82 % 1006,6 hPa 0,0 mm 2,3 km/h (1 Bft) O 98 ° 0 min 0,000 mm 0,0 UV-I 0 W/m² 9,2 °C 3,2 km/h (1 Bft)
14.10.2016 20:29 12,2 °C 12,2 °C 80 % 1006,7 hPa 0,0 mm 0,7 km/h (0 Bft) O 98 ° 0 min 0,000 mm 0,0 UV-I 0 W/m² 8,9 °C 3,2 km/h (1 Bft)
14.10.2016 20:30 12,2 °C 12,2 °C 80 % 1006,7 hPa 0,0 mm 0,1 km/h (0 Bft) O 98 ° 0 min 0,000 mm 0,0 UV-I 0 W/m² 8,9 °C 1,6 km/h (1 Bft)
14.10.2016 20:31 12,2 °C 12,2 °C 80 % 1006,7 hPa 0,0 mm 0,4 km/h (0 Bft) O 98 ° 0 min 0,000 mm 0,0 UV-I 0 W/m² 8,9 °C 1,6 km/h (1 Bft)
14.10.2016 20:32 12,2 °C 12,2 °C 80 % 1006,7 hPa 0,0 mm 0,4 km/h (0 Bft) O 98 ° 0 min 0,000 mm 0,0 UV-I 0 W/m² 8,9 °C 1,6 km/h (1 Bft)
14.10.2016 20:33 12,2 °C 12,2 °C 81 % 1006,7 hPa 0,0 mm 1,9 km/h (1 Bft) O 98 ° 0 min 0,000 mm 0,0 UV-I 0 W/m² 9,0 °C 3,2 km/h (1 Bft)
14.10.2016 20:34 12,1 °C 12,2 °C 81 % 1006,6 hPa 0,0 mm 2,0 km/h (1 Bft) O 98 ° 0 min 0,000 mm 0,0 UV-I 0 W/m² 8,9 °C 3,2 km/h (1 Bft)
14.10.2016 20:35 12,1 °C 12,1 °C 80 % 1006,7 hPa 0,0 mm 1,3 km/h (1 Bft) O 98 ° 0 min 0,000 mm 0,0 UV-I 0 W/m² 8,8 °C 3,2 km/h (1 Bft)
14.10.2016 20:36 12,2 °C 12,2 °C 81 % 1006,8 hPa 0,0 mm 2,3 km/h (1 Bft) O 98 ° 0 min 0,000 mm 0,0 UV-I 0 W/m² 9,0 °C 3,2 km/h (1 Bft)
14.10.2016 20:37 12,3 °C 12,3 °C 81 % 1006,7 hPa 0,0 mm 3,8 km/h (1 Bft) O 98 ° 0 min 0,000 mm 0,0 UV-I 0 W/m² 9,1 °C 4,8 km/h (1 Bft)
14.10.2016 20:38 12,3 °C 12,3 °C 81 % 1006,7 hPa 0,0 mm 3,6 km/h (1 Bft) O 98 ° 0 min 0,000 mm 0,0 UV-I 0 W/m² 9,1 °C 4,8 km/h (1 Bft)
14.10.2016 20:39 12,4 °C 12,4 °C 80 % 1006,7 hPa 0,0 mm 2,6 km/h (1 Bft) O 98 ° 0 min 0,000 mm 0,0 UV-I 0 W/m² 9,0 °C 3,2 km/h (1 Bft)
14.10.2016 20:40 12,4 °C 12,4 °C 79 % 1006,8 hPa 0,0 mm 2,3 km/h (1 Bft) O 98 ° 0 min 0,000 mm 0,0 UV-I 0 W/m² 8,9 °C 3,2 km/h (1 Bft)
14.10.2016 20:41 12,5 °C 12,5 °C 79 % 1006,9 hPa 0,0 mm 1,3 km/h (1 Bft) O 98 ° 0 min 0,000 mm 0,0 UV-I 0 W/m² 9,0 °C 3,2 km/h (1 Bft)
14.10.2016 20:42 12,5 °C 12,6 °C 79 % 1006,9 hPa 0,0 mm 1,9 km/h (1 Bft) O 98 ° 0 min 0,000 mm 0,0 UV-I 0 W/m² 9,0 °C 4,8 km/h (1 Bft)
14.10.2016 20:43 12,3 °C 12,5 °C 78 % 1006,9 hPa 0,0 mm 1,5 km/h (1 Bft) O 98 ° 0 min 0,000 mm 0,0 UV-I 0 W/m² 8,6 °C 3,2 km/h (1 Bft)
14.10.2016 20:44 12,2 °C 12,3 °C 79 % 1006,8 hPa 0,0 mm 1,9 km/h (1 Bft) O 98 ° 0 min 0,000 mm 0,0 UV-I 0 W/m² 8,7 °C 3,2 km/h (1 Bft)
14.10.2016 20:45 12,2 °C 12,2 °C 79 % 1006,9 hPa 0,0 mm 1,0 km/h (0 Bft) O 98 ° 0 min 0,000 mm 0,0 UV-I 0 W/m² 8,7 °C 1,6 km/h (1 Bft)
14.10.2016 20:46 12,2 °C 12,2 °C 79 % 1006,9 hPa 0,0 mm 0,3 km/h (0 Bft) O 98 ° 0 min 0,000 mm 0,0 UV-I 0 W/m² 8,7 °C 1,6 km/h (1 Bft)
14.10.2016 20:47 12,1 °C 12,2 °C 80 % 1006,9 hPa 0,0 mm 0,3 km/h (0 Bft) O 98 ° 0 min 0,000 mm 0,0 UV-I 0 W/m² 8,8 °C 1,6 km/h (1 Bft)
14.10.2016 20:48 12,2 °C 12,2 °C 80 % 1006,8 hPa 0,0 mm 0,8 km/h (0 Bft) O 98 ° 0 min 0,000 mm 0,0 UV-I 0 W/m² 8,9 °C 1,6 km/h (1 Bft)
14.10.2016 20:49 12,2 °C 12,2 °C 80 % 1006,9 hPa 0,0 mm 0,1 km/h (0 Bft) O 98 ° 0 min 0,000 mm 0,0 UV-I 0 W/m² 8,9 °C 1,6 km/h (1 Bft)
14.10.2016 20:50 12,2 °C 12,2 °C 79 % 1006,9 hPa 0,0 mm 0,5 km/h (0 Bft) O 98 ° 0 min 0,000 mm 0,0 UV-I 0 W/m² 8,7 °C 1,6 km/h (1 Bft)
14.10.2016 20:51 12,2 °C 12,3 °C 80 % 1007,0 hPa 0,0 mm 1,1 km/h (1 Bft) O 98 ° 0 min 0,000 mm 0,0 UV-I 0 W/m² 8,9 °C 3,2 km/h (1 Bft)
14.10.2016 20:52 12,2 °C 12,2 °C 80 % 1007,0 hPa 0,0 mm 1,0 km/h (0 Bft) O 98 ° 0 min 0,000 mm 0,0 UV-I 0 W/m² 8,9 °C 3,2 km/h (1 Bft)
14.10.2016 20:53 12,2 °C 12,2 °C 80 % 1007,0 hPa 0,0 mm 0,1 km/h (0 Bft) O 98 ° 0 min 0,000 mm 0,0 UV-I 0 W/m² 8,9 °C 1,6 km/h (1 Bft)
14.10.2016 20:54 12,2 °C 12,2 °C 79 % 1007,0 hPa 0,0 mm 1,8 km/h (1 Bft) O-SO 102 ° 0 min 0,000 mm 0,0 UV-I 0 W/m² 8,7 °C 3,2 km/h (1 Bft)
14.10.2016 20:55 12,2 °C 12,2 °C 80 % 1006,9 hPa 0,0 mm 3,4 km/h (1 Bft) O-SO 102 ° 0 min 0,000 mm 0,0 UV-I 0 W/m² 8,9 °C 4,8 km/h (1 Bft)
14.10.2016 20:56 12,3 °C 12,3 °C 79 % 1006,9 hPa 0,0 mm 2,3 km/h (1 Bft) O-SO 102 ° 0 min 0,000 mm 0,0 UV-I 0 W/m² 8,8 °C 3,2 km/h (1 Bft)
14.10.2016 20:57 12,3 °C 12,3 °C 78 % 1006,9 hPa 0,0 mm 1,5 km/h (1 Bft) O-SO 102 ° 0 min 0,000 mm 0,0 UV-I 0 W/m² 8,6 °C 3,2 km/h (1 Bft)
14.10.2016 20:58 12,2 °C 12,3 °C 80 % 1006,9 hPa 0,0 mm 2,5 km/h (1 Bft) O-SO 102 ° 0 min 0,000 mm 0,0 UV-I 0 W/m² 8,9 °C 4,8 km/h (1 Bft)
14.10.2016 20:59 12,1 °C 12,2 °C 81 % 1007,0 hPa 0,0 mm 0,3 km/h (0 Bft) O-SO 102 ° 0 min 0,000 mm 0,0 UV-I 0 W/m² 8,9 °C 1,6 km/h (1 Bft)
14.10.2016 21:00 12,1 °C 12,1 °C 80 % 1007,0 hPa 0,0 mm 1,5 km/h (1 Bft) O-SO 102 ° 0 min 0,000 mm 0,0 UV-I 0 W/m² 8,8 °C 1,6 km/h (1 Bft)
14.10.2016 21:01 12,0 °C 12,1 °C 79 % 1007,0 hPa 0,0 mm 0,7 km/h (0 Bft) O-SO 102 ° 0 min 0,025 mm 0,0 UV-I 0 W/m² 8,5 °C 1,6 km/h (1 Bft)
14.10.2016 21:02 12,0 °C 12,0 °C 80 % 1006,9 hPa 0,0 mm 0,3 km/h (0 Bft) O-SO 102 ° 0 min 0,000 mm 0,0 UV-I 0 W/m² 8,7 °C 1,6 km/h (1 Bft)
14.10.2016 21:03 12,0 °C 12,0 °C 80 % 1007,1 hPa 0,0 mm 0,2 km/h (0 Bft) O-SO 102 ° 0 min 0,000 mm 0,0 UV-I 0 W/m² 8,7 °C 1,6 km/h (1 Bft)
14.10.2016 21:04 12,0 °C 12,0 °C 79 % 1007,0 hPa 0,0 mm 2,2 km/h (1 Bft) W-SW 248 ° 0 min 0,000 mm 0,0 UV-I 0 W/m² 8,5 °C 6,4 km/h (2 Bft)
14.10.2016 21:05 12,0 °C 12,1 °C 79 % 1007,1 hPa 0,0 mm 0,7 km/h (0 Bft) W-SW 250 ° 0 min 0,000 mm 0,0 UV-I 0 W/m² 8,5 °C 1,6 km/h (1 Bft)
14.10.2016 21:06 11,9 °C 12,0 °C 80 % 1007,2 hPa 0,0 mm 0,5 km/h (0 Bft) W-SW 251 ° 0 min 0,000 mm 0,0 UV-I 0 W/m² 8,6 °C 3,2 km/h (1 Bft)
14.10.2016 21:07 11,8 °C 11,9 °C 80 % 1007,1 hPa 0,0 mm 1,1 km/h (1 Bft) W-SW 251 ° 0 min 0,000 mm 0,0 UV-I 0 W/m² 8,5 °C 1,6 km/h (1 Bft)
14.10.2016 21:08 11,8 °C 11,8 °C 80 % 1007,1 hPa 0,0 mm 2,1 km/h (1 Bft) W-SW 252 ° 0 min 0,000 mm 0,0 UV-I 0 W/m² 8,5 °C 4,8 km/h (1 Bft)
14.10.2016 21:09 11,7 °C 11,8 °C 80 % 1007,1 hPa 0,0 mm 1,6 km/h (1 Bft) W-SW 252 ° 0 min 0,000 mm 0,0 UV-I 0 W/m² 8,4 °C 4,8 km/h (1 Bft)
14.10.2016 21:10 11,7 °C 11,7 °C 80 % 1007,1 hPa 0,0 mm 4,5 km/h (1 Bft) W 264 ° 0 min 0,000 mm 0,0 UV-I 0 W/m² 8,4 °C 6,4 km/h (2 Bft)
14.10.2016 21:11 11,8 °C 11,8 °C 80 % 1007,3 hPa 0,0 mm 5,0 km/h (1 Bft) W 263 ° 0 min 0,000 mm 0,0 UV-I 0 W/m² 8,5 °C 6,4 km/h (2 Bft)
14.10.2016 21:12 12,0 °C 12,0 °C 79 % 1007,2 hPa 0,0 mm 3,6 km/h (1 Bft) W 272 ° 0 min 0,000 mm 0,0 UV-I 0 W/m² 8,5 °C 6,4 km/h (2 Bft)
14.10.2016 21:13 12,2 °C 12,2 °C 79 % 1007,4 hPa 0,0 mm 3,4 km/h (1 Bft) W 259 ° 0 min 0,000 mm 0,0 UV-I 0 W/m² 8,7 °C 4,8 km/h (1 Bft)
14.10.2016 21:14 12,4 °C 12,4 °C 78 % 1007,4 hPa 0,0 mm 2,1 km/h (1 Bft) W 259 ° 0 min 0,000 mm 0,0 UV-I 0 W/m² 8,7 °C 3,2 km/h (1 Bft)
14.10.2016 21:15 12,6 °C 12,6 °C 77 % 1007,4 hPa 0,0 mm 4,2 km/h (1 Bft) W-SW 257 ° 0 min 0,000 mm 0,0 UV-I 0 W/m² 8,7 °C 6,4 km/h (2 Bft)
14.10.2016 21:16 12,7 °C 12,7 °C 77 % 1007,5 hPa 0,0 mm 3,8 km/h (1 Bft) W-SW 253 ° 0 min 0,000 mm 0,0 UV-I 0 W/m² 8,8 °C 6,4 km/h (2 Bft)
14.10.2016 21:17 12,8 °C 12,8 °C 76 % 1007,4 hPa 0,0 mm 3,6 km/h (1 Bft) W-SW 253 ° 0 min 0,000 mm 0,0 UV-I 0 W/m² 8,7 °C 4,8 km/h (1 Bft)
14.10.2016 21:18 12,8 °C 12,8 °C 76 % 1007,4 hPa 0,0 mm 1,1 km/h (1 Bft) W-SW 253 ° 0 min 0,000 mm 0,0 UV-I 0 W/m² 8,7 °C 3,2 km/h (1 Bft)
14.10.2016 21:19 12,8 °C 12,8 °C 76 % 1007,3 hPa 0,0 mm 1,8 km/h (1 Bft) W-SW 253 ° 0 min 0,000 mm 0,0 UV-I 0 W/m² 8,7 °C 3,2 km/h (1 Bft)
14.10.2016 21:20 12,8 °C 12,8 °C 76 % 1007,3 hPa 0,0 mm 3,8 km/h (1 Bft) S-SW 198 ° 0 min 0,000 mm 0,0 UV-I 0 W/m² 8,7 °C 6,4 km/h (2 Bft)
14.10.2016 21:21 12,8 °C 12,8 °C 77 % 1007,2 hPa 0,0 mm 1,8 km/h (1 Bft) S-SW 198 ° 0 min 0,000 mm 0,0 UV-I 0 W/m² 8,9 °C 3,2 km/h (1 Bft)
14.10.2016 21:22 12,7 °C 12,8 °C 77 % 1007,3 hPa 0,0 mm 3,0 km/h (1 Bft) SW 225 ° 0 min 0,000 mm 0,0 UV-I 0 W/m² 8,8 °C 4,8 km/h (1 Bft)
14.10.2016 21:23 12,8 °C 12,8 °C 76 % 1007,4 hPa 0,0 mm 3,0 km/h (1 Bft) SW 229 ° 0 min 0,000 mm 0,0 UV-I 0 W/m² 8,7 °C 4,8 km/h (1 Bft)
14.10.2016 21:24 12,8 °C 12,8 °C 76 % 1007,4 hPa 0,0 mm 2,5 km/h (1 Bft) SW 224 ° 0 min 0,000 mm 0,0 UV-I 0 W/m² 8,7 °C 4,8 km/h (1 Bft)
14.10.2016 21:25 12,8 °C 12,8 °C 76 % 1007,3 hPa 0,0 mm 1,7 km/h (1 Bft) SW 224 ° 0 min 0,000 mm 0,0 UV-I 0 W/m² 8,7 °C 3,2 km/h (1 Bft)
14.10.2016 21:26 12,8 °C 12,9 °C 77 % 1007,3 hPa 0,0 mm 2,9 km/h (1 Bft) W-SW 246 ° 0 min 0,000 mm 0,0 UV-I 0 W/m² 8,9 °C 4,8 km/h (1 Bft)
14.10.2016 21:27 12,8 °C 12,8 °C 78 % 1007,4 hPa 0,0 mm 1,7 km/h (1 Bft) SW 231 ° 0 min 0,000 mm 0,0 UV-I 0 W/m² 9,1 °C 3,2 km/h (1 Bft)
14.10.2016 21:28 12,6 °C 12,8 °C 78 % 1007,4 hPa 0,0 mm 0,4 km/h (0 Bft) SW 231 ° 0 min 0,000 mm 0,0 UV-I 0 W/m² 8,9 °C 1,6 km/h (1 Bft)
14.10.2016 21:29 12,4 °C 12,6 °C 79 % 1007,3 hPa 0,0 mm 0,8 km/h (0 Bft) SW 231 ° 0 min 0,000 mm 0,0 UV-I 0 W/m² 8,9 °C 1,6 km/h (1 Bft)
14.10.2016 21:30 12,3 °C 12,4 °C 79 % 1007,3 hPa 0,0 mm 3,4 km/h (1 Bft) W-SW 244 ° 0 min 0,000 mm 0,0 UV-I 0 W/m² 8,8 °C 8,0 km/h (2 Bft)
14.10.2016 21:31 12,3 °C 12,3 °C 78 % 1007,3 hPa 0,0 mm 4,1 km/h (1 Bft) W-SW 245 ° 0 min 0,000 mm 0,0 UV-I 0 W/m² 8,6 °C 6,4 km/h (2 Bft)
14.10.2016 21:32 12,4 °C 12,4 °C 77 % 1007,3 hPa 0,0 mm 4,1 km/h (1 Bft) W 259 ° 0 min 0,000 mm 0,0 UV-I 0 W/m² 8,5 °C 6,4 km/h (2 Bft)
14.10.2016 21:33 12,5 °C 12,5 °C 77 % 1007,3 hPa 0,0 mm 3,0 km/h (1 Bft) W 269 ° 0 min 0,000 mm 0,0 UV-I 0 W/m² 8,6 °C 4,8 km/h (1 Bft)
14.10.2016 21:34 12,6 °C 12,6 °C 77 % 1007,2 hPa 0,0 mm 3,1 km/h (1 Bft) SW 232 ° 0 min 0,000 mm 0,0 UV-I 0 W/m² 8,7 °C 4,8 km/h (1 Bft)
14.10.2016 21:35 12,6 °C 12,6 °C 78 % 1007,1 hPa 0,0 mm 2,6 km/h (1 Bft) S-SW 211 ° 0 min 0,000 mm 0,0 UV-I 0 W/m² 8,9 °C 3,2 km/h (1 Bft)
14.10.2016 21:36 12,6 °C 12,6 °C 78 % 1007,1 hPa 0,0 mm 2,5 km/h (1 Bft) S-SW 211 ° 0 min 0,000 mm 0,0 UV-I 0 W/m² 8,9 °C 3,2 km/h (1 Bft)
14.10.2016 21:37 12,5 °C 12,6 °C 79 % 1006,9 hPa 0,0 mm 2,3 km/h (1 Bft) S-SW 211 ° 0 min 0,000 mm 0,0 UV-I 0 W/m² 9,0 °C 3,2 km/h (1 Bft)
14.10.2016 21:38 12,3 °C 12,5 °C 79 % 1006,8 hPa 0,0 mm 1,3 km/h (1 Bft) S-SW 211 ° 0 min 0,000 mm 0,0 UV-I 0 W/m² 8,8 °C 1,6 km/h (1 Bft)
14.10.2016 21:39 12,3 °C 12,4 °C 79 % 1006,7 hPa 0,0 mm 0,1 km/h (0 Bft) S-SW 211 ° 0 min 0,000 mm 0,0 UV-I 0 W/m² 8,8 °C 1,6 km/h (1 Bft)
14.10.2016 21:40 12,2 °C 12,3 °C 79 % 1006,7 hPa 0,0 mm 0,9 km/h (0 Bft) W-SW 246 ° 0 min 0,000 mm 0,0 UV-I 0 W/m² 8,7 °C 3,2 km/h (1 Bft)
14.10.2016 21:41 12,1 °C 12,2 °C 79 % 1006,5 hPa 0,0 mm 0,9 km/h (0 Bft) W-SW 246 ° 0 min 0,000 mm 0,0 UV-I 0 W/m² 8,6 °C 3,2 km/h (1 Bft)
14.10.2016 21:42 12,0 °C 12,1 °C 79 % 1006,5 hPa 0,0 mm 0,3 km/h (0 Bft) W-SW 246 ° 0 min 0,000 mm 0,0 UV-I 0 W/m² 8,5 °C 1,6 km/h (1 Bft)
14.10.2016 21:43 11,9 °C 12,0 °C 79 % 1006,5 hPa 0,0 mm 0,7 km/h (0 Bft) W-SW 246 ° 0 min 0,000 mm 0,0 UV-I 0 W/m² 8,4 °C 3,2 km/h (1 Bft)
14.10.2016 21:44 11,8 °C 11,9 °C 80 % 1006,5 hPa 0,0 mm 3,3 km/h (1 Bft) W 259 ° 0 min 0,000 mm 0,0 UV-I 0 W/m² 8,5 °C 6,4 km/h (2 Bft)
14.10.2016 21:45 11,8 °C 11,8 °C 79 % 1006,5 hPa 0,0 mm 1,9 km/h (1 Bft) W 259 ° 0 min 0,000 mm 0,0 UV-I 0 W/m² 8,3 °C 3,2 km/h (1 Bft)
14.10.2016 21:46 11,9 °C 11,9 °C 79 % 1006,6 hPa 0,0 mm 1,3 km/h (1 Bft) W 259 ° 0 min 0,000 mm 0,0 UV-I 0 W/m² 8,4 °C 3,2 km/h (1 Bft)
14.10.2016 21:47 12,1 °C 12,1 °C 79 % 1006,6 hPa 0,0 mm 0,6 km/h (0 Bft) W 259 ° 0 min 0,000 mm 0,0 UV-I 0 W/m² 8,6 °C 3,2 km/h (1 Bft)
14.10.2016 21:48 12,2 °C 12,2 °C 80 % 1006,5 hPa 0,0 mm 0,8 km/h (0 Bft) W 259 ° 0 min 0,000 mm 0,0 UV-I 0 W/m² 8,9 °C 1,6 km/h (1 Bft)
14.10.2016 21:49 12,1 °C 12,2 °C 81 % 1006,4 hPa 0,0 mm 2,6 km/h (1 Bft) S-SO 155 ° 0 min 0,000 mm 0,0 UV-I 0 W/m² 8,9 °C 3,2 km/h (1 Bft)
14.10.2016 21:50 12,1 °C 12,1 °C 81 % 1006,3 hPa 0,0 mm 3,4 km/h (1 Bft) O-SO 119 ° 0 min 0,000 mm 0,0 UV-I 0 W/m² 8,9 °C 4,8 km/h (1 Bft)
14.10.2016 21:51 11,9 °C 12,1 °C 81 % 1006,2 hPa 0,0 mm 3,2 km/h (1 Bft) O 80 ° 0 min 0,000 mm 0,0 UV-I 0 W/m² 8,7 °C 4,8 km/h (1 Bft)
14.10.2016 21:52 11,7 °C 11,9 °C 82 % 1006,1 hPa 0,0 mm 1,4 km/h (1 Bft) O 80 ° 0 min 0,000 mm 0,0 UV-I 0 W/m² 8,7 °C 3,2 km/h (1 Bft)
14.10.2016 21:53 11,6 °C 11,7 °C 81 % 1006,1 hPa 0,0 mm 3,0 km/h (1 Bft) NO 55 ° 0 min 0,000 mm 0,0 UV-I 0 W/m² 8,5 °C 6,4 km/h (2 Bft)
14.10.2016 21:54 11,4 °C 11,6 °C 82 % 1006,0 hPa 0,0 mm 3,5 km/h (1 Bft) O-NO 63 ° 0 min 0,000 mm 0,0 UV-I 0 W/m² 8,4 °C 8,0 km/h (2 Bft)
14.10.2016 21:55 11,3 °C 11,4 °C 82 % 1005,9 hPa 0,0 mm 0,7 km/h (0 Bft) O-NO 63 ° 0 min 0,000 mm 0,0 UV-I 0 W/m² 8,3 °C 1,6 km/h (1 Bft)
14.10.2016 21:56 11,4 °C 11,4 °C 81 % 1005,9 hPa 0,0 mm 1,9 km/h (1 Bft) N 360 ° 0 min 0,000 mm 0,0 UV-I 0 W/m² 8,3 °C 4,8 km/h (1 Bft)
14.10.2016 21:57 11,4 °C 11,4 °C 81 % 1005,9 hPa 0,0 mm 3,1 km/h (1 Bft) NW 313 ° 0 min 0,000 mm 0,0 UV-I 0 W/m² 8,3 °C 6,4 km/h (2 Bft)
14.10.2016 21:58 11,5 °C 11,5 °C 80 % 1005,9 hPa 0,0 mm 5,3 km/h (1 Bft) NW 312 ° 0 min 0,000 mm 0,0 UV-I 0 W/m² 8,2 °C 8,0 km/h (2 Bft)
14.10.2016 21:59 11,7 °C 11,7 °C 80 % 1005,9 hPa 0,0 mm 5,4 km/h (1 Bft) N-NW 330 ° 0 min 0,000 mm 0,0 UV-I 0 W/m² 8,4 °C 9,7 km/h (2 Bft)
14.10.2016 22:00 11,8 °C 11,8 °C 79 % 1005,9 hPa 0,0 mm 4,6 km/h (1 Bft) SW 231 ° 0 min 0,000 mm 0,0 UV-I 0 W/m² 8,3 °C 9,7 km/h (2 Bft)
14.10.2016 22:01 11,8 °C 11,8 °C 80 % 1005,9 hPa 0,0 mm 2,3 km/h (1 Bft) W-NW 290 ° 0 min 0,025 mm 0,0 UV-I 0 W/m² 8,5 °C 3,2 km/h (1 Bft)
14.10.2016 22:02 11,8 °C 11,8 °C 79 % 1005,9 hPa 0,0 mm 4,5 km/h (1 Bft) N-NO 24 ° 0 min 0,001 mm 0,0 UV-I 0 W/m² 8,3 °C 9,7 km/h (2 Bft)
14.10.2016 22:03 11,9 °C 11,9 °C 79 % 1005,7 hPa 0,0 mm 3,5 km/h (1 Bft) NW 323 ° 0 min 0,000 mm 0,0 UV-I 0 W/m² 8,4 °C 6,4 km/h (2 Bft)
14.10.2016 22:04 12,1 °C 12,1 °C 78 % 1005,6 hPa 0,0 mm 5,1 km/h (1 Bft) N-NW 337 ° 0 min 0,000 mm 0,0 UV-I 0 W/m² 8,4 °C 8,0 km/h (2 Bft)
14.10.2016 22:05 12,2 °C 12,2 °C 78 % 1005,6 hPa 0,0 mm 3,2 km/h (1 Bft) N-NW 339 ° 0 min 0,000 mm 0,0 UV-I 0 W/m² 8,5 °C 4,8 km/h (1 Bft)
14.10.2016 22:06 12,3 °C 12,3 °C 77 % 1005,5 hPa 0,0 mm 4,8 km/h (1 Bft) N-NW 332 ° 0 min 0,000 mm 0,0 UV-I 0 W/m² 8,4 °C 9,7 km/h (2 Bft)
14.10.2016 22:07 12,4 °C 12,4 °C 77 % 1005,5 hPa 0,0 mm 5,2 km/h (1 Bft) S 177 ° 0 min 0,000 mm 0,0 UV-I 0 W/m² 8,5 °C 11,3 km/h (2 Bft)
14.10.2016 22:08 12,6 °C 12,6 °C 76 % 1005,5 hPa 0,0 mm 4,4 km/h (1 Bft) N-NO 22 ° 0 min 0,000 mm 0,0 UV-I 0 W/m² 8,5 °C 8,0 km/h (2 Bft)
14.10.2016 22:09 12,6 °C 12,6 °C 76 % 1005,5 hPa 0,0 mm 2,6 km/h (1 Bft) O-NO 65 ° 0 min 0,000 mm 0,0 UV-I 0 W/m² 8,5 °C 4,8 km/h (1 Bft)
14.10.2016 22:10 12,7 °C 12,7 °C 75 % 1005,6 hPa 0,0 mm 2,4 km/h (1 Bft) NW 304 ° 0 min 0,000 mm 0,0 UV-I 0 W/m² 8,4 °C 4,8 km/h (1 Bft)
14.10.2016 22:11 12,8 °C 12,8 °C 75 % 1005,7 hPa 0,0 mm 3,1 km/h (1 Bft) N 360 ° 0 min 0,000 mm 0,0 UV-I 0 W/m² 8,5 °C 4,8 km/h (1 Bft)
14.10.2016 22:12 12,7 °C 12,8 °C 76 % 1005,6 hPa 0,0 mm 3,8 km/h (1 Bft) O 101 ° 0 min 0,000 mm 0,0 UV-I 0 W/m² 8,6 °C 6,4 km/h (2 Bft)
14.10.2016 22:13 12,7 °C 12,7 °C 78 % 1005,5 hPa 0,0 mm 3,5 km/h (1 Bft) SO 140 ° 0 min 0,000 mm 0,0 UV-I 0 W/m² 9,0 °C 6,4 km/h (2 Bft)
14.10.2016 22:14 12,6 °C 12,7 °C 77 % 1005,4 hPa 0,0 mm 2,1 km/h (1 Bft) O-SO 116 ° 0 min 0,000 mm 0,0 UV-I 0 W/m² 8,7 °C 6,4 km/h (2 Bft)
14.10.2016 22:15 12,5 °C 12,6 °C 77 % 1005,3 hPa 0,0 mm 4,3 km/h (1 Bft) N-NO 28 ° 0 min 0,000 mm 0,0 UV-I 0 W/m² 8,6 °C 6,4 km/h (2 Bft)
14.10.2016 22:16 12,4 °C 12,5 °C 78 % 1005,1 hPa 0,0 mm 2,7 km/h (1 Bft) NO 54 ° 0 min 0,000 mm 0,0 UV-I 0 W/m² 8,7 °C 4,8 km/h (1 Bft)
14.10.2016 22:17 12,4 °C 12,4 °C 78 % 1005,0 hPa 0,0 mm 3,9 km/h (1 Bft) O 84 ° 0 min 0,000 mm 0,0 UV-I 0 W/m² 8,7 °C 9,7 km/h (2 Bft)
14.10.2016 22:18 12,4 °C 12,5 °C 76 % 1004,9 hPa 0,0 mm 1,4 km/h (1 Bft) O 84 ° 0 min 0,000 mm 0,0 UV-I 0 W/m² 8,3 °C 3,2 km/h (1 Bft)
14.10.2016 22:19 12,5 °C 12,5 °C 76 % 1005,0 hPa 0,0 mm 4,0 km/h (1 Bft) N-NW 331 ° 0 min 0,000 mm 0,0 UV-I 0 W/m² 8,4 °C 6,4 km/h (2 Bft)
14.10.2016 22:20 12,6 °C 12,6 °C 75 % 1005,1 hPa 0,0 mm 6,1 km/h (2 Bft) W 276 ° 0 min 0,000 mm 0,0 UV-I 0 W/m² 8,3 °C 9,7 km/h (2 Bft)
14.10.2016 22:21 12,7 °C 12,7 °C 75 % 1005,3 hPa 0,0 mm 4,4 km/h (1 Bft) W-NW 293 ° 0 min 0,000 mm 0,0 UV-I 0 W/m² 8,4 °C 6,4 km/h (2 Bft)
14.10.2016 22:22 12,8 °C 12,8 °C 75 % 1005,5 hPa 0,0 mm 6,2 km/h (2 Bft) SW 235 ° 0 min 0,000 mm 0,0 UV-I 0 W/m² 8,5 °C 11,3 km/h (2 Bft)
14.10.2016 22:23 12,9 °C 12,9 °C 74 % 1005,6 hPa 0,0 mm 5,4 km/h (1 Bft) W-SW 249 ° 0 min 0,000 mm 0,0 UV-I 0 W/m² 8,4 °C 9,7 km/h (2 Bft)
14.10.2016 22:24 13,1 °C 13,1 °C 74 % 1005,7 hPa 0,0 mm 4,9 km/h (1 Bft) W 269 ° 0 min 0,000 mm 0,0 UV-I 0 W/m² 8,6 °C 6,4 km/h (2 Bft)
14.10.2016 22:25 13,1 °C 13,1 °C 74 % 1005,8 hPa 0,0 mm 5,4 km/h (1 Bft) W 279 ° 0 min 0,000 mm 0,0 UV-I 0 W/m² 8,6 °C 8,0 km/h (2 Bft)
14.10.2016 22:26 13,1 °C 13,1 °C 74 % 1005,8 hPa 0,0 mm 3,0 km/h (1 Bft) SW 235 ° 0 min 0,000 mm 0,0 UV-I 0 W/m² 8,6 °C 4,8 km/h (1 Bft)
14.10.2016 22:27 13,1 °C 13,1 °C 74 % 1005,7 hPa 0,0 mm 1,4 km/h (1 Bft) SW 229 ° 0 min 0,000 mm 0,0 UV-I 0 W/m² 8,6 °C 3,2 km/h (1 Bft)
14.10.2016 22:28 13,1 °C 13,1 °C 75 % 1005,7 hPa 0,0 mm 2,5 km/h (1 Bft) O 98 ° 0 min 0,000 mm 0,0 UV-I 0 W/m² 8,8 °C 4,8 km/h (1 Bft)
14.10.2016 22:29 12,9 °C 13,1 °C 76 % 1005,6 hPa 0,0 mm 4,2 km/h (1 Bft) NO 46 ° 0 min 0,000 mm 0,0 UV-I 0 W/m² 8,8 °C 6,4 km/h (2 Bft)
14.10.2016 22:30 12,8 °C 12,9 °C 77 % 1005,5 hPa 0,0 mm 5,2 km/h (1 Bft) S-SO 159 ° 0 min 0,000 mm 0,0 UV-I 0 W/m² 8,9 °C 8,0 km/h (2 Bft)
14.10.2016 22:31 12,7 °C 12,8 °C 77 % 1005,4 hPa 0,0 mm 2,9 km/h (1 Bft) O-NO 68 ° 0 min 0,000 mm 0,0 UV-I 0 W/m² 8,8 °C 4,8 km/h (1 Bft)
14.10.2016 22:32 12,6 °C 12,7 °C 77 % 1005,5 hPa 0,0 mm 3,3 km/h (1 Bft) N-NO 20 ° 0 min 0,000 mm 0,0 UV-I 0 W/m² 8,7 °C 6,4 km/h (2 Bft)
14.10.2016 22:33 12,6 °C 12,6 °C 77 % 1005,4 hPa 0,0 mm 3,8 km/h (1 Bft) W-NW 297 ° 0 min 0,000 mm 0,0 UV-I 0 W/m² 8,7 °C 6,4 km/h (2 Bft)
14.10.2016 22:34 12,6 °C 12,6 °C 76 % 1005,5 hPa 0,0 mm 3,2 km/h (1 Bft) N 9 ° 0 min 0,000 mm 0,0 UV-I 0 W/m² 8,5 °C 4,8 km/h (1 Bft)
14.10.2016 22:35 12,6 °C 12,6 °C 76 % 1005,3 hPa 0,0 mm 1,8 km/h (1 Bft) N 9 ° 0 min 0,000 mm 0,0 UV-I 0 W/m² 8,5 °C 4,8 km/h (1 Bft)
14.10.2016 22:36 12,5 °C 12,6 °C 76 % 1005,3 hPa 0,0 mm 1,2 km/h (1 Bft) N 9 ° 0 min 0,000 mm 0,0 UV-I 0 W/m² 8,4 °C 3,2 km/h (1 Bft)
14.10.2016 22:37 12,6 °C 12,6 °C 75 % 1005,3 hPa 0,0 mm 2,3 km/h (1 Bft) NO 40 ° 0 min 0,000 mm 0,0 UV-I 0 W/m² 8,3 °C 3,2 km/h (1 Bft)
14.10.2016 22:38 12,6 °C 12,6 °C 75 % 1005,3 hPa 0,0 mm 0,9 km/h (0 Bft) NO 40 ° 0 min 0,000 mm 0,0 UV-I 0 W/m² 8,3 °C 1,6 km/h (1 Bft)
14.10.2016 22:39 12,6 °C 12,6 °C 75 % 1005,3 hPa 0,0 mm 0,6 km/h (0 Bft) NO 42 ° 0 min 0,000 mm 0,0 UV-I 0 W/m² 8,3 °C 1,6 km/h (1 Bft)
14.10.2016 22:40 12,5 °C 12,6 °C 75 % 1005,4 hPa 0,0 mm 3,1 km/h (1 Bft) O-NO 63 ° 0 min 0,000 mm 0,0 UV-I 0 W/m² 8,2 °C 4,8 km/h (1 Bft)
14.10.2016 22:41 12,5 °C 12,5 °C 77 % 1005,5 hPa 0,0 mm 6,9 km/h (2 Bft) N-NO 28 ° 0 min 0,000 mm 0,0 UV-I 0 W/m² 8,6 °C 12,9 km/h (3 Bft)
14.10.2016 22:42 12,6 °C 12,6 °C 74 % 1005,4 hPa 0,0 mm 8,2 km/h (2 Bft) SW 221 ° 0 min 0,000 mm 0,0 UV-I 0 W/m² 8,1 °C 14,5 km/h (3 Bft)
14.10.2016 22:43 12,7 °C 12,7 °C 74 % 1005,6 hPa 0,0 mm 4,4 km/h (1 Bft) W 277 ° 0 min 0,000 mm 0,0 UV-I 0 W/m² 8,2 °C 6,4 km/h (2 Bft)
14.10.2016 22:44 12,8 °C 12,8 °C 74 % 1005,5 hPa 0,0 mm 4,5 km/h (1 Bft) W 275 ° 0 min 0,000 mm 0,0 UV-I 0 W/m² 8,3 °C 6,4 km/h (2 Bft)
14.10.2016 22:45 12,8 °C 12,8 °C 74 % 1005,6 hPa 0,0 mm 7,8 km/h (2 Bft) W-SW 254 ° 0 min 0,000 mm 0,0 UV-I 0 W/m² 8,3 °C 11,3 km/h (2 Bft)
14.10.2016 22:46 12,8 °C 12,8 °C 74 % 1005,7 hPa 0,0 mm 6,3 km/h (2 Bft) SW 224 ° 0 min 0,000 mm 0,0 UV-I 0 W/m² 8,3 °C 11,3 km/h (2 Bft)
14.10.2016 22:47 12,8 °C 12,8 °C 73 % 1005,7 hPa 0,0 mm 1,1 km/h (1 Bft) SW 224 ° 0 min 0,000 mm 0,0 UV-I 0 W/m² 8,1 °C 3,2 km/h (1 Bft)
14.10.2016 22:48 12,9 °C 12,9 °C 73 % 1005,8 hPa 0,0 mm 2,7 km/h (1 Bft) S 190 ° 0 min 0,000 mm 0,0 UV-I 0 W/m² 8,2 °C 9,7 km/h (2 Bft)
14.10.2016 22:49 13,0 °C 13,0 °C 72 % 1005,8 hPa 0,0 mm 5,1 km/h (1 Bft) S 177 ° 0 min 0,000 mm 0,0 UV-I 0 W/m² 8,1 °C 6,4 km/h (2 Bft)
14.10.2016 22:50 13,1 °C 13,1 °C 72 % 1005,8 hPa 0,0 mm 5,5 km/h (1 Bft) S-SO 165 ° 0 min 0,000 mm 0,0 UV-I 0 W/m² 8,2 °C 8,0 km/h (2 Bft)
14.10.2016 22:51 13,3 °C 13,3 °C 70 % 1005,8 hPa 0,0 mm 4,4 km/h (1 Bft) S-SO 148 ° 0 min 0,000 mm 0,0 UV-I 0 W/m² 7,9 °C 6,4 km/h (2 Bft)
14.10.2016 22:52 13,6 °C 13,6 °C 70 % 1005,7 hPa 0,0 mm 5,6 km/h (1 Bft) SO 126 ° 0 min 0,000 mm 0,0 UV-I 0 W/m² 8,2 °C 8,0 km/h (2 Bft)
14.10.2016 22:53 13,7 °C 13,7 °C 70 % 1005,7 hPa 0,0 mm 6,4 km/h (2 Bft) SO 124 ° 0 min 0,000 mm 0,0 UV-I 0 W/m² 8,3 °C 8,0 km/h (2 Bft)
14.10.2016 22:54 13,6 °C 13,7 °C 74 % 1005,7 hPa 0,0 mm 5,3 km/h (1 Bft) SO 124 ° 0 min 0,000 mm 0,0 UV-I 0 W/m² 9,1 °C 6,4 km/h (2 Bft)
14.10.2016 22:55 13,3 °C 13,6 °C 73 % 1005,7 hPa 0,0 mm 5,7 km/h (1 Bft) O-SO 123 ° 0 min 0,000 mm 0,0 UV-I 0 W/m² 8,6 °C 6,4 km/h (2 Bft)
14.10.2016 22:56 13,2 °C 13,3 °C 72 % 1005,8 hPa 0,0 mm 4,4 km/h (1 Bft) SO 140 ° 0 min 0,000 mm 0,0 UV-I 0 W/m² 8,3 °C 6,4 km/h (2 Bft)
14.10.2016 22:57 13,2 °C 13,2 °C 71 % 1005,7 hPa 0,0 mm 4,5 km/h (1 Bft) S-SO 147 ° 0 min 0,000 mm 0,0 UV-I 0 W/m² 8,1 °C 8,0 km/h (2 Bft)
14.10.2016 22:58 13,2 °C 13,2 °C 72 % 1005,6 hPa 0,0 mm 8,0 km/h (2 Bft) O-SO 109 ° 0 min 0,000 mm 0,0 UV-I 0 W/m² 8,3 °C 9,7 km/h (2 Bft)
14.10.2016 22:59 13,3 °C 13,3 °C 72 % 1005,6 hPa 0,0 mm 4,9 km/h (1 Bft) O-NO 71 ° 0 min 0,000 mm 0,0 UV-I 0 W/m² 8,4 °C 6,4 km/h (2 Bft)
14.10.2016 23:00 13,3 °C 13,4 °C 72 % 1005,6 hPa 0,0 mm 9,9 km/h (2 Bft) O-SO 118 ° 0 min 0,000 mm 0,0 UV-I 0 W/m² 8,4 °C 12,9 km/h (3 Bft)
14.10.2016 23:01 13,3 °C 13,3 °C 70 % 1005,5 hPa 0,0 mm 5,8 km/h (2 Bft) S-SO 165 ° 0 min 0,025 mm 0,0 UV-I 0 W/m² 7,9 °C 9,7 km/h (2 Bft)
14.10.2016 23:02 13,4 °C 13,4 °C 69 % 1005,4 hPa 0,0 mm 6,3 km/h (2 Bft) SO 144 ° 0 min 0,000 mm 0,0 UV-I 0 W/m² 7,8 °C 8,0 km/h (2 Bft)
14.10.2016 23:03 13,6 °C 13,6 °C 69 % 1005,5 hPa 0,0 mm 4,6 km/h (1 Bft) O-SO 112 ° 0 min 0,000 mm 0,0 UV-I 0 W/m² 8,0 °C 9,7 km/h (2 Bft)
14.10.2016 23:04 13,6 °C 13,6 °C 71 % 1005,5 hPa 0,0 mm 7,7 km/h (2 Bft) O 93 ° 0 min 0,000 mm 0,0 UV-I 0 W/m² 8,4 °C 11,3 km/h (2 Bft)
14.10.2016 23:05 13,6 °C 13,6 °C 68 % 1005,4 hPa 0,0 mm 4,6 km/h (1 Bft) O-NO 69 ° 0 min 0,000 mm 0,0 UV-I 0 W/m² 7,8 °C 6,4 km/h (2 Bft)
14.10.2016 23:06 13,7 °C 13,7 °C 70 % 1005,5 hPa 0,0 mm 4,0 km/h (1 Bft) O-NO 69 ° 0 min 0,000 mm 0,0 UV-I 0 W/m² 8,3 °C 4,8 km/h (1 Bft)
14.10.2016 23:07 13,6 °C 13,7 °C 72 % 1005,4 hPa 0,0 mm 5,1 km/h (1 Bft) O 80 ° 0 min 0,000 mm 0,0 UV-I 0 W/m² 8,6 °C 8,0 km/h (2 Bft)
14.10.2016 23:08 13,3 °C 13,6 °C 72 % 1005,2 hPa 0,0 mm 3,6 km/h (1 Bft) O-NO 70 ° 0 min 0,000 mm 0,0 UV-I 0 W/m² 8,4 °C 6,4 km/h (2 Bft)
14.10.2016 23:09 13,2 °C 13,3 °C 73 % 1005,1 hPa 0,0 mm 2,1 km/h (1 Bft) O-NO 70 ° 0 min 0,000 mm 0,0 UV-I 0 W/m² 8,5 °C 3,2 km/h (1 Bft)
14.10.2016 23:10 13,0 °C 13,2 °C 72 % 1005,1 hPa 0,0 mm 3,4 km/h (1 Bft) O-NO 70 ° 0 min 0,000 mm 0,0 UV-I 0 W/m² 8,1 °C 4,8 km/h (1 Bft)
14.10.2016 23:11 12,9 °C 13,0 °C 72 % 1005,1 hPa 0,0 mm 2,3 km/h (1 Bft) O-SO 105 ° 0 min 0,000 mm 0,0 UV-I 0 W/m² 8,0 °C 3,2 km/h (1 Bft)
14.10.2016 23:12 12,9 °C 12,9 °C 72 % 1005,1 hPa 0,0 mm 2,0 km/h (1 Bft) O-SO 105 ° 0 min 0,000 mm 0,0 UV-I 0 W/m² 8,0 °C 3,2 km/h (1 Bft)
14.10.2016 23:13 13,1 °C 13,1 °C 70 % 1005,1 hPa 0,0 mm 5,0 km/h (1 Bft) SO 138 ° 0 min 0,000 mm 0,0 UV-I 0 W/m² 7,8 °C 8,0 km/h (2 Bft)
14.10.2016 23:14 13,2 °C 13,2 °C 71 % 1005,2 hPa 0,0 mm 2,2 km/h (1 Bft) SO 138 ° 0 min 0,000 mm 0,0 UV-I 0 W/m² 8,1 °C 4,8 km/h (1 Bft)
14.10.2016 23:15 13,2 °C 13,2 °C 71 % 1005,2 hPa 0,0 mm 1,7 km/h (1 Bft) SO 138 ° 0 min 0,000 mm 0,0 UV-I 0 W/m² 8,1 °C 3,2 km/h (1 Bft)
14.10.2016 23:16 13,1 °C 13,2 °C 71 % 1005,2 hPa 0,0 mm 1,0 km/h (0 Bft) SO 134 ° 0 min 0,000 mm 0,0 UV-I 0 W/m² 8,0 °C 3,2 km/h (1 Bft)
14.10.2016 23:17 13,1 °C 13,1 °C 72 % 1005,2 hPa 0,0 mm 0,3 km/h (0 Bft) SO 134 ° 0 min 0,000 mm 0,0 UV-I 0 W/m² 8,2 °C 1,6 km/h (1 Bft)
14.10.2016 23:18 12,9 °C 13,1 °C 72 % 1005,3 hPa 0,0 mm 1,8 km/h (1 Bft) SO 134 ° 0 min 0,000 mm 0,0 UV-I 0 W/m² 8,0 °C 4,8 km/h (1 Bft)
14.10.2016 23:19 12,9 °C 12,9 °C 71 % 1005,4 hPa 0,0 mm 4,3 km/h (1 Bft) SO 134 ° 0 min 0,000 mm 0,0 UV-I 0 W/m² 7,8 °C 4,8 km/h (1 Bft)
14.10.2016 23:20 13,1 °C 13,1 °C 71 % 1005,4 hPa 0,0 mm 6,1 km/h (2 Bft) SO 131 ° 0 min 0,000 mm 0,0 UV-I 0 W/m² 8,0 °C 8,0 km/h (2 Bft)
14.10.2016 23:21 13,2 °C 13,2 °C 72 % 1005,4 hPa 0,0 mm 4,6 km/h (1 Bft) O 80 ° 0 min 0,000 mm 0,0 UV-I 0 W/m² 8,3 °C 6,4 km/h (2 Bft)
14.10.2016 23:22 13,2 °C 13,2 °C 73 % 1005,4 hPa 0,0 mm 7,4 km/h (2 Bft) S 171 ° 0 min 0,000 mm 0,0 UV-I 0 W/m² 8,5 °C 12,9 km/h (3 Bft)
14.10.2016 23:23 13,1 °C 13,2 °C 72 % 1005,4 hPa 0,0 mm 1,3 km/h (1 Bft) O-NO 71 ° 0 min 0,000 mm 0,0 UV-I 0 W/m² 8,2 °C 3,2 km/h (1 Bft)
14.10.2016 23:24 13,1 °C 13,1 °C 73 % 1005,3 hPa 0,0 mm 4,4 km/h (1 Bft) NO 46 ° 0 min 0,000 mm 0,0 UV-I 0 W/m² 8,4 °C 9,7 km/h (2 Bft)
14.10.2016 23:25 12,9 °C 13,1 °C 73 % 1005,1 hPa 0,0 mm 7,7 km/h (2 Bft) W-NW 296 ° 0 min 0,000 mm 0,0 UV-I 0 W/m² 8,2 °C 12,9 km/h (3 Bft)
14.10.2016 23:26 12,8 °C 12,9 °C 72 % 1005,2 hPa 0,0 mm 3,8 km/h (1 Bft) N-NW 345 ° 0 min 0,000 mm 0,0 UV-I 0 W/m² 7,9 °C 6,4 km/h (2 Bft)
14.10.2016 23:27 12,8 °C 12,8 °C 72 % 1005,3 hPa 0,0 mm 5,1 km/h (1 Bft) SW 219 ° 0 min 0,000 mm 0,0 UV-I 0 W/m² 7,9 °C 11,3 km/h (2 Bft)
14.10.2016 23:28 12,9 °C 12,9 °C 72 % 1005,4 hPa 0,0 mm 5,4 km/h (1 Bft) N 5 ° 0 min 0,000 mm 0,0 UV-I 0 W/m² 8,0 °C 8,0 km/h (2 Bft)
14.10.2016 23:29 12,8 °C 12,9 °C 71 % 1005,5 hPa 0,0 mm 5,1 km/h (1 Bft) O 92 ° 0 min 0,000 mm 0,0 UV-I 0 W/m² 7,7 °C 11,3 km/h (2 Bft)
14.10.2016 23:30 12,9 °C 12,9 °C 71 % 1005,5 hPa 0,0 mm 1,9 km/h (1 Bft) SO 144 ° 0 min 0,000 mm 0,0 UV-I 0 W/m² 7,8 °C 4,8 km/h (1 Bft)
14.10.2016 23:31 12,9 °C 12,9 °C 71 % 1005,6 hPa 0,0 mm 2,2 km/h (1 Bft) N-NW 333 ° 0 min 0,000 mm 0,0 UV-I 0 W/m² 7,8 °C 3,2 km/h (1 Bft)
14.10.2016 23:32 12,9 °C 12,9 °C 72 % 1005,6 hPa 0,0 mm 3,5 km/h (1 Bft) O-NO 69 ° 0 min 0,000 mm 0,0 UV-I 0 W/m² 8,0 °C 4,8 km/h (1 Bft)
14.10.2016 23:33 12,8 °C 12,9 °C 73 % 1005,7 hPa 0,0 mm 4,6 km/h (1 Bft) NO 53 ° 0 min 0,000 mm 0,0 UV-I 0 W/m² 8,1 °C 6,4 km/h (2 Bft)
14.10.2016 23:34 12,8 °C 12,8 °C 73 % 1005,7 hPa 0,0 mm 4,5 km/h (1 Bft) O-SO 104 ° 0 min 0,000 mm 0,0 UV-I 0 W/m² 8,1 °C 6,4 km/h (2 Bft)
14.10.2016 23:35 12,7 °C 12,8 °C 75 % 1005,8 hPa 0,0 mm 2,8 km/h (1 Bft) O 82 ° 0 min 0,000 mm 0,0 UV-I 0 W/m² 8,4 °C 4,8 km/h (1 Bft)
14.10.2016 23:36 12,6 °C 12,7 °C 75 % 1005,8 hPa 0,0 mm 4,4 km/h (1 Bft) O-NO 66 ° 0 min 0,000 mm 0,0 UV-I 0 W/m² 8,3 °C 6,4 km/h (2 Bft)
14.10.2016 23:37 12,5 °C 12,6 °C 74 % 1005,7 hPa 0,0 mm 5,3 km/h (1 Bft) O 85 ° 0 min 0,000 mm 0,0 UV-I 0 W/m² 8,0 °C 8,0 km/h (2 Bft)
14.10.2016 23:38 12,6 °C 12,6 °C 75 % 1005,7 hPa 0,0 mm 6,4 km/h (2 Bft) O 86 ° 0 min 0,000 mm 0,0 UV-I 0 W/m² 8,3 °C 9,7 km/h (2 Bft)
14.10.2016 23:39 12,5 °C 12,6 °C 74 % 1005,7 hPa 0,0 mm 8,6 km/h (2 Bft) O 92 ° 0 min 0,000 mm 0,0 UV-I 0 W/m² 8,0 °C 12,9 km/h (3 Bft)
14.10.2016 23:40 12,4 °C 12,5 °C 75 % 1005,6 hPa 0,0 mm 6,2 km/h (2 Bft) O-NO 69 ° 0 min 0,000 mm 0,0 UV-I 0 W/m² 8,1 °C 9,7 km/h (2 Bft)
14.10.2016 23:41 12,4 °C 12,5 °C 75 % 1005,6 hPa 0,0 mm 10,0 km/h (2 Bft) O-NO 78 ° 0 min 0,000 mm 0,0 UV-I 0 W/m² 8,1 °C 17,7 km/h (3 Bft)
14.10.2016 23:42 12,3 °C 12,4 °C 75 % 1005,6 hPa 0,0 mm 11,3 km/h (2 Bft) O-NO 76 ° 0 min 0,000 mm 0,0 UV-I 0 W/m² 8,0 °C 14,5 km/h (3 Bft)
14.10.2016 23:43 12,3 °C 12,3 °C 75 % 1005,6 hPa 0,0 mm 4,7 km/h (1 Bft) O-NO 67 ° 0 min 0,000 mm 0,0 UV-I 0 W/m² 8,0 °C 8,0 km/h (2 Bft)
14.10.2016 23:44 12,4 °C 12,4 °C 75 % 1005,6 hPa 0,0 mm 5,7 km/h (1 Bft) O-NO 62 ° 0 min 0,000 mm 0,0 UV-I 0 W/m² 8,1 °C 8,0 km/h (2 Bft)
14.10.2016 23:45 12,4 °C 12,4 °C 76 % 1005,5 hPa 0,0 mm 6,6 km/h (2 Bft) O-NO 72 ° 0 min 0,000 mm 0,0 UV-I 0 W/m² 8,3 °C 9,7 km/h (2 Bft)
14.10.2016 23:46 12,3 °C 12,4 °C 76 % 1005,4 hPa 0,0 mm 7,6 km/h (2 Bft) O 101 ° 0 min 0,000 mm 0,0 UV-I 0 W/m² 8,2 °C 16,1 km/h (3 Bft)
14.10.2016 23:47 12,3 °C 12,3 °C 75 % 1005,5 hPa 0,0 mm 2,0 km/h (1 Bft) N-NW 340 ° 0 min 0,000 mm 0,0 UV-I 0 W/m² 8,0 °C 3,2 km/h (1 Bft)
14.10.2016 23:48 12,2 °C 12,3 °C 74 % 1005,4 hPa 0,0 mm 3,4 km/h (1 Bft) N 5 ° 0 min 0,000 mm 0,0 UV-I 0 W/m² 7,7 °C 6,4 km/h (2 Bft)
14.10.2016 23:49 12,2 °C 12,2 °C 75 % 1005,4 hPa 0,0 mm 3,6 km/h (1 Bft) O-NO 70 ° 0 min 0,000 mm 0,0 UV-I 0 W/m² 7,9 °C 6,4 km/h (2 Bft)
14.10.2016 23:50 12,1 °C 12,2 °C 76 % 1005,4 hPa 0,0 mm 5,5 km/h (1 Bft) N-NO 17 ° 0 min 0,000 mm 0,0 UV-I 0 W/m² 8,0 °C 8,0 km/h (2 Bft)
14.10.2016 23:51 12,1 °C 12,2 °C 75 % 1005,3 hPa 0,0 mm 2,8 km/h (1 Bft) O-NO 71 ° 0 min 0,000 mm 0,0 UV-I 0 W/m² 7,8 °C 4,8 km/h (1 Bft)
14.10.2016 23:52 12,1 °C 12,2 °C 76 % 1005,3 hPa 0,0 mm 1,5 km/h (1 Bft) O-SO 109 ° 0 min 0,000 mm 0,0 UV-I 0 W/m² 8,0 °C 3,2 km/h (1 Bft)
14.10.2016 23:53 12,1 °C 12,1 °C 75 % 1005,4 hPa 0,0 mm 1,7 km/h (1 Bft) NO 44 ° 0 min 0,000 mm 0,0 UV-I 0 W/m² 7,8 °C 3,2 km/h (1 Bft)
14.10.2016 23:54 12,1 °C 12,1 °C 75 % 1005,3 hPa 0,0 mm 4,9 km/h (1 Bft) N-NO 31 ° 0 min 0,000 mm 0,0 UV-I 0 W/m² 7,8 °C 8,0 km/h (2 Bft)
14.10.2016 23:55 12,1 °C 12,1 °C 75 % 1005,3 hPa 0,0 mm 1,6 km/h (1 Bft) N-NO 31 ° 0 min 0,000 mm 0,0 UV-I 0 W/m² 7,8 °C 3,2 km/h (1 Bft)
14.10.2016 23:56 12,1 °C 12,1 °C 76 % 1005,2 hPa 0,0 mm 4,3 km/h (1 Bft) NO 47 ° 0 min 0,000 mm 0,0 UV-I 0 W/m² 8,0 °C 8,0 km/h (2 Bft)
14.10.2016 23:57 11,9 °C 12,1 °C 76 % 1005,3 hPa 0,0 mm 3,1 km/h (1 Bft) N-NO 17 ° 0 min 0,000 mm 0,0 UV-I 0 W/m² 7,8 °C 6,4 km/h (2 Bft)
14.10.2016 23:58 11,9 °C 11,9 °C 77 % 1005,3 hPa 0,0 mm 6,0 km/h (2 Bft) O-NO 59 ° 0 min 0,000 mm 0,0 UV-I 0 W/m² 8,0 °C 8,0 km/h (2 Bft)
14.10.2016 23:59 11,8 °C 11,9 °C 78 % 1005,2 hPa 0,0 mm 3,6 km/h (1 Bft) O-NO 69 ° 0 min 0,000 mm 0,0 UV-I 0 W/m² 8,1 °C 6,4 km/h (2 Bft)
_ Min-Zeit 04:35 04:35 10:38 22:18 - 20:17 - - - - - - 04:35 20:17
Minimum _ 0,9 °C 0,9 °C 60 % 1004,9 hPa - 0,0 km/h (0 Bft) - - - - - - 0,3 °C 0,0 km/h (0 Bft)
_ Max-Zeit 12:22 12:23 08:37 00:02 23:59 23:42 - - 23:59 11:01 11:53 11:38 15:35 23:41
Maximum _ 15,6 °C 15,6 °C 97 % 1012,3 hPa 0,0 mm 11,3 km/h
O-NO (2 Bft)
- - 0 min 0,102 mm 1,3 UV-I 186 W/m² 11,0 °C 17,7 km/h
O-NO (3 Bft)
Durchschnitt _ 9,1 °C 9,1 °C 85 % 1008,4 hPa #0,0 mm 1,7 km/h (1 Bft) O - #0 min. #0,584 mm 0,8 UV-I 33 W/m² 6,4 °C 2,9 km/h (1 Bft)